<?xml version='1.0' encoding='UTF-8'?><gpx version="1.1" creator="JPX - https://github.com/jenetics/jpx" xmlns="http://www.topografix.com/GPX/1/1"><trk><trkseg><trkpt lat="45.5949391" lon="10.5536091"><ele>115.00000000000001</ele><time>2026-04-09T04:33:17.345Z</time></trkpt><trkpt lat="45.5948718" lon="10.5536348"><ele>115.0</ele><time>2026-04-09T04:34:19.344Z</time></trkpt><trkpt lat="45.5948063" lon="10.5536246"><ele>115.0</ele><time>2026-04-09T04:34:21.345Z</time></trkpt><trkpt lat="45.5947181" lon="10.5536052"><ele>115.0</ele><time>2026-04-09T04:34:24.344Z</time></trkpt><trkpt lat="45.5946422" lon="10.5535906"><ele>115.00000000000001</ele><time>2026-04-09T04:34:26.344Z</time></trkpt><trkpt lat="45.5945426" lon="10.5535933"><ele>115.0</ele><time>2026-04-09T04:34:28.345Z</time></trkpt><trkpt lat="45.5944614" lon="10.5535979"><ele>115.33333333333334</ele><time>2026-04-09T04:34:30.345Z</time></trkpt><trkpt lat="45.5943763" lon="10.5536003"><ele>115.66666666666667</ele><time>2026-04-09T04:34:32.344Z</time></trkpt><trkpt lat="45.5943127" lon="10.5535948"><ele>116.0</ele><time>2026-04-09T04:34:34.345Z</time></trkpt><trkpt lat="45.5942731" lon="10.5534975"><ele>116.33333333333334</ele><time>2026-04-09T04:34:37.344Z</time></trkpt><trkpt lat="45.5942808" lon="10.5533895"><ele>116.66666666666667</ele><time>2026-04-09T04:34:38.345Z</time></trkpt><trkpt lat="45.5942802" lon="10.5532789"><ele>117.0</ele><time>2026-04-09T04:34:39.345Z</time></trkpt><trkpt lat="45.5942779" lon="10.5531692"><ele>117.0</ele><time>2026-04-09T04:34:40.343Z</time></trkpt><trkpt lat="45.5942702" lon="10.5529821"><ele>116.99999999999999</ele><time>2026-04-09T04:34:42.344Z</time></trkpt><trkpt lat="45.5942648" lon="10.5528811"><ele>116.99999999999999</ele><time>2026-04-09T04:34:43.344Z</time></trkpt><trkpt lat="45.5942612" lon="10.5527904"><ele>117.0</ele><time>2026-04-09T04:34:44.343Z</time></trkpt><trkpt lat="45.5942556" lon="10.5526136"><ele>117.0</ele><time>2026-04-09T04:34:46.343Z</time></trkpt><trkpt lat="45.5942506" lon="10.5524963"><ele>117.0</ele><time>2026-04-09T04:34:47.344Z</time></trkpt><trkpt lat="45.5942468" lon="10.5523688"><ele>117.0</ele><time>2026-04-09T04:34:48.344Z</time></trkpt><trkpt lat="45.594244" lon="10.5522488"><ele>117.0</ele><time>2026-04-09T04:34:49.344Z</time></trkpt><trkpt lat="45.5942411" lon="10.5521451"><ele>117.0</ele><time>2026-04-09T04:34:50.344Z</time></trkpt><trkpt lat="45.5942373" lon="10.5520449"><ele>117.0</ele><time>2026-04-09T04:34:51.344Z</time></trkpt><trkpt lat="45.5942326" lon="10.5519475"><ele>117.0</ele><time>2026-04-09T04:34:52.344Z</time></trkpt><trkpt lat="45.5942178" lon="10.5517978"><ele>116.42857142857143</ele><time>2026-04-09T04:34:54.344Z</time></trkpt><trkpt lat="45.5942017" lon="10.551707"><ele>115.85714285714286</ele><time>2026-04-09T04:34:55.344Z</time></trkpt><trkpt lat="45.594178" lon="10.5516171"><ele>115.28571428571429</ele><time>2026-04-09T04:34:56.344Z</time></trkpt><trkpt lat="45.5941474" lon="10.5515333"><ele>114.71428571428572</ele><time>2026-04-09T04:34:57.343Z</time></trkpt><trkpt lat="45.5941041" lon="10.5514495"><ele>114.14285714285714</ele><time>2026-04-09T04:34:58.343Z</time></trkpt><trkpt lat="45.5940609" lon="10.5513705"><ele>113.57142857142858</ele><time>2026-04-09T04:34:59.344Z</time></trkpt><trkpt lat="45.5940176" lon="10.5512935"><ele>113.0</ele><time>2026-04-09T04:35:00.344Z</time></trkpt><trkpt lat="45.5939816" lon="10.5512137"><ele>112.0</ele><time>2026-04-09T04:35:01.343Z</time></trkpt><trkpt lat="45.5939399" lon="10.5510563"><ele>111.0</ele><time>2026-04-09T04:35:03.343Z</time></trkpt><trkpt lat="45.5939188" lon="10.5508425"><ele>110.0</ele><time>2026-04-09T04:35:05.343Z</time></trkpt><trkpt lat="45.5939134" lon="10.5507064"><ele>109.0</ele><time>2026-04-09T04:35:06.344Z</time></trkpt><trkpt lat="45.5939213" lon="10.550556"><ele>109.0</ele><time>2026-04-09T04:35:07.343Z</time></trkpt><trkpt lat="45.5939425" lon="10.5503858"><ele>109.0</ele><time>2026-04-09T04:35:08.344Z</time></trkpt><trkpt lat="45.5939895" lon="10.5502088"><ele>109.0</ele><time>2026-04-09T04:35:09.344Z</time></trkpt><trkpt lat="45.5940645" lon="10.55002"><ele>109.0</ele><time>2026-04-09T04:35:10.343Z</time></trkpt><trkpt lat="45.5941502" lon="10.549834"><ele>109.0</ele><time>2026-04-09T04:35:11.343Z</time></trkpt><trkpt lat="45.5942277" lon="10.5496518"><ele>109.0</ele><time>2026-04-09T04:35:12.343Z</time></trkpt><trkpt lat="45.5942871" lon="10.5494505"><ele>109.0</ele><time>2026-04-09T04:35:13.343Z</time></trkpt><trkpt lat="45.5943354" lon="10.5492349"><ele>109.0</ele><time>2026-04-09T04:35:14.344Z</time></trkpt><trkpt lat="45.5943689" lon="10.5490087"><ele>109.0</ele><time>2026-04-09T04:35:15.344Z</time></trkpt><trkpt lat="45.5943819" lon="10.5487703"><ele>109.0</ele><time>2026-04-09T04:35:16.343Z</time></trkpt><trkpt lat="45.5943836" lon="10.548533"><ele>110.0</ele><time>2026-04-09T04:35:17.343Z</time></trkpt><trkpt lat="45.5943783" lon="10.5482911"><ele>111.0</ele><time>2026-04-09T04:35:18.343Z</time></trkpt><trkpt lat="45.5943642" lon="10.548036"><ele>112.0</ele><time>2026-04-09T04:35:19.344Z</time></trkpt><trkpt lat="45.5943479" lon="10.5477709"><ele>113.33333333333334</ele><time>2026-04-09T04:35:20.344Z</time></trkpt><trkpt lat="45.5943485" lon="10.5475008"><ele>114.66666666666666</ele><time>2026-04-09T04:35:21.344Z</time></trkpt><trkpt lat="45.5943676" lon="10.5472229"><ele>116.0</ele><time>2026-04-09T04:35:22.344Z</time></trkpt><trkpt lat="45.59441" lon="10.5469758"><ele>116.5</ele><time>2026-04-09T04:35:23.344Z</time></trkpt><trkpt lat="45.594442" lon="10.5467597"><ele>117.0</ele><time>2026-04-09T04:35:24.344Z</time></trkpt><trkpt lat="45.5944696" lon="10.5465605"><ele>117.5</ele><time>2026-04-09T04:35:25.343Z</time></trkpt><trkpt lat="45.5944912" lon="10.5463756"><ele>118.0</ele><time>2026-04-09T04:35:26.344Z</time></trkpt><trkpt lat="45.5945027" lon="10.5462134"><ele>117.00000000000001</ele><time>2026-04-09T04:35:27.344Z</time></trkpt><trkpt lat="45.5945217" lon="10.5460765"><ele>116.0</ele><time>2026-04-09T04:35:28.344Z</time></trkpt><trkpt lat="45.594553" lon="10.5459699"><ele>115.0</ele><time>2026-04-09T04:35:29.344Z</time></trkpt><trkpt lat="45.5945896" lon="10.5458735"><ele>114.0</ele><time>2026-04-09T04:35:30.344Z</time></trkpt><trkpt lat="45.5946194" lon="10.5457926"><ele>113.00000000000001</ele><time>2026-04-09T04:35:31.344Z</time></trkpt><trkpt lat="45.5946087" lon="10.5456111"><ele>112.0</ele><time>2026-04-09T04:35:33.344Z</time></trkpt><trkpt lat="45.5945755" lon="10.545474"><ele>112.25</ele><time>2026-04-09T04:35:34.344Z</time></trkpt><trkpt lat="45.5945322" lon="10.5453128"><ele>112.5</ele><time>2026-04-09T04:35:35.344Z</time></trkpt><trkpt lat="45.5945116" lon="10.5451207"><ele>112.75</ele><time>2026-04-09T04:35:36.344Z</time></trkpt><trkpt lat="45.5945011" lon="10.5449091"><ele>113.0</ele><time>2026-04-09T04:35:37.344Z</time></trkpt><trkpt lat="45.5944954" lon="10.5446865"><ele>117.0</ele><time>2026-04-09T04:35:38.343Z</time></trkpt><trkpt lat="45.594484" lon="10.5444671"><ele>121.0</ele><time>2026-04-09T04:35:39.344Z</time></trkpt><trkpt lat="45.5944755" lon="10.5442496"><ele>125.0</ele><time>2026-04-09T04:35:40.343Z</time></trkpt><trkpt lat="45.5944472" lon="10.544041"><ele>125.0</ele><time>2026-04-09T04:35:41.344Z</time></trkpt><trkpt lat="45.5944001" lon="10.543847"><ele>125.0</ele><time>2026-04-09T04:35:42.343Z</time></trkpt><trkpt lat="45.5943436" lon="10.5436627"><ele>125.0</ele><time>2026-04-09T04:35:43.344Z</time></trkpt><trkpt lat="45.594294" lon="10.5435101"><ele>125.0</ele><time>2026-04-09T04:35:44.344Z</time></trkpt><trkpt lat="45.5942475" lon="10.5433511"><ele>125.5</ele><time>2026-04-09T04:35:45.344Z</time></trkpt><trkpt lat="45.5942005" lon="10.5431875"><ele>126.0</ele><time>2026-04-09T04:35:46.343Z</time></trkpt><trkpt lat="45.5941447" lon="10.5430122"><ele>126.5</ele><time>2026-04-09T04:35:47.343Z</time></trkpt><trkpt lat="45.5940897" lon="10.5428272"><ele>127.0</ele><time>2026-04-09T04:35:48.343Z</time></trkpt><trkpt lat="45.5940387" lon="10.5426373"><ele>127.5</ele><time>2026-04-09T04:35:49.343Z</time></trkpt><trkpt lat="45.5940226" lon="10.5424329"><ele>128.0</ele><time>2026-04-09T04:35:50.344Z</time></trkpt><trkpt lat="45.5940351" lon="10.5422308"><ele>128.5</ele><time>2026-04-09T04:35:51.344Z</time></trkpt><trkpt lat="45.5940633" lon="10.5420248"><ele>129.0</ele><time>2026-04-09T04:35:52.344Z</time></trkpt><trkpt lat="45.5941059" lon="10.5418289"><ele>130.0</ele><time>2026-04-09T04:35:53.344Z</time></trkpt><trkpt lat="45.5941523" lon="10.5416354"><ele>131.0</ele><time>2026-04-09T04:35:54.343Z</time></trkpt><trkpt lat="45.5941928" lon="10.5414533"><ele>132.0</ele><time>2026-04-09T04:35:55.343Z</time></trkpt><trkpt lat="45.594221" lon="10.5412889"><ele>133.0</ele><time>2026-04-09T04:35:56.344Z</time></trkpt><trkpt lat="45.5942377" lon="10.5411472"><ele>133.83333333333334</ele><time>2026-04-09T04:35:57.343Z</time></trkpt><trkpt lat="45.5942195" lon="10.5410326"><ele>134.66666666666669</ele><time>2026-04-09T04:35:58.344Z</time></trkpt><trkpt lat="45.5941852" lon="10.5409554"><ele>135.5</ele><time>2026-04-09T04:35:59.343Z</time></trkpt><trkpt lat="45.5941265" lon="10.5408835"><ele>136.33333333333334</ele><time>2026-04-09T04:36:00.344Z</time></trkpt><trkpt lat="45.5940538" lon="10.5408469"><ele>137.16666666666666</ele><time>2026-04-09T04:36:01.344Z</time></trkpt><trkpt lat="45.5939711" lon="10.5408742"><ele>138.0</ele><time>2026-04-09T04:36:02.344Z</time></trkpt><trkpt lat="45.5938784" lon="10.5409489"><ele>138.0</ele><time>2026-04-09T04:36:03.343Z</time></trkpt><trkpt lat="45.593787" lon="10.5410407"><ele>138.0</ele><time>2026-04-09T04:36:04.343Z</time></trkpt><trkpt lat="45.5937024" lon="10.5410929"><ele>138.0</ele><time>2026-04-09T04:36:05.344Z</time></trkpt><trkpt lat="45.5936227" lon="10.5410917"><ele>138.0</ele><time>2026-04-09T04:36:06.344Z</time></trkpt><trkpt lat="45.5935561" lon="10.5410569"><ele>138.0</ele><time>2026-04-09T04:36:07.344Z</time></trkpt><trkpt lat="45.5934897" lon="10.5409742"><ele>138.0</ele><time>2026-04-09T04:36:08.343Z</time></trkpt><trkpt lat="45.5934282" lon="10.5408529"><ele>139.25</ele><time>2026-04-09T04:36:09.344Z</time></trkpt><trkpt lat="45.593372" lon="10.540713"><ele>140.5</ele><time>2026-04-09T04:36:10.343Z</time></trkpt><trkpt lat="45.5932981" lon="10.5405566"><ele>141.75</ele><time>2026-04-09T04:36:11.343Z</time></trkpt><trkpt lat="45.5932362" lon="10.5403884"><ele>143.0</ele><time>2026-04-09T04:36:12.344Z</time></trkpt><trkpt lat="45.5931678" lon="10.5401924"><ele>144.0</ele><time>2026-04-09T04:36:13.344Z</time></trkpt><trkpt lat="45.5931031" lon="10.5399882"><ele>145.0</ele><time>2026-04-09T04:36:14.344Z</time></trkpt><trkpt lat="45.5930481" lon="10.539786"><ele>146.0</ele><time>2026-04-09T04:36:15.344Z</time></trkpt><trkpt lat="45.5929886" lon="10.5395539"><ele>147.0</ele><time>2026-04-09T04:36:16.343Z</time></trkpt><trkpt lat="45.5929321" lon="10.5393276"><ele>148.0</ele><time>2026-04-09T04:36:17.344Z</time></trkpt><trkpt lat="45.5928736" lon="10.5391209"><ele>149.0</ele><time>2026-04-09T04:36:18.343Z</time></trkpt><trkpt lat="45.5928237" lon="10.5389627"><ele>150.0</ele><time>2026-04-09T04:36:19.344Z</time></trkpt><trkpt lat="45.5927906" lon="10.5388065"><ele>150.75</ele><time>2026-04-09T04:36:20.344Z</time></trkpt><trkpt lat="45.5927689" lon="10.5386335"><ele>151.5</ele><time>2026-04-09T04:36:21.343Z</time></trkpt><trkpt lat="45.5927549" lon="10.5384561"><ele>152.25</ele><time>2026-04-09T04:36:22.343Z</time></trkpt><trkpt lat="45.5927453" lon="10.538247"><ele>153.0</ele><time>2026-04-09T04:36:23.343Z</time></trkpt><trkpt lat="45.5927399" lon="10.5380121"><ele>154.0</ele><time>2026-04-09T04:36:24.344Z</time></trkpt><trkpt lat="45.5927295" lon="10.5377599"><ele>155.0</ele><time>2026-04-09T04:36:25.344Z</time></trkpt><trkpt lat="45.5927263" lon="10.5374957"><ele>156.0</ele><time>2026-04-09T04:36:26.344Z</time></trkpt><trkpt lat="45.592715" lon="10.537244"><ele>156.33333333333334</ele><time>2026-04-09T04:36:27.343Z</time></trkpt><trkpt lat="45.5927034" lon="10.5369865"><ele>156.66666666666669</ele><time>2026-04-09T04:36:28.344Z</time></trkpt><trkpt lat="45.592693" lon="10.53672"><ele>157.0</ele><time>2026-04-09T04:36:29.343Z</time></trkpt><trkpt lat="45.5926853" lon="10.5364568"><ele>157.0</ele><time>2026-04-09T04:36:30.343Z</time></trkpt><trkpt lat="45.5926901" lon="10.5361893"><ele>157.0</ele><time>2026-04-09T04:36:31.343Z</time></trkpt><trkpt lat="45.5927111" lon="10.5359168"><ele>157.0</ele><time>2026-04-09T04:36:32.343Z</time></trkpt><trkpt lat="45.5927529" lon="10.535646"><ele>157.0</ele><time>2026-04-09T04:36:33.343Z</time></trkpt><trkpt lat="45.592815" lon="10.5353703"><ele>157.0</ele><time>2026-04-09T04:36:34.344Z</time></trkpt><trkpt lat="45.5928827" lon="10.5350925"><ele>157.0</ele><time>2026-04-09T04:36:35.344Z</time></trkpt><trkpt lat="45.5929291" lon="10.5348126"><ele>157.33333333333334</ele><time>2026-04-09T04:36:36.343Z</time></trkpt><trkpt lat="45.5929558" lon="10.5345132"><ele>157.66666666666666</ele><time>2026-04-09T04:36:37.344Z</time></trkpt><trkpt lat="45.5929562" lon="10.5342118"><ele>158.0</ele><time>2026-04-09T04:36:38.344Z</time></trkpt><trkpt lat="45.5929553" lon="10.5339155"><ele>156.66666666666666</ele><time>2026-04-09T04:36:39.344Z</time></trkpt><trkpt lat="45.5929483" lon="10.5336423"><ele>155.33333333333334</ele><time>2026-04-09T04:36:40.344Z</time></trkpt><trkpt lat="45.5929544" lon="10.5333891"><ele>154.0</ele><time>2026-04-09T04:36:41.344Z</time></trkpt><trkpt lat="45.5929637" lon="10.5331438"><ele>154.0</ele><time>2026-04-09T04:36:42.344Z</time></trkpt><trkpt lat="45.5929741" lon="10.532918"><ele>154.0</ele><time>2026-04-09T04:36:43.344Z</time></trkpt><trkpt lat="45.5929773" lon="10.5327122"><ele>154.0</ele><time>2026-04-09T04:36:44.343Z</time></trkpt><trkpt lat="45.5929867" lon="10.5325119"><ele>154.0</ele><time>2026-04-09T04:36:45.344Z</time></trkpt><trkpt lat="45.5929994" lon="10.5323117"><ele>154.0</ele><time>2026-04-09T04:36:46.344Z</time></trkpt><trkpt lat="45.593013" lon="10.5321074"><ele>154.0</ele><time>2026-04-09T04:36:47.344Z</time></trkpt><trkpt lat="45.593019" lon="10.5318845"><ele>154.0</ele><time>2026-04-09T04:36:48.344Z</time></trkpt><trkpt lat="45.5930396" lon="10.5316369"><ele>154.0</ele><time>2026-04-09T04:36:49.343Z</time></trkpt><trkpt lat="45.5930769" lon="10.5313701"><ele>154.0</ele><time>2026-04-09T04:36:50.344Z</time></trkpt><trkpt lat="45.5931264" lon="10.5310939"><ele>154.0</ele><time>2026-04-09T04:36:51.344Z</time></trkpt><trkpt lat="45.5931703" lon="10.5308025"><ele>154.33333333333334</ele><time>2026-04-09T04:36:52.344Z</time></trkpt><trkpt lat="45.593209" lon="10.5305205"><ele>154.66666666666666</ele><time>2026-04-09T04:36:53.343Z</time></trkpt><trkpt lat="45.5932351" lon="10.5302347"><ele>155.0</ele><time>2026-04-09T04:36:54.344Z</time></trkpt><trkpt lat="45.5932468" lon="10.5299419"><ele>155.0</ele><time>2026-04-09T04:36:55.344Z</time></trkpt><trkpt lat="45.5932398" lon="10.5296487"><ele>155.0</ele><time>2026-04-09T04:36:56.344Z</time></trkpt><trkpt lat="45.5932096" lon="10.5293499"><ele>155.0</ele><time>2026-04-09T04:36:57.344Z</time></trkpt><trkpt lat="45.5931618" lon="10.529054"><ele>155.0</ele><time>2026-04-09T04:36:58.343Z</time></trkpt><trkpt lat="45.5931073" lon="10.5287646"><ele>155.0</ele><time>2026-04-09T04:36:59.344Z</time></trkpt><trkpt lat="45.5930379" lon="10.5284738"><ele>155.0</ele><time>2026-04-09T04:37:00.344Z</time></trkpt><trkpt lat="45.5929773" lon="10.5281725"><ele>154.33333333333331</ele><time>2026-04-09T04:37:01.344Z</time></trkpt><trkpt lat="45.5929272" lon="10.5278706"><ele>153.66666666666666</ele><time>2026-04-09T04:37:02.343Z</time></trkpt><trkpt lat="45.5928791" lon="10.5275723"><ele>153.0</ele><time>2026-04-09T04:37:03.344Z</time></trkpt><trkpt lat="45.5928295" lon="10.5272785"><ele>154.66666666666666</ele><time>2026-04-09T04:37:04.343Z</time></trkpt><trkpt lat="45.5927707" lon="10.5269943"><ele>156.33333333333331</ele><time>2026-04-09T04:37:05.344Z</time></trkpt><trkpt lat="45.5927075" lon="10.5267233"><ele>158.0</ele><time>2026-04-09T04:37:06.343Z</time></trkpt><trkpt lat="45.5926417" lon="10.5264708"><ele>158.0</ele><time>2026-04-09T04:37:07.343Z</time></trkpt><trkpt lat="45.5925791" lon="10.5262444"><ele>158.0</ele><time>2026-04-09T04:37:08.344Z</time></trkpt><trkpt lat="45.5925533" lon="10.5260157"><ele>158.0</ele><time>2026-04-09T04:37:09.343Z</time></trkpt><trkpt lat="45.5925646" lon="10.5257924"><ele>158.0</ele><time>2026-04-09T04:37:10.344Z</time></trkpt><trkpt lat="45.5925904" lon="10.5255486"><ele>158.0</ele><time>2026-04-09T04:37:11.344Z</time></trkpt><trkpt lat="45.5926192" lon="10.5252859"><ele>158.0</ele><time>2026-04-09T04:37:12.343Z</time></trkpt><trkpt lat="45.5926235" lon="10.5250162"><ele>158.33333333333331</ele><time>2026-04-09T04:37:13.343Z</time></trkpt><trkpt lat="45.5926277" lon="10.5247357"><ele>158.66666666666666</ele><time>2026-04-09T04:37:14.344Z</time></trkpt><trkpt lat="45.5926337" lon="10.5244604"><ele>159.0</ele><time>2026-04-09T04:37:15.344Z</time></trkpt><trkpt lat="45.592627" lon="10.5242165"><ele>159.5</ele><time>2026-04-09T04:37:16.343Z</time></trkpt><trkpt lat="45.5926114" lon="10.5240132"><ele>160.0</ele><time>2026-04-09T04:37:17.344Z</time></trkpt><trkpt lat="45.592598" lon="10.5238371"><ele>160.5</ele><time>2026-04-09T04:37:18.344Z</time></trkpt><trkpt lat="45.5925799" lon="10.5236703"><ele>161.0</ele><time>2026-04-09T04:37:19.344Z</time></trkpt><trkpt lat="45.5925524" lon="10.5235327"><ele>160.0</ele><time>2026-04-09T04:37:20.343Z</time></trkpt><trkpt lat="45.5925345" lon="10.5234307"><ele>159.0</ele><time>2026-04-09T04:37:21.344Z</time></trkpt><trkpt lat="45.592512" lon="10.5233426"><ele>158.0</ele><time>2026-04-09T04:37:22.344Z</time></trkpt><trkpt lat="45.5924794" lon="10.5231779"><ele>157.0</ele><time>2026-04-09T04:37:24.344Z</time></trkpt><trkpt lat="45.5924365" lon="10.5230228"><ele>156.0</ele><time>2026-04-09T04:37:26.344Z</time></trkpt><trkpt lat="45.5923921" lon="10.5228541"><ele>154.6</ele><time>2026-04-09T04:37:28.344Z</time></trkpt><trkpt lat="45.5923695" lon="10.5227605"><ele>153.2</ele><time>2026-04-09T04:37:29.343Z</time></trkpt><trkpt lat="45.5923198" lon="10.5226064"><ele>151.8</ele><time>2026-04-09T04:37:31.343Z</time></trkpt><trkpt lat="45.5922334" lon="10.5225453"><ele>150.4</ele><time>2026-04-09T04:37:33.343Z</time></trkpt><trkpt lat="45.5921516" lon="10.5225694"><ele>149.0</ele><time>2026-04-09T04:37:35.344Z</time></trkpt><trkpt lat="45.5920501" lon="10.5226453"><ele>150.8</ele><time>2026-04-09T04:37:37.344Z</time></trkpt><trkpt lat="45.5919696" lon="10.5227609"><ele>152.60000000000002</ele><time>2026-04-09T04:37:39.343Z</time></trkpt><trkpt lat="45.5918837" lon="10.5228743"><ele>154.4</ele><time>2026-04-09T04:37:41.343Z</time></trkpt><trkpt lat="45.5917698" lon="10.5229579"><ele>156.20000000000002</ele><time>2026-04-09T04:37:43.343Z</time></trkpt><trkpt lat="45.5917121" lon="10.5229954"><ele>158.0</ele><time>2026-04-09T04:37:44.343Z</time></trkpt><trkpt lat="45.5916352" lon="10.5230425"><ele>158.0</ele><time>2026-04-09T04:37:46.344Z</time></trkpt><trkpt lat="45.5915524" lon="10.5230378"><ele>158.0</ele><time>2026-04-09T04:37:48.343Z</time></trkpt><trkpt lat="45.5914533" lon="10.5229598"><ele>158.0</ele><time>2026-04-09T04:37:50.344Z</time></trkpt><trkpt lat="45.5913791" lon="10.5228204"><ele>158.0</ele><time>2026-04-09T04:37:52.343Z</time></trkpt><trkpt lat="45.5912892" lon="10.5227202"><ele>158.0</ele><time>2026-04-09T04:37:54.343Z</time></trkpt><trkpt lat="45.5911735" lon="10.5227103"><ele>157.8</ele><time>2026-04-09T04:37:56.344Z</time></trkpt><trkpt lat="45.5911141" lon="10.5227416"><ele>157.60000000000002</ele><time>2026-04-09T04:37:57.343Z</time></trkpt><trkpt lat="45.5910301" lon="10.5228546"><ele>157.39999999999998</ele><time>2026-04-09T04:37:59.36Z</time></trkpt><trkpt lat="45.5909336" lon="10.5229634"><ele>157.2</ele><time>2026-04-09T04:38:01.36Z</time></trkpt><trkpt lat="45.590873" lon="10.5229953"><ele>157.0</ele><time>2026-04-09T04:38:02.36Z</time></trkpt><trkpt lat="45.5907571" lon="10.5229799"><ele>157.0</ele><time>2026-04-09T04:38:04.36Z</time></trkpt><trkpt lat="45.5906892" lon="10.5229586"><ele>157.0</ele><time>2026-04-09T04:38:05.361Z</time></trkpt><trkpt lat="45.5906128" lon="10.5229082"><ele>157.0</ele><time>2026-04-09T04:38:06.36Z</time></trkpt><trkpt lat="45.5905276" lon="10.5228477"><ele>157.0</ele><time>2026-04-09T04:38:07.361Z</time></trkpt><trkpt lat="45.5904092" lon="10.5227906"><ele>157.0</ele><time>2026-04-09T04:38:08.36Z</time></trkpt><trkpt lat="45.5902856" lon="10.5227136"><ele>157.33333333333334</ele><time>2026-04-09T04:38:09.361Z</time></trkpt><trkpt lat="45.5901714" lon="10.5226189"><ele>157.66666666666666</ele><time>2026-04-09T04:38:10.36Z</time></trkpt><trkpt lat="45.5900445" lon="10.52252"><ele>158.0</ele><time>2026-04-09T04:38:11.36Z</time></trkpt><trkpt lat="45.589889" lon="10.5224079"><ele>158.0</ele><time>2026-04-09T04:38:12.36Z</time></trkpt><trkpt lat="45.5897068" lon="10.5222755"><ele>158.0</ele><time>2026-04-09T04:38:13.361Z</time></trkpt><trkpt lat="45.5895109" lon="10.5221114"><ele>158.0</ele><time>2026-04-09T04:38:14.36Z</time></trkpt><trkpt lat="45.5893078" lon="10.5219401"><ele>155.5</ele><time>2026-04-09T04:38:15.361Z</time></trkpt><trkpt lat="45.5890934" lon="10.5217701"><ele>153.0</ele><time>2026-04-09T04:38:16.361Z</time></trkpt><trkpt lat="45.5888919" lon="10.5216171"><ele>153.0</ele><time>2026-04-09T04:38:17.361Z</time></trkpt><trkpt lat="45.5887109" lon="10.52149"><ele>153.0</ele><time>2026-04-09T04:38:18.36Z</time></trkpt><trkpt lat="45.5885356" lon="10.5213585"><ele>153.0</ele><time>2026-04-09T04:38:19.361Z</time></trkpt><trkpt lat="45.5883597" lon="10.5212256"><ele>153.0</ele><time>2026-04-09T04:38:20.361Z</time></trkpt><trkpt lat="45.5881921" lon="10.5210951"><ele>153.0</ele><time>2026-04-09T04:38:21.36Z</time></trkpt><trkpt lat="45.5880317" lon="10.5209561"><ele>153.0</ele><time>2026-04-09T04:38:22.361Z</time></trkpt><trkpt lat="45.58788" lon="10.5208118"><ele>152.66666666666666</ele><time>2026-04-09T04:38:23.36Z</time></trkpt><trkpt lat="45.5877494" lon="10.5206277"><ele>152.33333333333331</ele><time>2026-04-09T04:38:24.361Z</time></trkpt><trkpt lat="45.5876447" lon="10.520422"><ele>152.0</ele><time>2026-04-09T04:38:25.36Z</time></trkpt><trkpt lat="45.587558" lon="10.5202031"><ele>151.66666666666666</ele><time>2026-04-09T04:38:26.361Z</time></trkpt><trkpt lat="45.5874956" lon="10.5199753"><ele>151.33333333333334</ele><time>2026-04-09T04:38:27.36Z</time></trkpt><trkpt lat="45.5874306" lon="10.5197375"><ele>151.0</ele><time>2026-04-09T04:38:28.36Z</time></trkpt><trkpt lat="45.587365" lon="10.5195042"><ele>151.0</ele><time>2026-04-09T04:38:29.36Z</time></trkpt><trkpt lat="45.5872912" lon="10.5192805"><ele>151.0</ele><time>2026-04-09T04:38:30.359Z</time></trkpt><trkpt lat="45.5872261" lon="10.5190552"><ele>151.0</ele><time>2026-04-09T04:38:31.359Z</time></trkpt><trkpt lat="45.587164" lon="10.5188439"><ele>151.5</ele><time>2026-04-09T04:38:32.359Z</time></trkpt><trkpt lat="45.5871063" lon="10.5186459"><ele>152.0</ele><time>2026-04-09T04:38:33.36Z</time></trkpt><trkpt lat="45.5870459" lon="10.5184484"><ele>152.5</ele><time>2026-04-09T04:38:34.359Z</time></trkpt><trkpt lat="45.5869886" lon="10.5182572"><ele>153.0</ele><time>2026-04-09T04:38:35.359Z</time></trkpt><trkpt lat="45.5869436" lon="10.5180702"><ele>154.0</ele><time>2026-04-09T04:38:36.359Z</time></trkpt><trkpt lat="45.5869157" lon="10.5178947"><ele>155.0</ele><time>2026-04-09T04:38:37.36Z</time></trkpt><trkpt lat="45.5869187" lon="10.5177111"><ele>156.0</ele><time>2026-04-09T04:38:38.36Z</time></trkpt><trkpt lat="45.586958" lon="10.517513"><ele>157.0</ele><time>2026-04-09T04:38:39.359Z</time></trkpt><trkpt lat="45.587001" lon="10.5173052"><ele>156.5</ele><time>2026-04-09T04:38:40.359Z</time></trkpt><trkpt lat="45.5870485" lon="10.5171117"><ele>156.0</ele><time>2026-04-09T04:38:41.359Z</time></trkpt><trkpt lat="45.5871147" lon="10.5169468"><ele>155.5</ele><time>2026-04-09T04:38:42.359Z</time></trkpt><trkpt lat="45.587228" lon="10.5167849"><ele>155.0</ele><time>2026-04-09T04:38:43.36Z</time></trkpt><trkpt lat="45.5873593" lon="10.5166408"><ele>154.66666666666666</ele><time>2026-04-09T04:38:44.359Z</time></trkpt><trkpt lat="45.5874988" lon="10.5164817"><ele>154.33333333333334</ele><time>2026-04-09T04:38:45.36Z</time></trkpt><trkpt lat="45.5876367" lon="10.5163285"><ele>154.0</ele><time>2026-04-09T04:38:46.359Z</time></trkpt><trkpt lat="45.5877794" lon="10.5161687"><ele>155.66666666666669</ele><time>2026-04-09T04:38:47.36Z</time></trkpt><trkpt lat="45.5879333" lon="10.5160039"><ele>157.33333333333334</ele><time>2026-04-09T04:38:48.36Z</time></trkpt><trkpt lat="45.5880779" lon="10.5158279"><ele>159.0</ele><time>2026-04-09T04:38:49.359Z</time></trkpt><trkpt lat="45.5882276" lon="10.5156629"><ele>159.0</ele><time>2026-04-09T04:38:50.36Z</time></trkpt><trkpt lat="45.5883787" lon="10.5154968"><ele>159.0</ele><time>2026-04-09T04:38:51.36Z</time></trkpt><trkpt lat="45.5885272" lon="10.5153297"><ele>159.0</ele><time>2026-04-09T04:38:52.36Z</time></trkpt><trkpt lat="45.5886824" lon="10.5151636"><ele>160.66666666666666</ele><time>2026-04-09T04:38:53.36Z</time></trkpt><trkpt lat="45.5888475" lon="10.5149933"><ele>162.33333333333331</ele><time>2026-04-09T04:38:54.359Z</time></trkpt><trkpt lat="45.5890125" lon="10.5148106"><ele>164.0</ele><time>2026-04-09T04:38:55.359Z</time></trkpt><trkpt lat="45.5891719" lon="10.5146236"><ele>164.0</ele><time>2026-04-09T04:38:56.359Z</time></trkpt><trkpt lat="45.5893449" lon="10.5144439"><ele>164.0</ele><time>2026-04-09T04:38:57.36Z</time></trkpt><trkpt lat="45.5895095" lon="10.5142613"><ele>164.0</ele><time>2026-04-09T04:38:58.359Z</time></trkpt><trkpt lat="45.5896782" lon="10.5140738"><ele>164.0</ele><time>2026-04-09T04:38:59.36Z</time></trkpt><trkpt lat="45.5898414" lon="10.5138857"><ele>164.0</ele><time>2026-04-09T04:39:00.36Z</time></trkpt><trkpt lat="45.5900083" lon="10.5137108"><ele>164.0</ele><time>2026-04-09T04:39:01.36Z</time></trkpt><trkpt lat="45.5901647" lon="10.5135348"><ele>163.66666666666666</ele><time>2026-04-09T04:39:02.359Z</time></trkpt><trkpt lat="45.5903137" lon="10.5133502"><ele>163.33333333333334</ele><time>2026-04-09T04:39:03.36Z</time></trkpt><trkpt lat="45.5904476" lon="10.513158"><ele>163.0</ele><time>2026-04-09T04:39:04.359Z</time></trkpt><trkpt lat="45.5905691" lon="10.5129316"><ele>162.0</ele><time>2026-04-09T04:39:05.36Z</time></trkpt><trkpt lat="45.590664" lon="10.5126992"><ele>161.0</ele><time>2026-04-09T04:39:06.36Z</time></trkpt><trkpt lat="45.5907412" lon="10.5124431"><ele>160.0</ele><time>2026-04-09T04:39:07.36Z</time></trkpt><trkpt lat="45.5908061" lon="10.5121751"><ele>160.0</ele><time>2026-04-09T04:39:08.36Z</time></trkpt><trkpt lat="45.5908585" lon="10.5119022"><ele>160.0</ele><time>2026-04-09T04:39:09.36Z</time></trkpt><trkpt lat="45.5909033" lon="10.5116334"><ele>160.0</ele><time>2026-04-09T04:39:10.359Z</time></trkpt><trkpt lat="45.5909536" lon="10.5113588"><ele>159.66666666666669</ele><time>2026-04-09T04:39:11.36Z</time></trkpt><trkpt lat="45.591011" lon="10.5110903"><ele>159.33333333333334</ele><time>2026-04-09T04:39:12.359Z</time></trkpt><trkpt lat="45.5910671" lon="10.5108258"><ele>159.0</ele><time>2026-04-09T04:39:13.359Z</time></trkpt><trkpt lat="45.5911186" lon="10.5105594"><ele>161.0</ele><time>2026-04-09T04:39:14.359Z</time></trkpt><trkpt lat="45.5911751" lon="10.5103108"><ele>163.0</ele><time>2026-04-09T04:39:15.359Z</time></trkpt><trkpt lat="45.5912285" lon="10.5100624"><ele>165.0</ele><time>2026-04-09T04:39:16.36Z</time></trkpt><trkpt lat="45.5912833" lon="10.5098181"><ele>165.0</ele><time>2026-04-09T04:39:17.359Z</time></trkpt><trkpt lat="45.5913455" lon="10.5095569"><ele>165.0</ele><time>2026-04-09T04:39:18.36Z</time></trkpt><trkpt lat="45.5914099" lon="10.5092942"><ele>165.0</ele><time>2026-04-09T04:39:19.359Z</time></trkpt><trkpt lat="45.591472" lon="10.5090419"><ele>165.0</ele><time>2026-04-09T04:39:20.359Z</time></trkpt><trkpt lat="45.5915295" lon="10.5087865"><ele>165.0</ele><time>2026-04-09T04:39:21.36Z</time></trkpt><trkpt lat="45.591588" lon="10.5085374"><ele>165.0</ele><time>2026-04-09T04:39:22.36Z</time></trkpt><trkpt lat="45.5916466" lon="10.5082865"><ele>164.66666666666666</ele><time>2026-04-09T04:39:23.36Z</time></trkpt><trkpt lat="45.5917125" lon="10.5080404"><ele>164.33333333333331</ele><time>2026-04-09T04:39:24.36Z</time></trkpt><trkpt lat="45.5917808" lon="10.5077929"><ele>164.0</ele><time>2026-04-09T04:39:25.36Z</time></trkpt><trkpt lat="45.5918546" lon="10.5075511"><ele>163.33333333333331</ele><time>2026-04-09T04:39:26.36Z</time></trkpt><trkpt lat="45.5919301" lon="10.5073041"><ele>162.66666666666666</ele><time>2026-04-09T04:39:27.36Z</time></trkpt><trkpt lat="45.592015" lon="10.5070769"><ele>162.0</ele><time>2026-04-09T04:39:28.359Z</time></trkpt><trkpt lat="45.5920929" lon="10.5068682"><ele>162.0</ele><time>2026-04-09T04:39:29.359Z</time></trkpt><trkpt lat="45.5921707" lon="10.5066727"><ele>162.0</ele><time>2026-04-09T04:39:30.359Z</time></trkpt><trkpt lat="45.5922433" lon="10.5065095"><ele>162.0</ele><time>2026-04-09T04:39:31.359Z</time></trkpt><trkpt lat="45.5923106" lon="10.5063745"><ele>162.0</ele><time>2026-04-09T04:39:32.359Z</time></trkpt><trkpt lat="45.5923733" lon="10.5062454"><ele>162.39999999999998</ele><time>2026-04-09T04:39:33.359Z</time></trkpt><trkpt lat="45.5924281" lon="10.5061188"><ele>162.79999999999998</ele><time>2026-04-09T04:39:34.36Z</time></trkpt><trkpt lat="45.5924799" lon="10.506016"><ele>163.2</ele><time>2026-04-09T04:39:35.36Z</time></trkpt><trkpt lat="45.5925286" lon="10.5059206"><ele>163.6</ele><time>2026-04-09T04:39:36.36Z</time></trkpt><trkpt lat="45.592571" lon="10.5058302"><ele>164.0</ele><time>2026-04-09T04:39:37.36Z</time></trkpt><trkpt lat="45.5926373" lon="10.5057171"><ele>164.0</ele><time>2026-04-09T04:39:39.36Z</time></trkpt><trkpt lat="45.5926747" lon="10.5056429"><ele>164.0</ele><time>2026-04-09T04:39:41.359Z</time></trkpt><trkpt lat="45.5927421" lon="10.5056001"><ele>164.0</ele><time>2026-04-09T04:39:44.36Z</time></trkpt><trkpt lat="45.5927945" lon="10.5054806"><ele>164.0</ele><time>2026-04-09T04:40:14.359Z</time></trkpt><trkpt lat="45.5928427" lon="10.5054067"><ele>164.0</ele><time>2026-04-09T04:40:15.359Z</time></trkpt><trkpt lat="45.5928935" lon="10.5053036"><ele>164.0</ele><time>2026-04-09T04:40:16.36Z</time></trkpt><trkpt lat="45.5929538" lon="10.5052019"><ele>164.75</ele><time>2026-04-09T04:40:17.359Z</time></trkpt><trkpt lat="45.593008" lon="10.5051035"><ele>165.5</ele><time>2026-04-09T04:40:18.36Z</time></trkpt><trkpt lat="45.5930876" lon="10.5049967"><ele>166.25</ele><time>2026-04-09T04:40:19.359Z</time></trkpt><trkpt lat="45.5931834" lon="10.504875"><ele>167.0</ele><time>2026-04-09T04:40:20.359Z</time></trkpt><trkpt lat="45.5932955" lon="10.5047352"><ele>167.0</ele><time>2026-04-09T04:40:21.359Z</time></trkpt><trkpt lat="45.5934221" lon="10.5046087"><ele>167.0</ele><time>2026-04-09T04:40:22.36Z</time></trkpt><trkpt lat="45.5935742" lon="10.5044889"><ele>167.0</ele><time>2026-04-09T04:40:23.36Z</time></trkpt><trkpt lat="45.5937506" lon="10.5043762"><ele>167.33333333333331</ele><time>2026-04-09T04:40:24.36Z</time></trkpt><trkpt lat="45.5939408" lon="10.5042755"><ele>167.66666666666666</ele><time>2026-04-09T04:40:25.359Z</time></trkpt><trkpt lat="45.5941332" lon="10.5041931"><ele>168.0</ele><time>2026-04-09T04:40:26.36Z</time></trkpt><trkpt lat="45.5943547" lon="10.5041333"><ele>168.5</ele><time>2026-04-09T04:40:27.359Z</time></trkpt><trkpt lat="45.5945892" lon="10.5041064"><ele>169.0</ele><time>2026-04-09T04:40:28.359Z</time></trkpt><trkpt lat="45.5948253" lon="10.504097"><ele>169.0</ele><time>2026-04-09T04:40:29.36Z</time></trkpt><trkpt lat="45.5950691" lon="10.5041011"><ele>169.0</ele><time>2026-04-09T04:40:30.36Z</time></trkpt><trkpt lat="45.5953185" lon="10.5040945"><ele>171.0</ele><time>2026-04-09T04:40:31.359Z</time></trkpt><trkpt lat="45.5955694" lon="10.5040893"><ele>173.0</ele><time>2026-04-09T04:40:32.359Z</time></trkpt><trkpt lat="45.5958301" lon="10.5040814"><ele>173.0</ele><time>2026-04-09T04:40:33.36Z</time></trkpt><trkpt lat="45.59608" lon="10.5040847"><ele>173.0</ele><time>2026-04-09T04:40:34.359Z</time></trkpt><trkpt lat="45.5963302" lon="10.5040805"><ele>172.0</ele><time>2026-04-09T04:40:35.36Z</time></trkpt><trkpt lat="45.5965792" lon="10.5040794"><ele>171.0</ele><time>2026-04-09T04:40:36.359Z</time></trkpt><trkpt lat="45.5968302" lon="10.5040847"><ele>171.0</ele><time>2026-04-09T04:40:37.36Z</time></trkpt><trkpt lat="45.5970848" lon="10.5040836"><ele>171.0</ele><time>2026-04-09T04:40:38.359Z</time></trkpt><trkpt lat="45.5973424" lon="10.5040841"><ele>171.0</ele><time>2026-04-09T04:40:39.36Z</time></trkpt><trkpt lat="45.5975933" lon="10.5040797"><ele>171.0</ele><time>2026-04-09T04:40:40.36Z</time></trkpt><trkpt lat="45.5978361" lon="10.5040503"><ele>173.5</ele><time>2026-04-09T04:40:41.359Z</time></trkpt><trkpt lat="45.5980754" lon="10.5039812"><ele>176.0</ele><time>2026-04-09T04:40:42.36Z</time></trkpt><trkpt lat="45.5983129" lon="10.5038934"><ele>176.0</ele><time>2026-04-09T04:40:43.36Z</time></trkpt><trkpt lat="45.5985346" lon="10.5037685"><ele>176.0</ele><time>2026-04-09T04:40:44.36Z</time></trkpt><trkpt lat="45.5987504" lon="10.5036214"><ele>177.0</ele><time>2026-04-09T04:40:45.359Z</time></trkpt><trkpt lat="45.5989583" lon="10.5034448"><ele>178.0</ele><time>2026-04-09T04:40:46.359Z</time></trkpt><trkpt lat="45.5991465" lon="10.5032506"><ele>178.0</ele><time>2026-04-09T04:40:47.36Z</time></trkpt><trkpt lat="45.5993194" lon="10.5030547"><ele>178.0</ele><time>2026-04-09T04:40:48.359Z</time></trkpt><trkpt lat="45.5994813" lon="10.5028862"><ele>178.0</ele><time>2026-04-09T04:40:49.36Z</time></trkpt><trkpt lat="45.5996497" lon="10.5027454"><ele>179.33333333333334</ele><time>2026-04-09T04:40:50.359Z</time></trkpt><trkpt lat="45.5998368" lon="10.5026757"><ele>180.66666666666666</ele><time>2026-04-09T04:40:51.36Z</time></trkpt><trkpt lat="45.60003" lon="10.5026538"><ele>182.0</ele><time>2026-04-09T04:40:52.359Z</time></trkpt><trkpt lat="45.6002247" lon="10.5026666"><ele>181.66666666666666</ele><time>2026-04-09T04:40:53.359Z</time></trkpt><trkpt lat="45.6004219" lon="10.5027204"><ele>181.33333333333334</ele><time>2026-04-09T04:40:54.359Z</time></trkpt><trkpt lat="45.6006301" lon="10.5027782"><ele>181.0</ele><time>2026-04-09T04:40:55.359Z</time></trkpt><trkpt lat="45.6008373" lon="10.502784"><ele>181.0</ele><time>2026-04-09T04:40:56.36Z</time></trkpt><trkpt lat="45.6010308" lon="10.5027226"><ele>181.0</ele><time>2026-04-09T04:40:57.36Z</time></trkpt><trkpt lat="45.6012138" lon="10.502623"><ele>181.0</ele><time>2026-04-09T04:40:58.36Z</time></trkpt><trkpt lat="45.6014011" lon="10.5024765"><ele>180.0</ele><time>2026-04-09T04:40:59.359Z</time></trkpt><trkpt lat="45.6015829" lon="10.5022964"><ele>179.0</ele><time>2026-04-09T04:41:00.36Z</time></trkpt><trkpt lat="45.6017628" lon="10.5020841"><ele>177.0</ele><time>2026-04-09T04:41:01.36Z</time></trkpt><trkpt lat="45.6019535" lon="10.5018816"><ele>175.0</ele><time>2026-04-09T04:41:02.36Z</time></trkpt><trkpt lat="45.6021473" lon="10.5016711"><ele>175.0</ele><time>2026-04-09T04:41:03.359Z</time></trkpt><trkpt lat="45.6023378" lon="10.5014701"><ele>175.0</ele><time>2026-04-09T04:41:04.36Z</time></trkpt><trkpt lat="45.6025189" lon="10.5012611"><ele>177.5</ele><time>2026-04-09T04:41:05.36Z</time></trkpt><trkpt lat="45.602703" lon="10.5010552"><ele>180.0</ele><time>2026-04-09T04:41:06.36Z</time></trkpt><trkpt lat="45.6028863" lon="10.5008585"><ele>180.0</ele><time>2026-04-09T04:41:07.359Z</time></trkpt><trkpt lat="45.6030698" lon="10.5006584"><ele>180.0</ele><time>2026-04-09T04:41:08.36Z</time></trkpt><trkpt lat="45.603246" lon="10.5004705"><ele>181.66666666666666</ele><time>2026-04-09T04:41:09.359Z</time></trkpt><trkpt lat="45.6034073" lon="10.5002927"><ele>183.33333333333331</ele><time>2026-04-09T04:41:10.36Z</time></trkpt><trkpt lat="45.6035763" lon="10.5001506"><ele>185.0</ele><time>2026-04-09T04:41:11.36Z</time></trkpt><trkpt lat="45.6037624" lon="10.5000582"><ele>185.0</ele><time>2026-04-09T04:41:12.36Z</time></trkpt><trkpt lat="45.6039685" lon="10.5000199"><ele>185.0</ele><time>2026-04-09T04:41:13.36Z</time></trkpt><trkpt lat="45.6041735" lon="10.5000277"><ele>185.0</ele><time>2026-04-09T04:41:14.36Z</time></trkpt><trkpt lat="45.6043864" lon="10.5000569"><ele>184.66666666666666</ele><time>2026-04-09T04:41:15.36Z</time></trkpt><trkpt lat="45.6046047" lon="10.5000795"><ele>184.33333333333334</ele><time>2026-04-09T04:41:16.36Z</time></trkpt><trkpt lat="45.604807" lon="10.500083"><ele>184.0</ele><time>2026-04-09T04:41:17.36Z</time></trkpt><trkpt lat="45.6050032" lon="10.5000353"><ele>184.0</ele><time>2026-04-09T04:41:18.359Z</time></trkpt><trkpt lat="45.6051851" lon="10.4999504"><ele>184.0</ele><time>2026-04-09T04:41:19.36Z</time></trkpt><trkpt lat="45.6053433" lon="10.499819"><ele>184.0</ele><time>2026-04-09T04:41:20.359Z</time></trkpt><trkpt lat="45.6054617" lon="10.4996328"><ele>183.66666666666669</ele><time>2026-04-09T04:41:21.36Z</time></trkpt><trkpt lat="45.6055825" lon="10.4993965"><ele>183.33333333333334</ele><time>2026-04-09T04:41:22.36Z</time></trkpt><trkpt lat="45.6056893" lon="10.4991357"><ele>183.0</ele><time>2026-04-09T04:41:23.359Z</time></trkpt><trkpt lat="45.6057809" lon="10.4988473"><ele>187.0</ele><time>2026-04-09T04:41:24.359Z</time></trkpt><trkpt lat="45.6058587" lon="10.4985583"><ele>191.0</ele><time>2026-04-09T04:41:25.36Z</time></trkpt><trkpt lat="45.6059567" lon="10.4982612"><ele>195.0</ele><time>2026-04-09T04:41:26.36Z</time></trkpt><trkpt lat="45.6060624" lon="10.4979548"><ele>190.0</ele><time>2026-04-09T04:41:27.36Z</time></trkpt><trkpt lat="45.6061707" lon="10.4976348"><ele>185.0</ele><time>2026-04-09T04:41:28.36Z</time></trkpt><trkpt lat="45.6062767" lon="10.4973112"><ele>187.5</ele><time>2026-04-09T04:41:29.359Z</time></trkpt><trkpt lat="45.6063813" lon="10.4969814"><ele>190.0</ele><time>2026-04-09T04:41:30.36Z</time></trkpt><trkpt lat="45.6064902" lon="10.4966511"><ele>190.0</ele><time>2026-04-09T04:41:31.359Z</time></trkpt><trkpt lat="45.6065873" lon="10.496325"><ele>190.0</ele><time>2026-04-09T04:41:32.359Z</time></trkpt><trkpt lat="45.6066672" lon="10.4959917"><ele>194.0</ele><time>2026-04-09T04:41:33.36Z</time></trkpt><trkpt lat="45.6067153" lon="10.4956568"><ele>198.0</ele><time>2026-04-09T04:41:34.36Z</time></trkpt><trkpt lat="45.606738" lon="10.4953206"><ele>198.5</ele><time>2026-04-09T04:41:35.36Z</time></trkpt><trkpt lat="45.606742" lon="10.494953"><ele>199.0</ele><time>2026-04-09T04:41:36.36Z</time></trkpt><trkpt lat="45.6067325" lon="10.4945956"><ele>199.5</ele><time>2026-04-09T04:41:37.36Z</time></trkpt><trkpt lat="45.6067065" lon="10.4942268"><ele>200.0</ele><time>2026-04-09T04:41:38.36Z</time></trkpt><trkpt lat="45.6066592" lon="10.4938675"><ele>198.0</ele><time>2026-04-09T04:41:39.359Z</time></trkpt><trkpt lat="45.6065956" lon="10.4935004"><ele>196.0</ele><time>2026-04-09T04:41:40.36Z</time></trkpt><trkpt lat="45.6065276" lon="10.4931294"><ele>194.0</ele><time>2026-04-09T04:41:41.359Z</time></trkpt><trkpt lat="45.6064533" lon="10.4927591"><ele>192.0</ele><time>2026-04-09T04:41:42.36Z</time></trkpt><trkpt lat="45.6063804" lon="10.4923855"><ele>190.5</ele><time>2026-04-09T04:41:43.359Z</time></trkpt><trkpt lat="45.6063114" lon="10.4920004"><ele>189.0</ele><time>2026-04-09T04:41:44.359Z</time></trkpt><trkpt lat="45.6062426" lon="10.4916157"><ele>185.5</ele><time>2026-04-09T04:41:45.359Z</time></trkpt><trkpt lat="45.6061638" lon="10.4912218"><ele>182.0</ele><time>2026-04-09T04:41:46.359Z</time></trkpt><trkpt lat="45.6060806" lon="10.4908217"><ele>194.5</ele><time>2026-04-09T04:41:47.359Z</time></trkpt><trkpt lat="45.6059966" lon="10.4904216"><ele>207.0</ele><time>2026-04-09T04:41:48.359Z</time></trkpt><trkpt lat="45.6059094" lon="10.4900299"><ele>207.0</ele><time>2026-04-09T04:41:49.36Z</time></trkpt><trkpt lat="45.6058195" lon="10.4896566"><ele>207.0</ele><time>2026-04-09T04:41:50.36Z</time></trkpt><trkpt lat="45.6057463" lon="10.4892814"><ele>205.5</ele><time>2026-04-09T04:41:51.359Z</time></trkpt><trkpt lat="45.6056897" lon="10.4889247"><ele>204.0</ele><time>2026-04-09T04:41:52.359Z</time></trkpt><trkpt lat="45.6056653" lon="10.4885635"><ele>203.0</ele><time>2026-04-09T04:41:53.36Z</time></trkpt><trkpt lat="45.6056593" lon="10.48822"><ele>202.0</ele><time>2026-04-09T04:41:54.36Z</time></trkpt><trkpt lat="45.6056783" lon="10.4878668"><ele>201.5</ele><time>2026-04-09T04:41:55.36Z</time></trkpt><trkpt lat="45.6057091" lon="10.4875143"><ele>201.0</ele><time>2026-04-09T04:41:56.36Z</time></trkpt><trkpt lat="45.605754" lon="10.487164"><ele>204.5</ele><time>2026-04-09T04:41:57.36Z</time></trkpt><trkpt lat="45.6058173" lon="10.4868099"><ele>208.0</ele><time>2026-04-09T04:41:58.359Z</time></trkpt><trkpt lat="45.605889" lon="10.4864648"><ele>212.0</ele><time>2026-04-09T04:41:59.36Z</time></trkpt><trkpt lat="45.6059665" lon="10.4861321"><ele>216.0</ele><time>2026-04-09T04:42:00.36Z</time></trkpt><trkpt lat="45.6060405" lon="10.4858041"><ele>216.0</ele><time>2026-04-09T04:42:01.359Z</time></trkpt><trkpt lat="45.6061235" lon="10.4854804"><ele>216.0</ele><time>2026-04-09T04:42:02.36Z</time></trkpt><trkpt lat="45.6062055" lon="10.485157"><ele>211.0</ele><time>2026-04-09T04:42:03.36Z</time></trkpt><trkpt lat="45.6062745" lon="10.4848214"><ele>206.0</ele><time>2026-04-09T04:42:04.36Z</time></trkpt><trkpt lat="45.6063341" lon="10.484475"><ele>206.0</ele><time>2026-04-09T04:42:05.36Z</time></trkpt><trkpt lat="45.6063831" lon="10.4841191"><ele>206.0</ele><time>2026-04-09T04:42:06.36Z</time></trkpt><trkpt lat="45.6049705" lon="10.4675892"><ele>210.25</ele><time>2026-04-09T04:43:01.359Z</time></trkpt><trkpt lat="45.6049753" lon="10.4674118"><ele>214.5</ele><time>2026-04-09T04:43:02.36Z</time></trkpt><trkpt lat="45.6050102" lon="10.4672336"><ele>218.75</ele><time>2026-04-09T04:43:03.36Z</time></trkpt><trkpt lat="45.6050687" lon="10.4670811"><ele>223.0</ele><time>2026-04-09T04:43:04.359Z</time></trkpt><trkpt lat="45.6051691" lon="10.4669542"><ele>223.0</ele><time>2026-04-09T04:43:05.36Z</time></trkpt><trkpt lat="45.605275" lon="10.4668613"><ele>223.0</ele><time>2026-04-09T04:43:06.36Z</time></trkpt><trkpt lat="45.6053902" lon="10.466806"><ele>223.0</ele><time>2026-04-09T04:43:07.36Z</time></trkpt><trkpt lat="45.6055115" lon="10.4668197"><ele>223.0</ele><time>2026-04-09T04:43:08.359Z</time></trkpt><trkpt lat="45.6056239" lon="10.4668827"><ele>222.0</ele><time>2026-04-09T04:43:09.36Z</time></trkpt><trkpt lat="45.6057202" lon="10.4669981"><ele>221.0</ele><time>2026-04-09T04:43:10.359Z</time></trkpt><trkpt lat="45.6058242" lon="10.4671801"><ele>220.0</ele><time>2026-04-09T04:43:11.359Z</time></trkpt><trkpt lat="45.605907" lon="10.4673942"><ele>219.66666666666666</ele><time>2026-04-09T04:43:12.36Z</time></trkpt><trkpt lat="45.6059739" lon="10.4676424"><ele>219.33333333333331</ele><time>2026-04-09T04:43:13.359Z</time></trkpt><trkpt lat="45.606044" lon="10.4679051"><ele>219.0</ele><time>2026-04-09T04:43:14.36Z</time></trkpt><trkpt lat="45.6061247" lon="10.4681713"><ele>219.66666666666669</ele><time>2026-04-09T04:43:15.359Z</time></trkpt><trkpt lat="45.606207" lon="10.468418"><ele>220.33333333333334</ele><time>2026-04-09T04:43:16.359Z</time></trkpt><trkpt lat="45.606294" lon="10.4686459"><ele>221.0</ele><time>2026-04-09T04:43:17.359Z</time></trkpt><trkpt lat="45.6063768" lon="10.4688624"><ele>217.0</ele><time>2026-04-09T04:43:18.359Z</time></trkpt><trkpt lat="45.6076355" lon="10.4700302"><ele>217.0</ele><time>2026-04-09T04:43:26.359Z</time></trkpt><trkpt lat="45.6078132" lon="10.470044"><ele>217.0</ele><time>2026-04-09T04:43:27.359Z</time></trkpt><trkpt lat="45.6079675" lon="10.4701048"><ele>217.0</ele><time>2026-04-09T04:43:28.358Z</time></trkpt><trkpt lat="45.608155" lon="10.4701148"><ele>216.0</ele><time>2026-04-09T04:43:29.358Z</time></trkpt><trkpt lat="45.6083412" lon="10.470111"><ele>215.0</ele><time>2026-04-09T04:43:30.359Z</time></trkpt><trkpt lat="45.6085334" lon="10.4701068"><ele>214.0</ele><time>2026-04-09T04:43:31.358Z</time></trkpt><trkpt lat="45.6087184" lon="10.470094"><ele>218.0</ele><time>2026-04-09T04:43:32.359Z</time></trkpt><trkpt lat="45.6088964" lon="10.4700756"><ele>222.0</ele><time>2026-04-09T04:43:33.359Z</time></trkpt><trkpt lat="45.6090756" lon="10.4700596"><ele>226.0</ele><time>2026-04-09T04:43:34.359Z</time></trkpt><trkpt lat="45.6092482" lon="10.4700472"><ele>226.0</ele><time>2026-04-09T04:43:35.358Z</time></trkpt><trkpt lat="45.6094212" lon="10.4700356"><ele>226.0</ele><time>2026-04-09T04:43:36.359Z</time></trkpt><trkpt lat="45.6096085" lon="10.4700162"><ele>226.0</ele><time>2026-04-09T04:43:37.358Z</time></trkpt><trkpt lat="45.6178281" lon="10.4808376"><ele>232.0</ele><time>2026-04-09T04:44:31.358Z</time></trkpt><trkpt lat="45.6180385" lon="10.4808992"><ele>238.0</ele><time>2026-04-09T04:44:32.358Z</time></trkpt><trkpt lat="45.6182306" lon="10.4810248"><ele>244.0</ele><time>2026-04-09T04:44:33.358Z</time></trkpt><trkpt lat="45.6183929" lon="10.4811422"><ele>244.33333333333331</ele><time>2026-04-09T04:44:34.359Z</time></trkpt><trkpt lat="45.618563" lon="10.4812734"><ele>244.66666666666669</ele><time>2026-04-09T04:44:35.358Z</time></trkpt><trkpt lat="45.6187277" lon="10.4813982"><ele>245.0</ele><time>2026-04-09T04:44:36.358Z</time></trkpt><trkpt lat="45.6188976" lon="10.4815165"><ele>245.0</ele><time>2026-04-09T04:44:37.359Z</time></trkpt><trkpt lat="45.6190786" lon="10.4816387"><ele>245.0</ele><time>2026-04-09T04:44:38.358Z</time></trkpt><trkpt lat="45.6192554" lon="10.4817712"><ele>245.0</ele><time>2026-04-09T04:44:39.359Z</time></trkpt><trkpt lat="45.6194371" lon="10.481898"><ele>249.0</ele><time>2026-04-09T04:44:40.358Z</time></trkpt><trkpt lat="45.6196203" lon="10.4820348"><ele>253.0</ele><time>2026-04-09T04:44:41.359Z</time></trkpt><trkpt lat="45.6197895" lon="10.4821886"><ele>257.0</ele><time>2026-04-09T04:44:42.358Z</time></trkpt><trkpt lat="45.6199445" lon="10.482354"><ele>257.0</ele><time>2026-04-09T04:44:43.359Z</time></trkpt><trkpt lat="45.6200944" lon="10.4825282"><ele>257.0</ele><time>2026-04-09T04:44:44.359Z</time></trkpt><trkpt lat="45.6202473" lon="10.4826908"><ele>257.0</ele><time>2026-04-09T04:44:45.359Z</time></trkpt><trkpt lat="45.6206027" lon="10.4830414"><ele>334.0</ele><time>2026-04-09T04:44:47.358Z</time></trkpt><trkpt lat="45.6211564" lon="10.4835796"><ele>254.0</ele><time>2026-04-09T04:44:50.359Z</time></trkpt><trkpt lat="45.6320457" lon="10.4954714"><ele>254.0</ele><time>2026-04-09T04:45:52.358Z</time></trkpt><trkpt lat="45.6322517" lon="10.4956264"><ele>254.0</ele><time>2026-04-09T04:45:53.358Z</time></trkpt><trkpt lat="45.6324716" lon="10.4957694"><ele>254.0</ele><time>2026-04-09T04:45:54.359Z</time></trkpt><trkpt lat="45.6326905" lon="10.4958844"><ele>254.0</ele><time>2026-04-09T04:45:55.359Z</time></trkpt><trkpt lat="45.6328873" lon="10.4959981"><ele>254.0</ele><time>2026-04-09T04:45:56.358Z</time></trkpt><trkpt lat="45.6331011" lon="10.496093"><ele>254.33333333333334</ele><time>2026-04-09T04:45:57.359Z</time></trkpt><trkpt lat="45.6333154" lon="10.4961591"><ele>254.66666666666669</ele><time>2026-04-09T04:45:58.358Z</time></trkpt><trkpt lat="45.6335329" lon="10.4962092"><ele>255.0</ele><time>2026-04-09T04:45:59.359Z</time></trkpt><trkpt lat="45.6337573" lon="10.4962417"><ele>255.0</ele><time>2026-04-09T04:46:00.359Z</time></trkpt><trkpt lat="45.6339807" lon="10.4962816"><ele>255.0</ele><time>2026-04-09T04:46:01.358Z</time></trkpt><trkpt lat="45.6341979" lon="10.4963092"><ele>255.0</ele><time>2026-04-09T04:46:02.359Z</time></trkpt><trkpt lat="45.6344192" lon="10.496325"><ele>254.66666666666669</ele><time>2026-04-09T04:46:03.359Z</time></trkpt><trkpt lat="45.6346378" lon="10.4963095"><ele>254.33333333333334</ele><time>2026-04-09T04:46:04.358Z</time></trkpt><trkpt lat="45.6348603" lon="10.4962873"><ele>254.0</ele><time>2026-04-09T04:46:05.358Z</time></trkpt><trkpt lat="45.6350821" lon="10.4962356"><ele>255.66666666666669</ele><time>2026-04-09T04:46:06.358Z</time></trkpt><trkpt lat="45.6353031" lon="10.4961901"><ele>257.3333333333333</ele><time>2026-04-09T04:46:07.358Z</time></trkpt><trkpt lat="45.6355247" lon="10.4961427"><ele>259.0</ele><time>2026-04-09T04:46:08.358Z</time></trkpt><trkpt lat="45.6357434" lon="10.496101"><ele>259.66666666666663</ele><time>2026-04-09T04:46:09.358Z</time></trkpt><trkpt lat="45.6359598" lon="10.4960528"><ele>260.3333333333333</ele><time>2026-04-09T04:46:10.359Z</time></trkpt><trkpt lat="45.6361769" lon="10.4960051"><ele>261.0</ele><time>2026-04-09T04:46:11.359Z</time></trkpt><trkpt lat="45.6364054" lon="10.4959705"><ele>260.3333333333333</ele><time>2026-04-09T04:46:12.358Z</time></trkpt><trkpt lat="45.6366271" lon="10.4959205"><ele>259.66666666666663</ele><time>2026-04-09T04:46:13.359Z</time></trkpt><trkpt lat="45.6368453" lon="10.4958571"><ele>259.0</ele><time>2026-04-09T04:46:14.359Z</time></trkpt><trkpt lat="45.6370627" lon="10.4957948"><ele>259.0</ele><time>2026-04-09T04:46:15.359Z</time></trkpt><trkpt lat="45.6372794" lon="10.4957227"><ele>259.0</ele><time>2026-04-09T04:46:16.358Z</time></trkpt><trkpt lat="45.637498" lon="10.4956254"><ele>259.0</ele><time>2026-04-09T04:46:17.359Z</time></trkpt><trkpt lat="45.6377148" lon="10.4955039"><ele>259.0</ele><time>2026-04-09T04:46:18.358Z</time></trkpt><trkpt lat="45.6379549" lon="10.4953637"><ele>260.5</ele><time>2026-04-09T04:46:19.359Z</time></trkpt><trkpt lat="45.6382222" lon="10.4952314"><ele>262.0</ele><time>2026-04-09T04:46:20.358Z</time></trkpt><trkpt lat="45.6385048" lon="10.4951096"><ele>261.0</ele><time>2026-04-09T04:46:21.358Z</time></trkpt><trkpt lat="45.6387697" lon="10.4949986"><ele>260.0</ele><time>2026-04-09T04:46:22.358Z</time></trkpt><trkpt lat="45.6390147" lon="10.4948879"><ele>260.0</ele><time>2026-04-09T04:46:23.359Z</time></trkpt><trkpt lat="45.6392454" lon="10.4947497"><ele>260.0</ele><time>2026-04-09T04:46:24.359Z</time></trkpt><trkpt lat="45.6394634" lon="10.4946082"><ele>262.33333333333337</ele><time>2026-04-09T04:46:25.358Z</time></trkpt><trkpt lat="45.6396659" lon="10.4944521"><ele>264.6666666666667</ele><time>2026-04-09T04:46:26.358Z</time></trkpt><trkpt lat="45.6398515" lon="10.4942862"><ele>267.0</ele><time>2026-04-09T04:46:27.358Z</time></trkpt><trkpt lat="45.6400417" lon="10.4940979"><ele>267.0</ele><time>2026-04-09T04:46:28.359Z</time></trkpt><trkpt lat="45.6402425" lon="10.4938761"><ele>267.0</ele><time>2026-04-09T04:46:29.359Z</time></trkpt><trkpt lat="45.6404277" lon="10.4936387"><ele>265.5</ele><time>2026-04-09T04:46:30.359Z</time></trkpt><trkpt lat="45.640603" lon="10.4934063"><ele>264.0</ele><time>2026-04-09T04:46:31.358Z</time></trkpt><trkpt lat="45.6407538" lon="10.4931617"><ele>272.0</ele><time>2026-04-09T04:46:32.359Z</time></trkpt><trkpt lat="45.6408967" lon="10.492897"><ele>280.0</ele><time>2026-04-09T04:46:33.358Z</time></trkpt><trkpt lat="45.6410298" lon="10.492637"><ele>278.66666666666663</ele><time>2026-04-09T04:46:34.359Z</time></trkpt><trkpt lat="45.6411433" lon="10.4923912"><ele>277.3333333333333</ele><time>2026-04-09T04:46:35.358Z</time></trkpt><trkpt lat="45.6412446" lon="10.4921452"><ele>276.0</ele><time>2026-04-09T04:46:36.358Z</time></trkpt><trkpt lat="45.6413284" lon="10.4919137"><ele>276.0</ele><time>2026-04-09T04:46:37.359Z</time></trkpt><trkpt lat="45.641414" lon="10.4916818"><ele>276.0</ele><time>2026-04-09T04:46:38.359Z</time></trkpt><trkpt lat="45.6414788" lon="10.4914384"><ele>276.0</ele><time>2026-04-09T04:46:39.359Z</time></trkpt><trkpt lat="45.6415297" lon="10.4911827"><ele>268.6666666666667</ele><time>2026-04-09T04:46:40.358Z</time></trkpt><trkpt lat="45.6415817" lon="10.4909359"><ele>261.33333333333337</ele><time>2026-04-09T04:46:41.359Z</time></trkpt><trkpt lat="45.6416291" lon="10.4907098"><ele>254.0</ele><time>2026-04-09T04:46:42.359Z</time></trkpt><trkpt lat="45.6430488" lon="10.4658181"><ele>254.0</ele><time>2026-04-09T04:48:25.357Z</time></trkpt><trkpt lat="45.6431207" lon="10.4655739"><ele>254.0</ele><time>2026-04-09T04:48:26.357Z</time></trkpt><trkpt lat="45.6432023" lon="10.4653306"><ele>254.0</ele><time>2026-04-09T04:48:27.358Z</time></trkpt><trkpt lat="45.6432583" lon="10.4651021"><ele>254.33333333333334</ele><time>2026-04-09T04:48:28.357Z</time></trkpt><trkpt lat="45.6433194" lon="10.464872"><ele>254.66666666666669</ele><time>2026-04-09T04:48:29.357Z</time></trkpt><trkpt lat="45.6433725" lon="10.4646482"><ele>255.0</ele><time>2026-04-09T04:48:30.357Z</time></trkpt><trkpt lat="45.643434" lon="10.4644194"><ele>255.0</ele><time>2026-04-09T04:48:31.357Z</time></trkpt><trkpt lat="45.6434956" lon="10.464186"><ele>255.0</ele><time>2026-04-09T04:48:32.358Z</time></trkpt><trkpt lat="45.6435687" lon="10.4639486"><ele>255.0</ele><time>2026-04-09T04:48:33.358Z</time></trkpt><trkpt lat="45.6436445" lon="10.4637019"><ele>258.3333333333333</ele><time>2026-04-09T04:48:34.358Z</time></trkpt><trkpt lat="45.6437238" lon="10.4634433"><ele>261.66666666666663</ele><time>2026-04-09T04:48:35.358Z</time></trkpt><trkpt lat="45.6438079" lon="10.4631859"><ele>265.0</ele><time>2026-04-09T04:48:36.357Z</time></trkpt><trkpt lat="45.6438983" lon="10.4629297"><ele>265.66666666666663</ele><time>2026-04-09T04:48:37.357Z</time></trkpt><trkpt lat="45.6439913" lon="10.4626795"><ele>266.3333333333333</ele><time>2026-04-09T04:48:38.357Z</time></trkpt><trkpt lat="45.644074" lon="10.462437"><ele>267.0</ele><time>2026-04-09T04:48:39.357Z</time></trkpt><trkpt lat="45.6441426" lon="10.4622195"><ele>266.75</ele><time>2026-04-09T04:48:40.358Z</time></trkpt><trkpt lat="45.644207" lon="10.4620202"><ele>266.5</ele><time>2026-04-09T04:48:41.357Z</time></trkpt><trkpt lat="45.6442689" lon="10.4618522"><ele>266.25</ele><time>2026-04-09T04:48:42.357Z</time></trkpt><trkpt lat="45.6443167" lon="10.4617182"><ele>266.0</ele><time>2026-04-09T04:48:43.358Z</time></trkpt><trkpt lat="45.644343" lon="10.4616158"><ele>266.0</ele><time>2026-04-09T04:48:44.357Z</time></trkpt><trkpt lat="45.6443612" lon="10.4614514"><ele>266.0</ele><time>2026-04-09T04:48:46.357Z</time></trkpt><trkpt lat="45.644331" lon="10.461372"><ele>266.0</ele><time>2026-04-09T04:48:47.357Z</time></trkpt><trkpt lat="45.6442765" lon="10.4612876"><ele>266.0</ele><time>2026-04-09T04:48:48.358Z</time></trkpt><trkpt lat="45.6441956" lon="10.4612158"><ele>266.0</ele><time>2026-04-09T04:48:49.358Z</time></trkpt><trkpt lat="45.6440884" lon="10.4611532"><ele>265.5</ele><time>2026-04-09T04:48:50.358Z</time></trkpt><trkpt lat="45.6439582" lon="10.4610924"><ele>265.0</ele><time>2026-04-09T04:48:51.358Z</time></trkpt><trkpt lat="45.6438315" lon="10.4610387"><ele>264.5</ele><time>2026-04-09T04:48:52.357Z</time></trkpt><trkpt lat="45.6437203" lon="10.4609652"><ele>264.0</ele><time>2026-04-09T04:48:53.357Z</time></trkpt><trkpt lat="45.6436285" lon="10.4608742"><ele>263.0</ele><time>2026-04-09T04:48:54.357Z</time></trkpt><trkpt lat="45.6435504" lon="10.460751"><ele>262.0</ele><time>2026-04-09T04:48:55.358Z</time></trkpt><trkpt lat="45.6434935" lon="10.4606289"><ele>261.0</ele><time>2026-04-09T04:48:56.358Z</time></trkpt><trkpt lat="45.6434638" lon="10.460495"><ele>260.0</ele><time>2026-04-09T04:48:57.357Z</time></trkpt><trkpt lat="45.6434736" lon="10.4603679"><ele>259.0</ele><time>2026-04-09T04:48:58.358Z</time></trkpt><trkpt lat="45.6435193" lon="10.4602335"><ele>258.5</ele><time>2026-04-09T04:48:59.358Z</time></trkpt><trkpt lat="45.6436034" lon="10.4601143"><ele>258.0</ele><time>2026-04-09T04:49:00.357Z</time></trkpt><trkpt lat="45.6437215" lon="10.459992"><ele>257.5</ele><time>2026-04-09T04:49:01.358Z</time></trkpt><trkpt lat="45.6438413" lon="10.4598558"><ele>257.0</ele><time>2026-04-09T04:49:02.358Z</time></trkpt><trkpt lat="45.6439639" lon="10.459681"><ele>258.33333333333337</ele><time>2026-04-09T04:49:03.358Z</time></trkpt><trkpt lat="45.6440737" lon="10.4594574"><ele>259.6666666666667</ele><time>2026-04-09T04:49:04.358Z</time></trkpt><trkpt lat="45.6441809" lon="10.4592409"><ele>261.0</ele><time>2026-04-09T04:49:05.357Z</time></trkpt><trkpt lat="45.6443018" lon="10.459004"><ele>261.0</ele><time>2026-04-09T04:49:06.357Z</time></trkpt><trkpt lat="45.6444294" lon="10.4587562"><ele>261.0</ele><time>2026-04-09T04:49:07.357Z</time></trkpt><trkpt lat="45.644565" lon="10.4585106"><ele>261.0</ele><time>2026-04-09T04:49:08.358Z</time></trkpt><trkpt lat="45.6446956" lon="10.4582645"><ele>261.6666666666667</ele><time>2026-04-09T04:49:09.358Z</time></trkpt><trkpt lat="45.6448256" lon="10.4580232"><ele>262.33333333333337</ele><time>2026-04-09T04:49:10.358Z</time></trkpt><trkpt lat="45.6449576" lon="10.4577741"><ele>263.0</ele><time>2026-04-09T04:49:11.357Z</time></trkpt><trkpt lat="45.645089" lon="10.45751"><ele>263.0</ele><time>2026-04-09T04:49:12.357Z</time></trkpt><trkpt lat="45.64521" lon="10.4572412"><ele>263.0</ele><time>2026-04-09T04:49:13.358Z</time></trkpt><trkpt lat="45.6453317" lon="10.4569631"><ele>266.0</ele><time>2026-04-09T04:49:14.358Z</time></trkpt><trkpt lat="45.6454519" lon="10.4566818"><ele>269.0</ele><time>2026-04-09T04:49:15.358Z</time></trkpt><trkpt lat="45.6455723" lon="10.45639"><ele>268.0</ele><time>2026-04-09T04:49:16.358Z</time></trkpt><trkpt lat="45.6456883" lon="10.4560859"><ele>267.0</ele><time>2026-04-09T04:49:17.357Z</time></trkpt><trkpt lat="45.6457896" lon="10.4557812"><ele>267.0</ele><time>2026-04-09T04:49:18.357Z</time></trkpt><trkpt lat="45.645891" lon="10.4554674"><ele>267.0</ele><time>2026-04-09T04:49:19.358Z</time></trkpt><trkpt lat="45.6459916" lon="10.4551502"><ele>266.5</ele><time>2026-04-09T04:49:20.358Z</time></trkpt><trkpt lat="45.646097" lon="10.4548415"><ele>266.0</ele><time>2026-04-09T04:49:21.358Z</time></trkpt><trkpt lat="45.6462048" lon="10.4545337"><ele>270.0</ele><time>2026-04-09T04:49:22.358Z</time></trkpt><trkpt lat="45.6463109" lon="10.4542245"><ele>274.0</ele><time>2026-04-09T04:49:23.357Z</time></trkpt><trkpt lat="45.6464065" lon="10.4539137"><ele>270.5</ele><time>2026-04-09T04:49:24.358Z</time></trkpt><trkpt lat="45.6465083" lon="10.4536098"><ele>267.0</ele><time>2026-04-09T04:49:25.358Z</time></trkpt><trkpt lat="45.6466091" lon="10.4533052"><ele>267.0</ele><time>2026-04-09T04:49:26.357Z</time></trkpt><trkpt lat="45.6467116" lon="10.4529958"><ele>267.0</ele><time>2026-04-09T04:49:27.358Z</time></trkpt><trkpt lat="45.6468235" lon="10.4526735"><ele>266.5</ele><time>2026-04-09T04:49:28.357Z</time></trkpt><trkpt lat="45.646933" lon="10.45231"><ele>266.0</ele><time>2026-04-09T04:49:29.358Z</time></trkpt><trkpt lat="45.6470429" lon="10.4519277"><ele>272.0</ele><time>2026-04-09T04:49:30.358Z</time></trkpt><trkpt lat="45.647149" lon="10.4515211"><ele>278.0</ele><time>2026-04-09T04:49:31.358Z</time></trkpt><trkpt lat="45.6472399" lon="10.4511428"><ele>278.0</ele><time>2026-04-09T04:49:32.358Z</time></trkpt><trkpt lat="45.6473403" lon="10.4507802"><ele>278.0</ele><time>2026-04-09T04:49:33.358Z</time></trkpt><trkpt lat="45.6474376" lon="10.4504315"><ele>274.5</ele><time>2026-04-09T04:49:34.358Z</time></trkpt><trkpt lat="45.6475341" lon="10.4500957"><ele>271.0</ele><time>2026-04-09T04:49:35.358Z</time></trkpt><trkpt lat="45.647632" lon="10.4498045"><ele>269.3333333333333</ele><time>2026-04-09T04:49:36.358Z</time></trkpt><trkpt lat="45.6477433" lon="10.4495365"><ele>267.6666666666667</ele><time>2026-04-09T04:49:37.357Z</time></trkpt><trkpt lat="45.6478749" lon="10.4492931"><ele>266.0</ele><time>2026-04-09T04:49:38.358Z</time></trkpt><trkpt lat="45.6480367" lon="10.4490957"><ele>264.0</ele><time>2026-04-09T04:49:39.358Z</time></trkpt><trkpt lat="45.6482101" lon="10.4489184"><ele>262.0</ele><time>2026-04-09T04:49:40.358Z</time></trkpt><trkpt lat="45.6483953" lon="10.448771"><ele>260.0</ele><time>2026-04-09T04:49:41.358Z</time></trkpt><trkpt lat="45.6485945" lon="10.4486402"><ele>267.0</ele><time>2026-04-09T04:49:42.358Z</time></trkpt><trkpt lat="45.6488018" lon="10.4485269"><ele>274.0</ele><time>2026-04-09T04:49:43.357Z</time></trkpt><trkpt lat="45.6490095" lon="10.448429"><ele>281.0</ele><time>2026-04-09T04:49:44.358Z</time></trkpt><trkpt lat="45.6491966" lon="10.4483523"><ele>281.0</ele><time>2026-04-09T04:49:45.357Z</time></trkpt><trkpt lat="45.6493626" lon="10.4482757"><ele>281.0</ele><time>2026-04-09T04:49:46.357Z</time></trkpt><trkpt lat="45.6495161" lon="10.4481861"><ele>281.0</ele><time>2026-04-09T04:49:47.358Z</time></trkpt><trkpt lat="45.6496617" lon="10.4480429"><ele>275.33333333333337</ele><time>2026-04-09T04:49:48.357Z</time></trkpt><trkpt lat="45.6498565" lon="10.4478886"><ele>269.6666666666667</ele><time>2026-04-09T04:49:49.358Z</time></trkpt><trkpt lat="45.6500394" lon="10.4477197"><ele>264.0</ele><time>2026-04-09T04:49:50.358Z</time></trkpt><trkpt lat="45.6501857" lon="10.4475423"><ele>266.6666666666667</ele><time>2026-04-09T04:49:51.357Z</time></trkpt><trkpt lat="45.650302" lon="10.4473222"><ele>269.33333333333337</ele><time>2026-04-09T04:49:52.358Z</time></trkpt><trkpt lat="45.6503947" lon="10.4470929"><ele>272.0</ele><time>2026-04-09T04:49:53.358Z</time></trkpt><trkpt lat="45.6504689" lon="10.446827"><ele>272.0</ele><time>2026-04-09T04:49:54.358Z</time></trkpt><trkpt lat="45.650525" lon="10.4465435"><ele>272.0</ele><time>2026-04-09T04:49:55.357Z</time></trkpt><trkpt lat="45.6505748" lon="10.4462375"><ele>272.0</ele><time>2026-04-09T04:49:56.358Z</time></trkpt><trkpt lat="45.6506169" lon="10.4459082"><ele>270.5</ele><time>2026-04-09T04:49:57.357Z</time></trkpt><trkpt lat="45.6506676" lon="10.4455866"><ele>269.0</ele><time>2026-04-09T04:49:58.357Z</time></trkpt><trkpt lat="45.650706" lon="10.4452728"><ele>267.0</ele><time>2026-04-09T04:49:59.358Z</time></trkpt><trkpt lat="45.6507513" lon="10.4449485"><ele>265.0</ele><time>2026-04-09T04:50:00.357Z</time></trkpt><trkpt lat="45.6507992" lon="10.4446149"><ele>264.0</ele><time>2026-04-09T04:50:01.357Z</time></trkpt><trkpt lat="45.6508461" lon="10.4442708"><ele>263.0</ele><time>2026-04-09T04:50:02.358Z</time></trkpt><trkpt lat="45.6508852" lon="10.4439328"><ele>262.5</ele><time>2026-04-09T04:50:03.358Z</time></trkpt><trkpt lat="45.650915" lon="10.4435902"><ele>262.0</ele><time>2026-04-09T04:50:04.357Z</time></trkpt><trkpt lat="45.6509301" lon="10.4432388"><ele>264.0</ele><time>2026-04-09T04:50:05.357Z</time></trkpt><trkpt lat="45.650936" lon="10.4428814"><ele>266.0</ele><time>2026-04-09T04:50:06.358Z</time></trkpt><trkpt lat="45.6509293" lon="10.442521"><ele>266.0</ele><time>2026-04-09T04:50:07.357Z</time></trkpt><trkpt lat="45.6509104" lon="10.4421579"><ele>266.0</ele><time>2026-04-09T04:50:08.357Z</time></trkpt><trkpt lat="45.6508863" lon="10.4417821"><ele>267.0</ele><time>2026-04-09T04:50:09.357Z</time></trkpt><trkpt lat="45.6508505" lon="10.4414162"><ele>268.0</ele><time>2026-04-09T04:50:10.357Z</time></trkpt><trkpt lat="45.6507974" lon="10.4410497"><ele>270.0</ele><time>2026-04-09T04:50:11.358Z</time></trkpt><trkpt lat="45.6507371" lon="10.4406793"><ele>272.0</ele><time>2026-04-09T04:50:12.357Z</time></trkpt><trkpt lat="45.6506698" lon="10.4403104"><ele>272.5</ele><time>2026-04-09T04:50:13.358Z</time></trkpt><trkpt lat="45.6506052" lon="10.4399383"><ele>273.0</ele><time>2026-04-09T04:50:14.358Z</time></trkpt><trkpt lat="45.6505414" lon="10.4395625"><ele>273.0</ele><time>2026-04-09T04:50:15.357Z</time></trkpt><trkpt lat="45.6504774" lon="10.4391856"><ele>273.0</ele><time>2026-04-09T04:50:16.358Z</time></trkpt><trkpt lat="45.6504131" lon="10.4388224"><ele>273.5</ele><time>2026-04-09T04:50:17.358Z</time></trkpt><trkpt lat="45.6503544" lon="10.4384647"><ele>274.0</ele><time>2026-04-09T04:50:18.357Z</time></trkpt><trkpt lat="45.6502976" lon="10.4381099"><ele>269.0</ele><time>2026-04-09T04:50:19.358Z</time></trkpt><trkpt lat="45.6502511" lon="10.4377637"><ele>264.0</ele><time>2026-04-09T04:50:20.357Z</time></trkpt><trkpt lat="45.6502258" lon="10.4374251"><ele>265.0</ele><time>2026-04-09T04:50:21.357Z</time></trkpt><trkpt lat="45.650217" lon="10.4370812"><ele>266.0</ele><time>2026-04-09T04:50:22.358Z</time></trkpt><trkpt lat="45.6502202" lon="10.4367363"><ele>266.0</ele><time>2026-04-09T04:50:23.358Z</time></trkpt><trkpt lat="45.6502489" lon="10.4363997"><ele>266.0</ele><time>2026-04-09T04:50:24.358Z</time></trkpt><trkpt lat="45.6503015" lon="10.4360731"><ele>269.0</ele><time>2026-04-09T04:50:25.358Z</time></trkpt><trkpt lat="45.6503714" lon="10.4357535"><ele>272.0</ele><time>2026-04-09T04:50:26.358Z</time></trkpt><trkpt lat="45.6504623" lon="10.4354473"><ele>272.0</ele><time>2026-04-09T04:50:27.357Z</time></trkpt><trkpt lat="45.6505709" lon="10.4351638"><ele>272.0</ele><time>2026-04-09T04:50:28.358Z</time></trkpt><trkpt lat="45.6506844" lon="10.4348926"><ele>272.0</ele><time>2026-04-09T04:50:29.358Z</time></trkpt><trkpt lat="45.6508125" lon="10.4346264"><ele>270.33333333333337</ele><time>2026-04-09T04:50:30.357Z</time></trkpt><trkpt lat="45.6509405" lon="10.4343775"><ele>268.6666666666667</ele><time>2026-04-09T04:50:31.357Z</time></trkpt><trkpt lat="45.6510739" lon="10.4341305"><ele>267.0</ele><time>2026-04-09T04:50:32.358Z</time></trkpt><trkpt lat="45.6511973" lon="10.4338833"><ele>270.0</ele><time>2026-04-09T04:50:33.358Z</time></trkpt><trkpt lat="45.6513116" lon="10.4336445"><ele>273.0</ele><time>2026-04-09T04:50:34.357Z</time></trkpt><trkpt lat="45.6514257" lon="10.4334036"><ele>276.0</ele><time>2026-04-09T04:50:35.358Z</time></trkpt><trkpt lat="45.6515505" lon="10.4331565"><ele>274.6666666666667</ele><time>2026-04-09T04:50:36.357Z</time></trkpt><trkpt lat="45.6516786" lon="10.4329172"><ele>273.33333333333337</ele><time>2026-04-09T04:50:37.357Z</time></trkpt><trkpt lat="45.6517967" lon="10.4326774"><ele>272.0</ele><time>2026-04-09T04:50:38.358Z</time></trkpt><trkpt lat="45.6519161" lon="10.4324362"><ele>272.33333333333337</ele><time>2026-04-09T04:50:39.358Z</time></trkpt><trkpt lat="45.6520368" lon="10.4321878"><ele>272.6666666666667</ele><time>2026-04-09T04:50:40.358Z</time></trkpt><trkpt lat="45.6521607" lon="10.4319435"><ele>273.0</ele><time>2026-04-09T04:50:41.358Z</time></trkpt><trkpt lat="45.6522748" lon="10.4316996"><ele>273.0</ele><time>2026-04-09T04:50:42.357Z</time></trkpt><trkpt lat="45.6523971" lon="10.4314625"><ele>273.0</ele><time>2026-04-09T04:50:43.358Z</time></trkpt><trkpt lat="45.6525095" lon="10.4312342"><ele>273.0</ele><time>2026-04-09T04:50:44.358Z</time></trkpt><trkpt lat="45.652617" lon="10.4310117"><ele>273.3333333333333</ele><time>2026-04-09T04:50:45.357Z</time></trkpt><trkpt lat="45.6527243" lon="10.4307902"><ele>273.66666666666663</ele><time>2026-04-09T04:50:46.357Z</time></trkpt><trkpt lat="45.6528273" lon="10.4305853"><ele>274.0</ele><time>2026-04-09T04:50:47.358Z</time></trkpt><trkpt lat="45.6529292" lon="10.4303871"><ele>274.0</ele><time>2026-04-09T04:50:48.357Z</time></trkpt><trkpt lat="45.6530203" lon="10.4301988"><ele>274.0</ele><time>2026-04-09T04:50:49.358Z</time></trkpt><trkpt lat="45.6531121" lon="10.4300256"><ele>274.0</ele><time>2026-04-09T04:50:50.358Z</time></trkpt><trkpt lat="45.6532043" lon="10.4298606"><ele>274.0</ele><time>2026-04-09T04:50:51.357Z</time></trkpt><trkpt lat="45.6533004" lon="10.4296918"><ele>274.0</ele><time>2026-04-09T04:50:52.357Z</time></trkpt><trkpt lat="45.6533929" lon="10.429525"><ele>274.0</ele><time>2026-04-09T04:50:53.357Z</time></trkpt><trkpt lat="45.6534938" lon="10.4293627"><ele>275.0</ele><time>2026-04-09T04:50:54.357Z</time></trkpt><trkpt lat="45.6535882" lon="10.4292088"><ele>276.0</ele><time>2026-04-09T04:50:55.358Z</time></trkpt><trkpt lat="45.6536817" lon="10.4290594"><ele>277.0</ele><time>2026-04-09T04:50:56.358Z</time></trkpt><trkpt lat="45.653779" lon="10.4289365"><ele>278.0</ele><time>2026-04-09T04:50:57.358Z</time></trkpt><trkpt lat="45.6538717" lon="10.428814"><ele>276.2</ele><time>2026-04-09T04:50:58.358Z</time></trkpt><trkpt lat="45.6539647" lon="10.4287106"><ele>274.4</ele><time>2026-04-09T04:50:59.358Z</time></trkpt><trkpt lat="45.6540515" lon="10.4286047"><ele>272.59999999999997</ele><time>2026-04-09T04:51:00.357Z</time></trkpt><trkpt lat="45.6541407" lon="10.42853"><ele>270.8</ele><time>2026-04-09T04:51:01.358Z</time></trkpt><trkpt lat="45.6542267" lon="10.4284727"><ele>269.0</ele><time>2026-04-09T04:51:02.358Z</time></trkpt><trkpt lat="45.6543287" lon="10.4284581"><ele>269.0</ele><time>2026-04-09T04:51:03.358Z</time></trkpt><trkpt lat="45.654422" lon="10.4284669"><ele>269.0</ele><time>2026-04-09T04:51:04.357Z</time></trkpt><trkpt lat="45.6544986" lon="10.4284674"><ele>269.0</ele><time>2026-04-09T04:51:05.358Z</time></trkpt><trkpt lat="45.6545727" lon="10.4284444"><ele>269.0</ele><time>2026-04-09T04:51:06.358Z</time></trkpt><trkpt lat="45.6546316" lon="10.4283923"><ele>269.0</ele><time>2026-04-09T04:51:07.358Z</time></trkpt><trkpt lat="45.6546731" lon="10.4283003"><ele>269.0</ele><time>2026-04-09T04:51:08.358Z</time></trkpt><trkpt lat="45.6546836" lon="10.4281905"><ele>269.2</ele><time>2026-04-09T04:51:09.357Z</time></trkpt><trkpt lat="45.6546134" lon="10.4280018"><ele>269.4</ele><time>2026-04-09T04:51:11.357Z</time></trkpt><trkpt lat="45.6545381" lon="10.42793"><ele>269.6</ele><time>2026-04-09T04:51:12.358Z</time></trkpt><trkpt lat="45.6544497" lon="10.4278826"><ele>269.8</ele><time>2026-04-09T04:51:13.358Z</time></trkpt><trkpt lat="45.6543465" lon="10.4278342"><ele>270.0</ele><time>2026-04-09T04:51:14.357Z</time></trkpt><trkpt lat="45.6542595" lon="10.4277361"><ele>269.25</ele><time>2026-04-09T04:51:15.358Z</time></trkpt><trkpt lat="45.6541891" lon="10.4276379"><ele>268.5</ele><time>2026-04-09T04:51:16.357Z</time></trkpt><trkpt lat="45.6541285" lon="10.4275076"><ele>267.75</ele><time>2026-04-09T04:51:17.357Z</time></trkpt><trkpt lat="45.6540757" lon="10.4273597"><ele>267.0</ele><time>2026-04-09T04:51:18.357Z</time></trkpt><trkpt lat="45.6540083" lon="10.427201"><ele>267.75</ele><time>2026-04-09T04:51:19.358Z</time></trkpt><trkpt lat="45.6539433" lon="10.4270509"><ele>268.5</ele><time>2026-04-09T04:51:20.358Z</time></trkpt><trkpt lat="45.6538743" lon="10.426899"><ele>269.25</ele><time>2026-04-09T04:51:21.357Z</time></trkpt><trkpt lat="45.6538092" lon="10.4267592"><ele>270.0</ele><time>2026-04-09T04:51:22.357Z</time></trkpt><trkpt lat="45.6537391" lon="10.4266215"><ele>270.0</ele><time>2026-04-09T04:51:23.357Z</time></trkpt><trkpt lat="45.6536711" lon="10.4264506"><ele>270.0</ele><time>2026-04-09T04:51:24.358Z</time></trkpt><trkpt lat="45.6535904" lon="10.4262554"><ele>270.0</ele><time>2026-04-09T04:51:25.358Z</time></trkpt><trkpt lat="45.6535059" lon="10.4260248"><ele>273.0</ele><time>2026-04-09T04:51:26.357Z</time></trkpt><trkpt lat="45.6534013" lon="10.4257854"><ele>276.0</ele><time>2026-04-09T04:51:27.357Z</time></trkpt><trkpt lat="45.6533025" lon="10.4255468"><ele>279.0</ele><time>2026-04-09T04:51:28.357Z</time></trkpt><trkpt lat="45.6532098" lon="10.4252872"><ele>280.3333333333333</ele><time>2026-04-09T04:51:29.357Z</time></trkpt><trkpt lat="45.6531177" lon="10.425027"><ele>281.66666666666663</ele><time>2026-04-09T04:51:30.358Z</time></trkpt><trkpt lat="45.6530239" lon="10.4247689"><ele>283.0</ele><time>2026-04-09T04:51:31.357Z</time></trkpt><trkpt lat="45.6529346" lon="10.4244935"><ele>284.3333333333333</ele><time>2026-04-09T04:51:32.358Z</time></trkpt><trkpt lat="45.6528449" lon="10.42422"><ele>285.6666666666667</ele><time>2026-04-09T04:51:33.357Z</time></trkpt><trkpt lat="45.6527538" lon="10.4239448"><ele>287.0</ele><time>2026-04-09T04:51:34.357Z</time></trkpt><trkpt lat="45.652677" lon="10.4236948"><ele>288.6666666666667</ele><time>2026-04-09T04:51:35.358Z</time></trkpt><trkpt lat="45.6525955" lon="10.423462"><ele>290.3333333333333</ele><time>2026-04-09T04:51:36.358Z</time></trkpt><trkpt lat="45.6525101" lon="10.4232372"><ele>292.0</ele><time>2026-04-09T04:51:37.358Z</time></trkpt><trkpt lat="45.6524426" lon="10.4230285"><ele>290.66666666666663</ele><time>2026-04-09T04:51:38.358Z</time></trkpt><trkpt lat="45.6523722" lon="10.4228292"><ele>289.3333333333333</ele><time>2026-04-09T04:51:39.357Z</time></trkpt><trkpt lat="45.6523004" lon="10.4226252"><ele>288.0</ele><time>2026-04-09T04:51:40.358Z</time></trkpt><trkpt lat="45.6522277" lon="10.422416"><ele>288.0</ele><time>2026-04-09T04:51:41.357Z</time></trkpt><trkpt lat="45.6521498" lon="10.4221945"><ele>288.0</ele><time>2026-04-09T04:51:42.357Z</time></trkpt><trkpt lat="45.6520797" lon="10.4219751"><ele>288.0</ele><time>2026-04-09T04:51:43.358Z</time></trkpt><trkpt lat="45.6520073" lon="10.4217575"><ele>286.3333333333333</ele><time>2026-04-09T04:51:44.358Z</time></trkpt><trkpt lat="45.6519351" lon="10.4215456"><ele>284.66666666666663</ele><time>2026-04-09T04:51:45.358Z</time></trkpt><trkpt lat="45.6518619" lon="10.42133"><ele>283.0</ele><time>2026-04-09T04:51:46.358Z</time></trkpt><trkpt lat="45.6517902" lon="10.4211089"><ele>283.0</ele><time>2026-04-09T04:51:47.358Z</time></trkpt><trkpt lat="45.6517167" lon="10.4208919"><ele>283.0</ele><time>2026-04-09T04:51:48.357Z</time></trkpt><trkpt lat="45.6516427" lon="10.4206658"><ele>283.0</ele><time>2026-04-09T04:51:49.357Z</time></trkpt><trkpt lat="45.6515669" lon="10.4204389"><ele>287.0</ele><time>2026-04-09T04:51:50.358Z</time></trkpt><trkpt lat="45.6514877" lon="10.4202043"><ele>291.0</ele><time>2026-04-09T04:51:51.358Z</time></trkpt><trkpt lat="45.6514132" lon="10.4199563"><ele>295.0</ele><time>2026-04-09T04:51:52.358Z</time></trkpt><trkpt lat="45.6513337" lon="10.419704"><ele>294.0</ele><time>2026-04-09T04:51:53.358Z</time></trkpt><trkpt lat="45.6512618" lon="10.4194536"><ele>293.0</ele><time>2026-04-09T04:51:54.357Z</time></trkpt><trkpt lat="45.6505313" lon="10.4172091"><ele>292.6666666666667</ele><time>2026-04-09T04:52:02.358Z</time></trkpt><trkpt lat="45.6504134" lon="10.4170134"><ele>292.3333333333333</ele><time>2026-04-09T04:52:03.358Z</time></trkpt><trkpt lat="45.650328" lon="10.4167694"><ele>292.0</ele><time>2026-04-09T04:52:04.357Z</time></trkpt><trkpt lat="45.6502529" lon="10.4165134"><ele>290.3333333333333</ele><time>2026-04-09T04:52:05.358Z</time></trkpt><trkpt lat="45.6501744" lon="10.4162658"><ele>288.6666666666667</ele><time>2026-04-09T04:52:06.358Z</time></trkpt><trkpt lat="45.6500966" lon="10.4160289"><ele>287.0</ele><time>2026-04-09T04:52:07.357Z</time></trkpt><trkpt lat="45.6500225" lon="10.4158001"><ele>287.0</ele><time>2026-04-09T04:52:08.358Z</time></trkpt><trkpt lat="45.6499565" lon="10.4155876"><ele>287.0</ele><time>2026-04-09T04:52:09.358Z</time></trkpt><trkpt lat="45.6498989" lon="10.4153872"><ele>287.0</ele><time>2026-04-09T04:52:10.357Z</time></trkpt><trkpt lat="45.6498393" lon="10.4151984"><ele>287.0</ele><time>2026-04-09T04:52:11.357Z</time></trkpt><trkpt lat="45.6498037" lon="10.4150371"><ele>287.0</ele><time>2026-04-09T04:52:12.358Z</time></trkpt><trkpt lat="45.6497724" lon="10.4148785"><ele>287.0</ele><time>2026-04-09T04:52:13.358Z</time></trkpt><trkpt lat="45.6497397" lon="10.4147368"><ele>287.0</ele><time>2026-04-09T04:52:14.357Z</time></trkpt><trkpt lat="45.649703" lon="10.4145744"><ele>289.0</ele><time>2026-04-09T04:52:15.358Z</time></trkpt><trkpt lat="45.6496606" lon="10.4144054"><ele>291.0</ele><time>2026-04-09T04:52:16.357Z</time></trkpt><trkpt lat="45.6496196" lon="10.4142364"><ele>293.0</ele><time>2026-04-09T04:52:17.358Z</time></trkpt><trkpt lat="45.6495812" lon="10.4140601"><ele>295.0</ele><time>2026-04-09T04:52:18.358Z</time></trkpt><trkpt lat="45.6495737" lon="10.4138521"><ele>296.3333333333333</ele><time>2026-04-09T04:52:19.357Z</time></trkpt><trkpt lat="45.6495524" lon="10.413624"><ele>297.6666666666667</ele><time>2026-04-09T04:52:20.358Z</time></trkpt><trkpt lat="45.6495401" lon="10.413327"><ele>299.0</ele><time>2026-04-09T04:52:21.358Z</time></trkpt><trkpt lat="45.6495432" lon="10.4130015"><ele>299.0</ele><time>2026-04-09T04:52:22.357Z</time></trkpt><trkpt lat="45.6495669" lon="10.4126478"><ele>299.0</ele><time>2026-04-09T04:52:23.358Z</time></trkpt><trkpt lat="45.6495995" lon="10.4122789"><ele>299.0</ele><time>2026-04-09T04:52:24.358Z</time></trkpt><trkpt lat="45.6496469" lon="10.4118872"><ele>299.0</ele><time>2026-04-09T04:52:25.357Z</time></trkpt><trkpt lat="45.6497262" lon="10.4114861"><ele>297.5</ele><time>2026-04-09T04:52:26.357Z</time></trkpt><trkpt lat="45.6498043" lon="10.4111131"><ele>296.0</ele><time>2026-04-09T04:52:27.358Z</time></trkpt><trkpt lat="45.6499036" lon="10.410745"><ele>296.0</ele><time>2026-04-09T04:52:28.358Z</time></trkpt><trkpt lat="45.6500025" lon="10.4103845"><ele>296.0</ele><time>2026-04-09T04:52:29.358Z</time></trkpt><trkpt lat="45.6501216" lon="10.4100306"><ele>296.0</ele><time>2026-04-09T04:52:30.358Z</time></trkpt><trkpt lat="45.6502383" lon="10.4096773"><ele>296.0</ele><time>2026-04-09T04:52:31.358Z</time></trkpt><trkpt lat="45.6503577" lon="10.4093278"><ele>298.0</ele><time>2026-04-09T04:52:32.357Z</time></trkpt><trkpt lat="45.6504757" lon="10.408982"><ele>300.0</ele><time>2026-04-09T04:52:33.357Z</time></trkpt><trkpt lat="45.650595" lon="10.4086277"><ele>300.0</ele><time>2026-04-09T04:52:34.358Z</time></trkpt><trkpt lat="45.6507151" lon="10.4082889"><ele>300.0</ele><time>2026-04-09T04:52:35.358Z</time></trkpt><trkpt lat="45.6508312" lon="10.4079417"><ele>298.5</ele><time>2026-04-09T04:52:36.357Z</time></trkpt><trkpt lat="45.6509481" lon="10.407591"><ele>297.0</ele><time>2026-04-09T04:52:37.358Z</time></trkpt><trkpt lat="45.6510622" lon="10.4072466"><ele>299.5</ele><time>2026-04-09T04:52:38.358Z</time></trkpt><trkpt lat="45.6511805" lon="10.4068973"><ele>302.0</ele><time>2026-04-09T04:52:39.358Z</time></trkpt><trkpt lat="45.6512939" lon="10.4065477"><ele>301.0</ele><time>2026-04-09T04:52:40.358Z</time></trkpt><trkpt lat="45.6514083" lon="10.4062036"><ele>300.0</ele><time>2026-04-09T04:52:41.358Z</time></trkpt><trkpt lat="45.6515264" lon="10.405859"><ele>300.0</ele><time>2026-04-09T04:52:42.358Z</time></trkpt><trkpt lat="45.6516416" lon="10.405516"><ele>300.0</ele><time>2026-04-09T04:52:43.358Z</time></trkpt><trkpt lat="45.6517553" lon="10.4051752"><ele>300.5</ele><time>2026-04-09T04:52:44.357Z</time></trkpt><trkpt lat="45.651867" lon="10.4048333"><ele>301.0</ele><time>2026-04-09T04:52:45.357Z</time></trkpt><trkpt lat="45.6519782" lon="10.404488"><ele>303.5</ele><time>2026-04-09T04:52:46.358Z</time></trkpt><trkpt lat="45.6520953" lon="10.4041433"><ele>306.0</ele><time>2026-04-09T04:52:47.357Z</time></trkpt><trkpt lat="45.6522049" lon="10.4038072"><ele>306.0</ele><time>2026-04-09T04:52:48.358Z</time></trkpt><trkpt lat="45.6523172" lon="10.4034714"><ele>306.0</ele><time>2026-04-09T04:52:49.358Z</time></trkpt><trkpt lat="45.6524342" lon="10.4031335"><ele>305.0</ele><time>2026-04-09T04:52:50.358Z</time></trkpt><trkpt lat="45.6525512" lon="10.4027935"><ele>304.0</ele><time>2026-04-09T04:52:51.358Z</time></trkpt><trkpt lat="45.6526669" lon="10.4024537"><ele>304.5</ele><time>2026-04-09T04:52:52.358Z</time></trkpt><trkpt lat="45.6527795" lon="10.4021137"><ele>305.0</ele><time>2026-04-09T04:52:53.358Z</time></trkpt><trkpt lat="45.6528887" lon="10.4017634"><ele>305.5</ele><time>2026-04-09T04:52:54.357Z</time></trkpt><trkpt lat="45.6530035" lon="10.4014268"><ele>306.0</ele><time>2026-04-09T04:52:55.358Z</time></trkpt><trkpt lat="45.6531178" lon="10.4010947"><ele>306.0</ele><time>2026-04-09T04:52:56.358Z</time></trkpt><trkpt lat="45.6532357" lon="10.4007522"><ele>306.0</ele><time>2026-04-09T04:52:57.357Z</time></trkpt><trkpt lat="45.6533474" lon="10.4004121"><ele>305.0</ele><time>2026-04-09T04:52:58.357Z</time></trkpt><trkpt lat="45.6534597" lon="10.4000762"><ele>304.0</ele><time>2026-04-09T04:52:59.357Z</time></trkpt><trkpt lat="45.6535728" lon="10.3997441"><ele>307.5</ele><time>2026-04-09T04:53:00.358Z</time></trkpt><trkpt lat="45.6536825" lon="10.3994106"><ele>311.0</ele><time>2026-04-09T04:53:01.358Z</time></trkpt><trkpt lat="45.6537927" lon="10.3990776"><ele>309.0</ele><time>2026-04-09T04:53:02.357Z</time></trkpt><trkpt lat="45.6539023" lon="10.3987438"><ele>307.0</ele><time>2026-04-09T04:53:03.358Z</time></trkpt><trkpt lat="45.654012" lon="10.3984079"><ele>307.0</ele><time>2026-04-09T04:53:04.357Z</time></trkpt><trkpt lat="45.6541191" lon="10.3980783"><ele>307.0</ele><time>2026-04-09T04:53:05.358Z</time></trkpt><trkpt lat="45.6542275" lon="10.3977429"><ele>306.0</ele><time>2026-04-09T04:53:06.357Z</time></trkpt><trkpt lat="45.6543373" lon="10.3974076"><ele>305.0</ele><time>2026-04-09T04:53:07.358Z</time></trkpt><trkpt lat="45.6544401" lon="10.3970654"><ele>307.5</ele><time>2026-04-09T04:53:08.358Z</time></trkpt><trkpt lat="45.6545316" lon="10.3967185"><ele>310.0</ele><time>2026-04-09T04:53:09.357Z</time></trkpt><trkpt lat="45.6546169" lon="10.3963742"><ele>309.5</ele><time>2026-04-09T04:53:10.358Z</time></trkpt><trkpt lat="45.6546911" lon="10.3960169"><ele>309.0</ele><time>2026-04-09T04:53:11.357Z</time></trkpt><trkpt lat="45.6547588" lon="10.3956594"><ele>308.5</ele><time>2026-04-09T04:53:12.358Z</time></trkpt><trkpt lat="45.6548196" lon="10.3953055"><ele>308.0</ele><time>2026-04-09T04:53:13.357Z</time></trkpt><trkpt lat="45.6548648" lon="10.3949447"><ele>308.0</ele><time>2026-04-09T04:53:14.357Z</time></trkpt><trkpt lat="45.654899" lon="10.3945844"><ele>308.0</ele><time>2026-04-09T04:53:15.357Z</time></trkpt><trkpt lat="45.6549303" lon="10.3942182"><ele>308.0</ele><time>2026-04-09T04:53:16.358Z</time></trkpt><trkpt lat="45.654949" lon="10.39385"><ele>308.0</ele><time>2026-04-09T04:53:17.358Z</time></trkpt><trkpt lat="45.6549628" lon="10.3934824"><ele>309.0</ele><time>2026-04-09T04:53:18.358Z</time></trkpt><trkpt lat="45.6549664" lon="10.3931112"><ele>310.0</ele><time>2026-04-09T04:53:19.357Z</time></trkpt><trkpt lat="45.6549621" lon="10.3927429"><ele>311.0</ele><time>2026-04-09T04:53:20.358Z</time></trkpt><trkpt lat="45.6549595" lon="10.3923604"><ele>312.0</ele><time>2026-04-09T04:53:21.358Z</time></trkpt><trkpt lat="45.654961" lon="10.3919846"><ele>312.0</ele><time>2026-04-09T04:53:22.358Z</time></trkpt><trkpt lat="45.6549566" lon="10.3916172"><ele>312.0</ele><time>2026-04-09T04:53:23.358Z</time></trkpt><trkpt lat="45.6549535" lon="10.3912537"><ele>310.5</ele><time>2026-04-09T04:53:24.358Z</time></trkpt><trkpt lat="45.6549503" lon="10.3908955"><ele>309.0</ele><time>2026-04-09T04:53:25.358Z</time></trkpt><trkpt lat="45.6549471" lon="10.3905321"><ele>309.5</ele><time>2026-04-09T04:53:26.357Z</time></trkpt><trkpt lat="45.6549441" lon="10.3901816"><ele>310.0</ele><time>2026-04-09T04:53:27.358Z</time></trkpt><trkpt lat="45.6549405" lon="10.3898348"><ele>309.0</ele><time>2026-04-09T04:53:28.358Z</time></trkpt><trkpt lat="45.6549373" lon="10.3894994"><ele>308.0</ele><time>2026-04-09T04:53:29.357Z</time></trkpt><trkpt lat="45.6549319" lon="10.3891794"><ele>308.0</ele><time>2026-04-09T04:53:30.357Z</time></trkpt><trkpt lat="45.654927" lon="10.3888879"><ele>308.0</ele><time>2026-04-09T04:53:31.357Z</time></trkpt><trkpt lat="45.6549207" lon="10.3886064"><ele>308.0</ele><time>2026-04-09T04:53:32.357Z</time></trkpt><trkpt lat="45.6549199" lon="10.3883318"><ele>308.0</ele><time>2026-04-09T04:53:33.358Z</time></trkpt><trkpt lat="45.654915" lon="10.3880683"><ele>308.0</ele><time>2026-04-09T04:53:34.358Z</time></trkpt><trkpt lat="45.6549095" lon="10.3878138"><ele>308.0</ele><time>2026-04-09T04:53:35.358Z</time></trkpt><trkpt lat="45.6549068" lon="10.3875698"><ele>308.0</ele><time>2026-04-09T04:53:36.358Z</time></trkpt><trkpt lat="45.6549063" lon="10.3873236"><ele>308.0</ele><time>2026-04-09T04:53:37.358Z</time></trkpt><trkpt lat="45.6549064" lon="10.3870871"><ele>308.0</ele><time>2026-04-09T04:53:38.358Z</time></trkpt><trkpt lat="45.654911" lon="10.3868636"><ele>308.25</ele><time>2026-04-09T04:53:39.357Z</time></trkpt><trkpt lat="45.6549073" lon="10.3866579"><ele>308.5</ele><time>2026-04-09T04:53:40.358Z</time></trkpt><trkpt lat="45.6549038" lon="10.3864473"><ele>308.75</ele><time>2026-04-09T04:53:41.357Z</time></trkpt><trkpt lat="45.654906" lon="10.3862587"><ele>309.0</ele><time>2026-04-09T04:53:42.357Z</time></trkpt><trkpt lat="45.6549091" lon="10.3860745"><ele>309.0</ele><time>2026-04-09T04:53:43.358Z</time></trkpt><trkpt lat="45.6549114" lon="10.385908"><ele>309.0</ele><time>2026-04-09T04:53:44.358Z</time></trkpt><trkpt lat="45.6549154" lon="10.3857631"><ele>309.0</ele><time>2026-04-09T04:53:45.357Z</time></trkpt><trkpt lat="45.6549121" lon="10.3856434"><ele>309.0</ele><time>2026-04-09T04:53:46.358Z</time></trkpt><trkpt lat="45.6549128" lon="10.3855275"><ele>309.0</ele><time>2026-04-09T04:53:47.357Z</time></trkpt><trkpt lat="45.6549164" lon="10.3854142"><ele>308.8333333333333</ele><time>2026-04-09T04:53:48.357Z</time></trkpt><trkpt lat="45.6549236" lon="10.3853099"><ele>308.6666666666667</ele><time>2026-04-09T04:53:49.357Z</time></trkpt><trkpt lat="45.6549522" lon="10.385211"><ele>308.5</ele><time>2026-04-09T04:53:50.357Z</time></trkpt><trkpt lat="45.6549987" lon="10.3851186"><ele>308.33333333333337</ele><time>2026-04-09T04:53:51.356Z</time></trkpt><trkpt lat="45.6550364" lon="10.3850336"><ele>308.1666666666667</ele><time>2026-04-09T04:53:52.357Z</time></trkpt><trkpt lat="45.6550615" lon="10.384941"><ele>308.0</ele><time>2026-04-09T04:53:53.356Z</time></trkpt><trkpt lat="45.65505" lon="10.3847453"><ele>307.8</ele><time>2026-04-09T04:53:55.356Z</time></trkpt><trkpt lat="45.6550358" lon="10.3846348"><ele>307.6</ele><time>2026-04-09T04:53:56.356Z</time></trkpt><trkpt lat="45.6550204" lon="10.3845201"><ele>307.4</ele><time>2026-04-09T04:53:57.356Z</time></trkpt><trkpt lat="45.6549909" lon="10.3843998"><ele>307.2</ele><time>2026-04-09T04:53:58.357Z</time></trkpt><trkpt lat="45.6549664" lon="10.3842504"><ele>307.0</ele><time>2026-04-09T04:53:59.357Z</time></trkpt><trkpt lat="45.6549391" lon="10.3840956"><ele>307.0</ele><time>2026-04-09T04:54:00.356Z</time></trkpt><trkpt lat="45.6549199" lon="10.38395"><ele>307.0</ele><time>2026-04-09T04:54:01.357Z</time></trkpt><trkpt lat="45.6549022" lon="10.3838185"><ele>307.0</ele><time>2026-04-09T04:54:02.357Z</time></trkpt><trkpt lat="45.6548887" lon="10.3836788"><ele>307.0</ele><time>2026-04-09T04:54:03.357Z</time></trkpt><trkpt lat="45.6548874" lon="10.3835414"><ele>307.0</ele><time>2026-04-09T04:54:04.356Z</time></trkpt><trkpt lat="45.6548879" lon="10.3833861"><ele>307.5</ele><time>2026-04-09T04:54:05.356Z</time></trkpt><trkpt lat="45.6548874" lon="10.383213"><ele>308.0</ele><time>2026-04-09T04:54:06.357Z</time></trkpt><trkpt lat="45.6548762" lon="10.383022"><ele>308.5</ele><time>2026-04-09T04:54:07.357Z</time></trkpt><trkpt lat="45.6548664" lon="10.3828272"><ele>309.0</ele><time>2026-04-09T04:54:08.356Z</time></trkpt><trkpt lat="45.6548685" lon="10.3826392"><ele>309.5</ele><time>2026-04-09T04:54:09.356Z</time></trkpt><trkpt lat="45.654867" lon="10.3824662"><ele>310.0</ele><time>2026-04-09T04:54:10.356Z</time></trkpt><trkpt lat="45.6548607" lon="10.3822997"><ele>310.5</ele><time>2026-04-09T04:54:11.357Z</time></trkpt><trkpt lat="45.6548624" lon="10.382142"><ele>311.0</ele><time>2026-04-09T04:54:12.357Z</time></trkpt><trkpt lat="45.654865" lon="10.3819877"><ele>311.0</ele><time>2026-04-09T04:54:13.357Z</time></trkpt><trkpt lat="45.6548681" lon="10.3818272"><ele>311.0</ele><time>2026-04-09T04:54:14.357Z</time></trkpt><trkpt lat="45.6548808" lon="10.3816388"><ele>311.0</ele><time>2026-04-09T04:54:15.356Z</time></trkpt><trkpt lat="45.6549006" lon="10.3814453"><ele>311.0</ele><time>2026-04-09T04:54:16.356Z</time></trkpt><trkpt lat="45.654919" lon="10.3812389"><ele>311.0</ele><time>2026-04-09T04:54:17.356Z</time></trkpt><trkpt lat="45.6549444" lon="10.3810157"><ele>311.0</ele><time>2026-04-09T04:54:18.356Z</time></trkpt><trkpt lat="45.6549741" lon="10.3807871"><ele>311.0</ele><time>2026-04-09T04:54:19.356Z</time></trkpt><trkpt lat="45.6550149" lon="10.3805473"><ele>311.6666666666667</ele><time>2026-04-09T04:54:20.357Z</time></trkpt><trkpt lat="45.6550638" lon="10.3802928"><ele>312.3333333333333</ele><time>2026-04-09T04:54:21.356Z</time></trkpt><trkpt lat="45.6551245" lon="10.3800339"><ele>313.0</ele><time>2026-04-09T04:54:22.356Z</time></trkpt><trkpt lat="45.6551908" lon="10.3797663"><ele>313.3333333333333</ele><time>2026-04-09T04:54:23.356Z</time></trkpt><trkpt lat="45.6552673" lon="10.3795152"><ele>313.6666666666667</ele><time>2026-04-09T04:54:24.357Z</time></trkpt><trkpt lat="45.6553373" lon="10.3792772"><ele>314.0</ele><time>2026-04-09T04:54:25.357Z</time></trkpt><trkpt lat="45.6554091" lon="10.3790461"><ele>314.6666666666667</ele><time>2026-04-09T04:54:26.357Z</time></trkpt><trkpt lat="45.6554785" lon="10.3788245"><ele>315.3333333333333</ele><time>2026-04-09T04:54:27.357Z</time></trkpt><trkpt lat="45.6555556" lon="10.3786085"><ele>316.0</ele><time>2026-04-09T04:54:28.356Z</time></trkpt><trkpt lat="45.6556226" lon="10.3783794"><ele>316.0</ele><time>2026-04-09T04:54:29.356Z</time></trkpt><trkpt lat="45.6556981" lon="10.3781454"><ele>316.0</ele><time>2026-04-09T04:54:30.357Z</time></trkpt><trkpt lat="45.6557696" lon="10.3779037"><ele>316.0</ele><time>2026-04-09T04:54:31.357Z</time></trkpt><trkpt lat="45.6558432" lon="10.3776653"><ele>315.66666666666663</ele><time>2026-04-09T04:54:32.357Z</time></trkpt><trkpt lat="45.6559159" lon="10.3774223"><ele>315.3333333333333</ele><time>2026-04-09T04:54:33.357Z</time></trkpt><trkpt lat="45.6559848" lon="10.3771891"><ele>315.0</ele><time>2026-04-09T04:54:34.356Z</time></trkpt><trkpt lat="45.6560458" lon="10.3769524"><ele>315.0</ele><time>2026-04-09T04:54:35.356Z</time></trkpt><trkpt lat="45.6561001" lon="10.3767064"><ele>315.0</ele><time>2026-04-09T04:54:36.357Z</time></trkpt><trkpt lat="45.6561417" lon="10.3764576"><ele>315.0</ele><time>2026-04-09T04:54:37.357Z</time></trkpt><trkpt lat="45.6561763" lon="10.3761902"><ele>316.6666666666667</ele><time>2026-04-09T04:54:38.357Z</time></trkpt><trkpt lat="45.6562039" lon="10.375932"><ele>318.33333333333337</ele><time>2026-04-09T04:54:39.357Z</time></trkpt><trkpt lat="45.6562297" lon="10.3756681"><ele>320.0</ele><time>2026-04-09T04:54:40.356Z</time></trkpt><trkpt lat="45.6562443" lon="10.3753972"><ele>320.0</ele><time>2026-04-09T04:54:41.356Z</time></trkpt><trkpt lat="45.6562505" lon="10.3750954"><ele>320.0</ele><time>2026-04-09T04:54:42.357Z</time></trkpt><trkpt lat="45.6562263" lon="10.3747703"><ele>320.0</ele><time>2026-04-09T04:54:43.357Z</time></trkpt><trkpt lat="45.6561964" lon="10.3744287"><ele>319.0</ele><time>2026-04-09T04:54:44.357Z</time></trkpt><trkpt lat="45.6561654" lon="10.3740795"><ele>318.0</ele><time>2026-04-09T04:54:45.357Z</time></trkpt><trkpt lat="45.6561397" lon="10.3737076"><ele>318.0</ele><time>2026-04-09T04:54:46.356Z</time></trkpt><trkpt lat="45.6561201" lon="10.3733343"><ele>318.0</ele><time>2026-04-09T04:54:47.356Z</time></trkpt><trkpt lat="45.6561046" lon="10.3729524"><ele>317.5</ele><time>2026-04-09T04:54:48.357Z</time></trkpt><trkpt lat="45.6560822" lon="10.3725583"><ele>317.0</ele><time>2026-04-09T04:54:49.357Z</time></trkpt><trkpt lat="45.6560529" lon="10.3721668"><ele>318.0</ele><time>2026-04-09T04:54:50.357Z</time></trkpt><trkpt lat="45.6560262" lon="10.3717718"><ele>319.0</ele><time>2026-04-09T04:54:51.357Z</time></trkpt><trkpt lat="45.6559965" lon="10.3713921"><ele>320.0</ele><time>2026-04-09T04:54:52.356Z</time></trkpt><trkpt lat="45.6559683" lon="10.3710098"><ele>321.0</ele><time>2026-04-09T04:54:53.357Z</time></trkpt><trkpt lat="45.65594" lon="10.3706265"><ele>321.5</ele><time>2026-04-09T04:54:54.356Z</time></trkpt><trkpt lat="45.6559096" lon="10.3702458"><ele>322.0</ele><time>2026-04-09T04:54:55.357Z</time></trkpt><trkpt lat="45.6558752" lon="10.3698733"><ele>322.5</ele><time>2026-04-09T04:54:56.357Z</time></trkpt><trkpt lat="45.6558452" lon="10.3694956"><ele>323.0</ele><time>2026-04-09T04:54:57.357Z</time></trkpt><trkpt lat="45.6558173" lon="10.3691218"><ele>324.5</ele><time>2026-04-09T04:54:58.357Z</time></trkpt><trkpt lat="45.6557924" lon="10.3687544"><ele>326.0</ele><time>2026-04-09T04:54:59.356Z</time></trkpt><trkpt lat="45.6557641" lon="10.368392"><ele>326.0</ele><time>2026-04-09T04:55:00.357Z</time></trkpt><trkpt lat="45.6557426" lon="10.3680361"><ele>326.0</ele><time>2026-04-09T04:55:01.356Z</time></trkpt><trkpt lat="45.6557261" lon="10.3676778"><ele>326.0</ele><time>2026-04-09T04:55:02.357Z</time></trkpt><trkpt lat="45.6557172" lon="10.3673201"><ele>326.0</ele><time>2026-04-09T04:55:03.357Z</time></trkpt><trkpt lat="45.6557366" lon="10.3669706"><ele>325.5</ele><time>2026-04-09T04:55:04.357Z</time></trkpt><trkpt lat="45.6557727" lon="10.366627"><ele>325.0</ele><time>2026-04-09T04:55:05.357Z</time></trkpt><trkpt lat="45.6558343" lon="10.366289"><ele>325.0</ele><time>2026-04-09T04:55:06.356Z</time></trkpt><trkpt lat="45.6559219" lon="10.3659538"><ele>325.0</ele><time>2026-04-09T04:55:07.357Z</time></trkpt><trkpt lat="45.6560219" lon="10.3656267"><ele>328.5</ele><time>2026-04-09T04:55:08.356Z</time></trkpt><trkpt lat="45.6561268" lon="10.365304"><ele>332.0</ele><time>2026-04-09T04:55:09.356Z</time></trkpt><trkpt lat="45.6562421" lon="10.3649809"><ele>332.5</ele><time>2026-04-09T04:55:10.356Z</time></trkpt><trkpt lat="45.6563587" lon="10.3646601"><ele>333.0</ele><time>2026-04-09T04:55:11.356Z</time></trkpt><trkpt lat="45.656483" lon="10.3643328"><ele>333.0</ele><time>2026-04-09T04:55:12.356Z</time></trkpt><trkpt lat="45.6566019" lon="10.3640079"><ele>333.0</ele><time>2026-04-09T04:55:13.357Z</time></trkpt><trkpt lat="45.6567214" lon="10.3636905"><ele>333.5</ele><time>2026-04-09T04:55:14.356Z</time></trkpt><trkpt lat="45.6568367" lon="10.3633759"><ele>334.0</ele><time>2026-04-09T04:55:15.356Z</time></trkpt><trkpt lat="45.6569471" lon="10.3630772"><ele>336.66666666666663</ele><time>2026-04-09T04:55:16.356Z</time></trkpt><trkpt lat="45.657057" lon="10.3627887"><ele>339.3333333333333</ele><time>2026-04-09T04:55:17.357Z</time></trkpt><trkpt lat="45.6571589" lon="10.3625153"><ele>342.0</ele><time>2026-04-09T04:55:18.357Z</time></trkpt><trkpt lat="45.6572535" lon="10.3622649"><ele>342.0</ele><time>2026-04-09T04:55:19.356Z</time></trkpt><trkpt lat="45.6573398" lon="10.3620284"><ele>342.0</ele><time>2026-04-09T04:55:20.357Z</time></trkpt><trkpt lat="45.6574152" lon="10.3618188"><ele>342.0</ele><time>2026-04-09T04:55:21.357Z</time></trkpt><trkpt lat="45.6574947" lon="10.3616178"><ele>342.0</ele><time>2026-04-09T04:55:22.356Z</time></trkpt><trkpt lat="45.6575669" lon="10.3614417"><ele>342.0</ele><time>2026-04-09T04:55:23.357Z</time></trkpt><trkpt lat="45.6576318" lon="10.3612821"><ele>342.0</ele><time>2026-04-09T04:55:24.356Z</time></trkpt><trkpt lat="45.6576878" lon="10.3611361"><ele>342.0</ele><time>2026-04-09T04:55:25.357Z</time></trkpt><trkpt lat="45.6577523" lon="10.3610109"><ele>342.20000000000005</ele><time>2026-04-09T04:55:26.357Z</time></trkpt><trkpt lat="45.6578046" lon="10.3608916"><ele>342.4</ele><time>2026-04-09T04:55:27.357Z</time></trkpt><trkpt lat="45.6578601" lon="10.3607725"><ele>342.6</ele><time>2026-04-09T04:55:28.356Z</time></trkpt><trkpt lat="45.6579148" lon="10.3606594"><ele>342.79999999999995</ele><time>2026-04-09T04:55:29.357Z</time></trkpt><trkpt lat="45.6579736" lon="10.3605139"><ele>343.0</ele><time>2026-04-09T04:55:30.357Z</time></trkpt><trkpt lat="45.6580363" lon="10.3603629"><ele>343.75</ele><time>2026-04-09T04:55:31.357Z</time></trkpt><trkpt lat="45.6581043" lon="10.360222"><ele>344.5</ele><time>2026-04-09T04:55:32.357Z</time></trkpt><trkpt lat="45.6581677" lon="10.3600907"><ele>345.25</ele><time>2026-04-09T04:55:33.357Z</time></trkpt><trkpt lat="45.6582321" lon="10.3599515"><ele>346.0</ele><time>2026-04-09T04:55:34.357Z</time></trkpt><trkpt lat="45.6582923" lon="10.3598162"><ele>346.5</ele><time>2026-04-09T04:55:35.357Z</time></trkpt><trkpt lat="45.6583523" lon="10.3596843"><ele>347.0</ele><time>2026-04-09T04:55:36.357Z</time></trkpt><trkpt lat="45.6584227" lon="10.3595376"><ele>347.5</ele><time>2026-04-09T04:55:37.356Z</time></trkpt><trkpt lat="45.6585028" lon="10.359327"><ele>348.0</ele><time>2026-04-09T04:55:38.357Z</time></trkpt><trkpt lat="45.6586068" lon="10.3590954"><ele>350.5</ele><time>2026-04-09T04:55:39.356Z</time></trkpt><trkpt lat="45.6587349" lon="10.3588396"><ele>353.0</ele><time>2026-04-09T04:55:40.356Z</time></trkpt><trkpt lat="45.658881" lon="10.3585507"><ele>353.0</ele><time>2026-04-09T04:55:41.356Z</time></trkpt><trkpt lat="45.6590168" lon="10.3582609"><ele>353.0</ele><time>2026-04-09T04:55:42.357Z</time></trkpt><trkpt lat="45.6591547" lon="10.3579758"><ele>354.0</ele><time>2026-04-09T04:55:43.356Z</time></trkpt><trkpt lat="45.659292" lon="10.3576775"><ele>355.0</ele><time>2026-04-09T04:55:44.356Z</time></trkpt><trkpt lat="45.6594299" lon="10.3573701"><ele>357.5</ele><time>2026-04-09T04:55:45.356Z</time></trkpt><trkpt lat="45.6595689" lon="10.3570615"><ele>360.0</ele><time>2026-04-09T04:55:46.356Z</time></trkpt><trkpt lat="45.6597093" lon="10.3567568"><ele>360.0</ele><time>2026-04-09T04:55:47.356Z</time></trkpt><trkpt lat="45.6598529" lon="10.3564593"><ele>360.0</ele><time>2026-04-09T04:55:48.356Z</time></trkpt><trkpt lat="45.6599959" lon="10.3561587"><ele>360.5</ele><time>2026-04-09T04:55:49.357Z</time></trkpt><trkpt lat="45.6601384" lon="10.3558559"><ele>361.0</ele><time>2026-04-09T04:55:50.356Z</time></trkpt><trkpt lat="45.6602749" lon="10.3555481"><ele>367.0</ele><time>2026-04-09T04:55:51.356Z</time></trkpt><trkpt lat="45.6604155" lon="10.3552422"><ele>373.0</ele><time>2026-04-09T04:55:52.357Z</time></trkpt><trkpt lat="45.6605562" lon="10.3549291"><ele>372.0</ele><time>2026-04-09T04:55:53.356Z</time></trkpt><trkpt lat="45.6606974" lon="10.3546204"><ele>371.0</ele><time>2026-04-09T04:55:54.356Z</time></trkpt><trkpt lat="45.6608401" lon="10.3543087"><ele>371.0</ele><time>2026-04-09T04:55:55.357Z</time></trkpt><trkpt lat="45.6609901" lon="10.3540006"><ele>371.0</ele><time>2026-04-09T04:55:56.357Z</time></trkpt><trkpt lat="45.6611306" lon="10.3536965"><ele>376.5</ele><time>2026-04-09T04:55:57.357Z</time></trkpt><trkpt lat="45.6612711" lon="10.3533803"><ele>382.0</ele><time>2026-04-09T04:55:58.356Z</time></trkpt><trkpt lat="45.661414" lon="10.353068"><ele>380.5</ele><time>2026-04-09T04:55:59.356Z</time></trkpt><trkpt lat="45.6615529" lon="10.3527625"><ele>379.0</ele><time>2026-04-09T04:56:00.356Z</time></trkpt><trkpt lat="45.6616912" lon="10.3524916"><ele>379.0</ele><time>2026-04-09T04:56:01.356Z</time></trkpt><trkpt lat="45.6618456" lon="10.3522496"><ele>379.0</ele><time>2026-04-09T04:56:02.357Z</time></trkpt><trkpt lat="45.6620144" lon="10.3520149"><ele>384.5</ele><time>2026-04-09T04:56:03.356Z</time></trkpt><trkpt lat="45.6621903" lon="10.3517942"><ele>390.0</ele><time>2026-04-09T04:56:04.356Z</time></trkpt><trkpt lat="45.6623835" lon="10.3515917"><ele>390.0</ele><time>2026-04-09T04:56:05.357Z</time></trkpt><trkpt lat="45.662577" lon="10.3514149"><ele>390.0</ele><time>2026-04-09T04:56:06.356Z</time></trkpt><trkpt lat="45.6627588" lon="10.3512449"><ele>390.0</ele><time>2026-04-09T04:56:07.356Z</time></trkpt><trkpt lat="45.6629286" lon="10.3510799"><ele>392.0</ele><time>2026-04-09T04:56:08.357Z</time></trkpt><trkpt lat="45.6630795" lon="10.350931"><ele>394.0</ele><time>2026-04-09T04:56:09.357Z</time></trkpt><trkpt lat="45.6632242" lon="10.3507912"><ele>396.0</ele><time>2026-04-09T04:56:10.357Z</time></trkpt><trkpt lat="45.6633443" lon="10.3506541"><ele>396.0</ele><time>2026-04-09T04:56:11.357Z</time></trkpt><trkpt lat="45.6634457" lon="10.3505419"><ele>396.0</ele><time>2026-04-09T04:56:12.356Z</time></trkpt><trkpt lat="45.6635272" lon="10.350443"><ele>396.0</ele><time>2026-04-09T04:56:13.356Z</time></trkpt><trkpt lat="45.6635864" lon="10.3503933"><ele>396.0</ele><time>2026-04-09T04:56:14.357Z</time></trkpt><trkpt lat="45.6636433" lon="10.3503417"><ele>396.0</ele><time>2026-04-09T04:56:15.357Z</time></trkpt><trkpt lat="45.6637078" lon="10.3503005"><ele>396.0</ele><time>2026-04-09T04:56:17.357Z</time></trkpt><trkpt lat="45.6637583" lon="10.3502219"><ele>396.4</ele><time>2026-04-09T04:58:42.356Z</time></trkpt><trkpt lat="45.6638355" lon="10.350078"><ele>396.8</ele><time>2026-04-09T04:58:44.356Z</time></trkpt><trkpt lat="45.6638773" lon="10.349977"><ele>397.2</ele><time>2026-04-09T04:58:45.357Z</time></trkpt><trkpt lat="45.6639478" lon="10.3498653"><ele>397.59999999999997</ele><time>2026-04-09T04:58:46.356Z</time></trkpt><trkpt lat="45.6640306" lon="10.3497413"><ele>398.0</ele><time>2026-04-09T04:58:47.357Z</time></trkpt><trkpt lat="45.6641297" lon="10.3496122"><ele>398.0</ele><time>2026-04-09T04:58:48.357Z</time></trkpt><trkpt lat="45.6642479" lon="10.3494483"><ele>398.0</ele><time>2026-04-09T04:58:49.356Z</time></trkpt><trkpt lat="45.6643859" lon="10.3492871"><ele>398.0</ele><time>2026-04-09T04:58:50.356Z</time></trkpt><trkpt lat="45.6645151" lon="10.3491169"><ele>402.3333333333333</ele><time>2026-04-09T04:58:51.357Z</time></trkpt><trkpt lat="45.6646436" lon="10.3489316"><ele>406.66666666666663</ele><time>2026-04-09T04:58:52.357Z</time></trkpt><trkpt lat="45.6647561" lon="10.3487733"><ele>411.0</ele><time>2026-04-09T04:58:53.357Z</time></trkpt><trkpt lat="45.6648455" lon="10.3486509"><ele>411.0</ele><time>2026-04-09T04:58:54.356Z</time></trkpt><trkpt lat="45.6649005" lon="10.3485422"><ele>411.0</ele><time>2026-04-09T04:58:55.356Z</time></trkpt><trkpt lat="45.6649452" lon="10.3484191"><ele>411.0</ele><time>2026-04-09T04:58:56.356Z</time></trkpt><trkpt lat="45.6649498" lon="10.3483092"><ele>411.0</ele><time>2026-04-09T04:58:57.357Z</time></trkpt><trkpt lat="45.6649295" lon="10.3482099"><ele>411.0</ele><time>2026-04-09T04:58:58.357Z</time></trkpt><trkpt lat="45.6648844" lon="10.3481209"><ele>411.0</ele><time>2026-04-09T04:58:59.357Z</time></trkpt><trkpt lat="45.6648165" lon="10.3480334"><ele>413.0</ele><time>2026-04-09T04:59:00.357Z</time></trkpt><trkpt lat="45.6647335" lon="10.3479655"><ele>415.0</ele><time>2026-04-09T04:59:01.357Z</time></trkpt><trkpt lat="45.6646225" lon="10.3479425"><ele>417.0</ele><time>2026-04-09T04:59:02.357Z</time></trkpt><trkpt lat="45.6644948" lon="10.347968"><ele>419.0</ele><time>2026-04-09T04:59:03.357Z</time></trkpt><trkpt lat="45.6643356" lon="10.3480185"><ele>414.3333333333333</ele><time>2026-04-09T04:59:04.356Z</time></trkpt><trkpt lat="45.6641654" lon="10.348068"><ele>409.66666666666663</ele><time>2026-04-09T04:59:05.357Z</time></trkpt><trkpt lat="45.6639957" lon="10.3481249"><ele>405.0</ele><time>2026-04-09T04:59:06.357Z</time></trkpt><trkpt lat="45.6638215" lon="10.348186"><ele>405.0</ele><time>2026-04-09T04:59:07.356Z</time></trkpt><trkpt lat="45.6636385" lon="10.3482452"><ele>405.0</ele><time>2026-04-09T04:59:08.356Z</time></trkpt><trkpt lat="45.6634406" lon="10.3483088"><ele>405.0</ele><time>2026-04-09T04:59:09.357Z</time></trkpt><trkpt lat="45.6632504" lon="10.3483726"><ele>405.25</ele><time>2026-04-09T04:59:10.357Z</time></trkpt><trkpt lat="45.6630924" lon="10.3484184"><ele>405.5</ele><time>2026-04-09T04:59:11.357Z</time></trkpt><trkpt lat="45.662955" lon="10.3484666"><ele>405.75</ele><time>2026-04-09T04:59:12.356Z</time></trkpt><trkpt lat="45.662833" lon="10.3485058"><ele>406.0</ele><time>2026-04-09T04:59:13.356Z</time></trkpt><trkpt lat="45.662714" lon="10.3484913"><ele>406.4</ele><time>2026-04-09T04:59:14.356Z</time></trkpt><trkpt lat="45.6626193" lon="10.3484438"><ele>406.8</ele><time>2026-04-09T04:59:15.357Z</time></trkpt><trkpt lat="45.662552" lon="10.3483539"><ele>407.2</ele><time>2026-04-09T04:59:16.357Z</time></trkpt><trkpt lat="45.662506" lon="10.3482348"><ele>407.59999999999997</ele><time>2026-04-09T04:59:17.356Z</time></trkpt><trkpt lat="45.6624885" lon="10.3480863"><ele>408.0</ele><time>2026-04-09T04:59:18.356Z</time></trkpt><trkpt lat="45.6625102" lon="10.3479404"><ele>408.0</ele><time>2026-04-09T04:59:19.357Z</time></trkpt><trkpt lat="45.6625721" lon="10.3477914"><ele>408.0</ele><time>2026-04-09T04:59:20.357Z</time></trkpt><trkpt lat="45.6626682" lon="10.347625"><ele>408.0</ele><time>2026-04-09T04:59:21.357Z</time></trkpt><trkpt lat="45.6627657" lon="10.3474395"><ele>408.0</ele><time>2026-04-09T04:59:22.357Z</time></trkpt><trkpt lat="45.6628743" lon="10.3472314"><ele>413.0</ele><time>2026-04-09T04:59:23.357Z</time></trkpt><trkpt lat="45.6629782" lon="10.3469959"><ele>418.0</ele><time>2026-04-09T04:59:24.357Z</time></trkpt><trkpt lat="45.6631134" lon="10.3467214"><ele>423.0</ele><time>2026-04-09T04:59:25.357Z</time></trkpt><trkpt lat="45.6632507" lon="10.3463997"><ele>420.5</ele><time>2026-04-09T04:59:26.356Z</time></trkpt><trkpt lat="45.6633884" lon="10.346035"><ele>418.0</ele><time>2026-04-09T04:59:27.356Z</time></trkpt><trkpt lat="45.6635115" lon="10.3456362"><ele>432.0</ele><time>2026-04-09T04:59:28.357Z</time></trkpt><trkpt lat="45.6636238" lon="10.3451958"><ele>446.0</ele><time>2026-04-09T04:59:29.357Z</time></trkpt><trkpt lat="45.6637238" lon="10.3447542"><ele>446.5</ele><time>2026-04-09T04:59:30.357Z</time></trkpt><trkpt lat="45.6638156" lon="10.3443243"><ele>447.0</ele><time>2026-04-09T04:59:31.357Z</time></trkpt><trkpt lat="45.6638976" lon="10.3439366"><ele>445.0</ele><time>2026-04-09T04:59:32.357Z</time></trkpt><trkpt lat="45.6639865" lon="10.3435882"><ele>443.0</ele><time>2026-04-09T04:59:33.356Z</time></trkpt><trkpt lat="45.6640494" lon="10.3432654"><ele>441.66666666666663</ele><time>2026-04-09T04:59:34.356Z</time></trkpt><trkpt lat="45.664114" lon="10.3429614"><ele>440.33333333333337</ele><time>2026-04-09T04:59:35.356Z</time></trkpt><trkpt lat="45.664126" lon="10.3426773"><ele>439.0</ele><time>2026-04-09T04:59:36.356Z</time></trkpt><trkpt lat="45.6641214" lon="10.3423946"><ele>441.6666666666667</ele><time>2026-04-09T04:59:37.357Z</time></trkpt><trkpt lat="45.6640979" lon="10.342095"><ele>444.33333333333337</ele><time>2026-04-09T04:59:38.357Z</time></trkpt><trkpt lat="45.6640726" lon="10.3418243"><ele>447.0</ele><time>2026-04-09T04:59:39.356Z</time></trkpt><trkpt lat="45.6640362" lon="10.3415916"><ele>447.0</ele><time>2026-04-09T04:59:40.357Z</time></trkpt><trkpt lat="45.6640023" lon="10.3413828"><ele>447.0</ele><time>2026-04-09T04:59:41.356Z</time></trkpt><trkpt lat="45.6639569" lon="10.3412077"><ele>447.0</ele><time>2026-04-09T04:59:42.356Z</time></trkpt><trkpt lat="45.6638907" lon="10.3410628"><ele>447.0</ele><time>2026-04-09T04:59:43.357Z</time></trkpt><trkpt lat="45.6638054" lon="10.3409439"><ele>449.5</ele><time>2026-04-09T04:59:44.357Z</time></trkpt><trkpt lat="45.6636972" lon="10.340863"><ele>452.0</ele><time>2026-04-09T04:59:45.357Z</time></trkpt><trkpt lat="45.6635792" lon="10.3408163"><ele>454.5</ele><time>2026-04-09T04:59:46.356Z</time></trkpt><trkpt lat="45.6634646" lon="10.34081"><ele>457.0</ele><time>2026-04-09T04:59:47.357Z</time></trkpt><trkpt lat="45.6633441" lon="10.3408505"><ele>457.0</ele><time>2026-04-09T04:59:48.356Z</time></trkpt><trkpt lat="45.6632234" lon="10.3409466"><ele>457.0</ele><time>2026-04-09T04:59:49.356Z</time></trkpt><trkpt lat="45.6630761" lon="10.3410709"><ele>457.0</ele><time>2026-04-09T04:59:50.357Z</time></trkpt><trkpt lat="45.6628995" lon="10.3412326"><ele>461.0</ele><time>2026-04-09T04:59:51.357Z</time></trkpt><trkpt lat="45.6627044" lon="10.3414094"><ele>465.0</ele><time>2026-04-09T04:59:52.356Z</time></trkpt><trkpt lat="45.662479" lon="10.3415936"><ele>465.0</ele><time>2026-04-09T04:59:53.356Z</time></trkpt><trkpt lat="45.6622374" lon="10.3418044"><ele>465.0</ele><time>2026-04-09T04:59:54.357Z</time></trkpt><trkpt lat="45.6619944" lon="10.3420286"><ele>466.0</ele><time>2026-04-09T04:59:55.356Z</time></trkpt><trkpt lat="45.6617498" lon="10.3422762"><ele>467.0</ele><time>2026-04-09T04:59:56.356Z</time></trkpt><trkpt lat="45.6615148" lon="10.3425466"><ele>467.0</ele><time>2026-04-09T04:59:57.356Z</time></trkpt><trkpt lat="45.6612744" lon="10.3428106"><ele>467.0</ele><time>2026-04-09T04:59:58.356Z</time></trkpt><trkpt lat="45.661077" lon="10.3430669"><ele>471.0</ele><time>2026-04-09T04:59:59.357Z</time></trkpt><trkpt lat="45.6608889" lon="10.3432947"><ele>475.0</ele><time>2026-04-09T05:00:00.357Z</time></trkpt><trkpt lat="45.6606992" lon="10.3434776"><ele>475.0</ele><time>2026-04-09T05:00:01.357Z</time></trkpt><trkpt lat="45.6605055" lon="10.3436167"><ele>475.0</ele><time>2026-04-09T05:00:02.357Z</time></trkpt><trkpt lat="45.6603108" lon="10.343734"><ele>475.0</ele><time>2026-04-09T05:00:03.356Z</time></trkpt><trkpt lat="45.6600973" lon="10.3438179"><ele>473.33333333333337</ele><time>2026-04-09T05:00:04.357Z</time></trkpt><trkpt lat="45.6598924" lon="10.3438499"><ele>471.66666666666663</ele><time>2026-04-09T05:00:05.357Z</time></trkpt><trkpt lat="45.6596939" lon="10.3438659"><ele>470.0</ele><time>2026-04-09T05:00:06.356Z</time></trkpt><trkpt lat="45.6595173" lon="10.3438823"><ele>472.5</ele><time>2026-04-09T05:00:07.356Z</time></trkpt><trkpt lat="45.6593664" lon="10.3438943"><ele>475.0</ele><time>2026-04-09T05:00:08.356Z</time></trkpt><trkpt lat="45.6592488" lon="10.3438869"><ele>477.5</ele><time>2026-04-09T05:00:09.357Z</time></trkpt><trkpt lat="45.6591467" lon="10.3438576"><ele>480.0</ele><time>2026-04-09T05:00:10.357Z</time></trkpt><trkpt lat="45.6590738" lon="10.3437979"><ele>483.2</ele><time>2026-04-09T05:00:11.356Z</time></trkpt><trkpt lat="45.6590076" lon="10.3437193"><ele>486.4</ele><time>2026-04-09T05:00:12.357Z</time></trkpt><trkpt lat="45.6589374" lon="10.3436506"><ele>489.6</ele><time>2026-04-09T05:00:13.357Z</time></trkpt><trkpt lat="45.6588494" lon="10.3436406"><ele>492.8</ele><time>2026-04-09T05:00:14.356Z</time></trkpt><trkpt lat="45.6587294" lon="10.3437122"><ele>496.0</ele><time>2026-04-09T05:00:15.356Z</time></trkpt><trkpt lat="45.6585959" lon="10.3438157"><ele>494.0</ele><time>2026-04-09T05:00:16.355Z</time></trkpt><trkpt lat="45.6584297" lon="10.3438837"><ele>492.0</ele><time>2026-04-09T05:00:17.355Z</time></trkpt><trkpt lat="45.658236" lon="10.3439268"><ele>490.0</ele><time>2026-04-09T05:00:18.356Z</time></trkpt><trkpt lat="45.6580295" lon="10.3439834"><ele>490.0</ele><time>2026-04-09T05:00:19.355Z</time></trkpt><trkpt lat="45.6578265" lon="10.3440724"><ele>490.0</ele><time>2026-04-09T05:00:20.355Z</time></trkpt><trkpt lat="45.6576125" lon="10.3441842"><ele>490.0</ele><time>2026-04-09T05:00:21.356Z</time></trkpt><trkpt lat="45.6573824" lon="10.3443308"><ele>494.5</ele><time>2026-04-09T05:00:22.356Z</time></trkpt><trkpt lat="45.6571711" lon="10.3445052"><ele>499.0</ele><time>2026-04-09T05:00:23.356Z</time></trkpt><trkpt lat="45.6569638" lon="10.3446614"><ele>496.5</ele><time>2026-04-09T05:00:24.355Z</time></trkpt><trkpt lat="45.6567544" lon="10.3448077"><ele>494.0</ele><time>2026-04-09T05:00:25.355Z</time></trkpt><trkpt lat="45.6565432" lon="10.3449293"><ele>494.0</ele><time>2026-04-09T05:00:26.356Z</time></trkpt><trkpt lat="45.6563435" lon="10.3449933"><ele>494.0</ele><time>2026-04-09T05:00:27.356Z</time></trkpt><trkpt lat="45.6561513" lon="10.3450284"><ele>494.0</ele><time>2026-04-09T05:00:28.355Z</time></trkpt><trkpt lat="45.6559573" lon="10.3450584"><ele>497.3333333333333</ele><time>2026-04-09T05:00:29.356Z</time></trkpt><trkpt lat="45.6557787" lon="10.345068"><ele>500.66666666666663</ele><time>2026-04-09T05:00:30.356Z</time></trkpt><trkpt lat="45.6556198" lon="10.3450612"><ele>504.0</ele><time>2026-04-09T05:00:31.355Z</time></trkpt><trkpt lat="45.6554674" lon="10.3450574"><ele>504.0</ele><time>2026-04-09T05:00:32.355Z</time></trkpt><trkpt lat="45.6553212" lon="10.3450524"><ele>504.0</ele><time>2026-04-09T05:00:33.356Z</time></trkpt><trkpt lat="45.6551736" lon="10.345047"><ele>504.0</ele><time>2026-04-09T05:00:34.355Z</time></trkpt><trkpt lat="45.6550289" lon="10.3450393"><ele>504.0</ele><time>2026-04-09T05:00:35.355Z</time></trkpt><trkpt lat="45.6548717" lon="10.3450416"><ele>505.33333333333337</ele><time>2026-04-09T05:00:36.355Z</time></trkpt><trkpt lat="45.654704" lon="10.3450624"><ele>506.6666666666667</ele><time>2026-04-09T05:00:37.355Z</time></trkpt><trkpt lat="45.654532" lon="10.3451"><ele>508.0</ele><time>2026-04-09T05:00:38.355Z</time></trkpt><trkpt lat="45.6543569" lon="10.3451635"><ele>511.33333333333337</ele><time>2026-04-09T05:00:39.356Z</time></trkpt><trkpt lat="45.6541741" lon="10.3452331"><ele>514.6666666666666</ele><time>2026-04-09T05:00:40.356Z</time></trkpt><trkpt lat="45.6539749" lon="10.3453295"><ele>518.0</ele><time>2026-04-09T05:00:41.356Z</time></trkpt><trkpt lat="45.6537625" lon="10.3454322"><ele>515.0</ele><time>2026-04-09T05:00:42.356Z</time></trkpt><trkpt lat="45.6535504" lon="10.3455432"><ele>512.0</ele><time>2026-04-09T05:00:43.356Z</time></trkpt><trkpt lat="45.6533291" lon="10.3456677"><ele>512.0</ele><time>2026-04-09T05:00:44.355Z</time></trkpt><trkpt lat="45.6530994" lon="10.345799"><ele>512.0</ele><time>2026-04-09T05:00:45.355Z</time></trkpt><trkpt lat="45.6528653" lon="10.3459303"><ele>519.0</ele><time>2026-04-09T05:00:46.356Z</time></trkpt><trkpt lat="45.6526259" lon="10.3460531"><ele>526.0</ele><time>2026-04-09T05:00:47.356Z</time></trkpt><trkpt lat="45.6523752" lon="10.3461943"><ele>526.0</ele><time>2026-04-09T05:00:48.356Z</time></trkpt><trkpt lat="45.6521155" lon="10.3463283"><ele>526.0</ele><time>2026-04-09T05:00:49.355Z</time></trkpt><trkpt lat="45.6518308" lon="10.346468"><ele>527.5</ele><time>2026-04-09T05:00:50.355Z</time></trkpt><trkpt lat="45.6515437" lon="10.3466163"><ele>529.0</ele><time>2026-04-09T05:00:51.355Z</time></trkpt><trkpt lat="45.6512739" lon="10.3467527"><ele>539.0</ele><time>2026-04-09T05:00:52.355Z</time></trkpt><trkpt lat="45.651023" lon="10.3468754"><ele>549.0</ele><time>2026-04-09T05:00:53.355Z</time></trkpt><trkpt lat="45.6507938" lon="10.3469972"><ele>549.0</ele><time>2026-04-09T05:00:54.355Z</time></trkpt><trkpt lat="45.6505955" lon="10.3471236"><ele>549.0</ele><time>2026-04-09T05:00:55.355Z</time></trkpt><trkpt lat="45.6504299" lon="10.3472606"><ele>549.0</ele><time>2026-04-09T05:00:56.356Z</time></trkpt><trkpt lat="45.6503002" lon="10.3474255"><ele>548.6666666666666</ele><time>2026-04-09T05:00:57.355Z</time></trkpt><trkpt lat="45.6502001" lon="10.3476435"><ele>548.3333333333333</ele><time>2026-04-09T05:00:58.356Z</time></trkpt><trkpt lat="45.6501147" lon="10.347904"><ele>548.0</ele><time>2026-04-09T05:00:59.356Z</time></trkpt><trkpt lat="45.6500154" lon="10.348182"><ele>548.0</ele><time>2026-04-09T05:01:00.355Z</time></trkpt><trkpt lat="45.6498761" lon="10.3483963"><ele>548.0</ele><time>2026-04-09T05:01:01.356Z</time></trkpt><trkpt lat="45.6496919" lon="10.3486065"><ele>548.0</ele><time>2026-04-09T05:01:02.355Z</time></trkpt><trkpt lat="45.6494874" lon="10.3488127"><ele>550.3333333333333</ele><time>2026-04-09T05:01:03.355Z</time></trkpt><trkpt lat="45.6492969" lon="10.349012"><ele>552.6666666666666</ele><time>2026-04-09T05:01:04.355Z</time></trkpt><trkpt lat="45.6491501" lon="10.3491831"><ele>555.0</ele><time>2026-04-09T05:01:05.356Z</time></trkpt><trkpt lat="45.6490124" lon="10.349346"><ele>555.0</ele><time>2026-04-09T05:01:06.356Z</time></trkpt><trkpt lat="45.6488694" lon="10.3494264"><ele>555.0</ele><time>2026-04-09T05:01:07.356Z</time></trkpt><trkpt lat="45.6487288" lon="10.3494335"><ele>555.0</ele><time>2026-04-09T05:01:08.356Z</time></trkpt><trkpt lat="45.6485877" lon="10.3493969"><ele>555.0</ele><time>2026-04-09T05:01:09.355Z</time></trkpt><trkpt lat="45.6484498" lon="10.3493039"><ele>555.0</ele><time>2026-04-09T05:01:10.356Z</time></trkpt><trkpt lat="45.6483147" lon="10.3491595"><ele>555.0</ele><time>2026-04-09T05:01:11.355Z</time></trkpt><trkpt lat="45.6481672" lon="10.3489717"><ele>555.0</ele><time>2026-04-09T05:01:12.356Z</time></trkpt><trkpt lat="45.6480009" lon="10.3487505"><ele>556.0</ele><time>2026-04-09T05:01:13.356Z</time></trkpt><trkpt lat="45.6478103" lon="10.3485392"><ele>557.0</ele><time>2026-04-09T05:01:14.356Z</time></trkpt><trkpt lat="45.6476336" lon="10.3483323"><ele>557.0</ele><time>2026-04-09T05:01:15.356Z</time></trkpt><trkpt lat="45.647504" lon="10.3481302"><ele>557.0</ele><time>2026-04-09T05:01:16.356Z</time></trkpt><trkpt lat="45.6473979" lon="10.3478946"><ele>557.0</ele><time>2026-04-09T05:01:17.356Z</time></trkpt><trkpt lat="45.6473415" lon="10.3476181"><ele>566.5</ele><time>2026-04-09T05:01:18.356Z</time></trkpt><trkpt lat="45.6473154" lon="10.3472795"><ele>576.0</ele><time>2026-04-09T05:01:19.355Z</time></trkpt><trkpt lat="45.6472859" lon="10.346927"><ele>577.5</ele><time>2026-04-09T05:01:20.355Z</time></trkpt><trkpt lat="45.6472355" lon="10.3465675"><ele>579.0</ele><time>2026-04-09T05:01:21.355Z</time></trkpt><trkpt lat="45.6471577" lon="10.346228"><ele>581.0</ele><time>2026-04-09T05:01:22.356Z</time></trkpt><trkpt lat="45.6470783" lon="10.3459009"><ele>583.0</ele><time>2026-04-09T05:01:23.356Z</time></trkpt><trkpt lat="45.647005" lon="10.3456242"><ele>585.0</ele><time>2026-04-09T05:01:24.356Z</time></trkpt><trkpt lat="45.6469395" lon="10.3453549"><ele>582.6666666666666</ele><time>2026-04-09T05:01:25.355Z</time></trkpt><trkpt lat="45.6468761" lon="10.3450985"><ele>580.3333333333333</ele><time>2026-04-09T05:01:26.355Z</time></trkpt><trkpt lat="45.6468078" lon="10.3448534"><ele>578.0</ele><time>2026-04-09T05:01:27.355Z</time></trkpt><trkpt lat="45.6467426" lon="10.3446132"><ele>578.0</ele><time>2026-04-09T05:01:28.355Z</time></trkpt><trkpt lat="45.6466846" lon="10.3443616"><ele>578.0</ele><time>2026-04-09T05:01:29.355Z</time></trkpt><trkpt lat="45.6466067" lon="10.344054"><ele>578.0</ele><time>2026-04-09T05:01:30.355Z</time></trkpt><trkpt lat="45.6464876" lon="10.3436725"><ele>580.0</ele><time>2026-04-09T05:01:31.355Z</time></trkpt><trkpt lat="45.6463964" lon="10.3432963"><ele>582.0</ele><time>2026-04-09T05:01:32.355Z</time></trkpt><trkpt lat="45.6463157" lon="10.3429657"><ele>582.0</ele><time>2026-04-09T05:01:33.356Z</time></trkpt><trkpt lat="45.6462571" lon="10.3426931"><ele>582.0</ele><time>2026-04-09T05:01:34.356Z</time></trkpt><trkpt lat="45.646211" lon="10.3424815"><ele>582.0</ele><time>2026-04-09T05:01:35.355Z</time></trkpt><trkpt lat="45.6461857" lon="10.3423065"><ele>582.4</ele><time>2026-04-09T05:01:36.356Z</time></trkpt><trkpt lat="45.6461896" lon="10.3421538"><ele>582.8000000000001</ele><time>2026-04-09T05:01:37.356Z</time></trkpt><trkpt lat="45.6462362" lon="10.3420179"><ele>583.2</ele><time>2026-04-09T05:01:38.356Z</time></trkpt><trkpt lat="45.6463104" lon="10.3419433"><ele>583.6</ele><time>2026-04-09T05:01:39.356Z</time></trkpt><trkpt lat="45.646408" lon="10.3419042"><ele>584.0</ele><time>2026-04-09T05:01:40.356Z</time></trkpt><trkpt lat="45.6465075" lon="10.341952"><ele>584.0</ele><time>2026-04-09T05:01:41.355Z</time></trkpt><trkpt lat="45.6465971" lon="10.3420296"><ele>584.0</ele><time>2026-04-09T05:01:42.356Z</time></trkpt><trkpt lat="45.6466692" lon="10.3421784"><ele>584.0</ele><time>2026-04-09T05:01:43.356Z</time></trkpt><trkpt lat="45.6467278" lon="10.3424126"><ele>584.0</ele><time>2026-04-09T05:01:44.355Z</time></trkpt><trkpt lat="45.646771" lon="10.3426795"><ele>583.0</ele><time>2026-04-09T05:01:45.356Z</time></trkpt><trkpt lat="45.6468216" lon="10.3430002"><ele>582.0</ele><time>2026-04-09T05:01:46.356Z</time></trkpt><trkpt lat="45.64689" lon="10.3433364"><ele>593.5</ele><time>2026-04-09T05:01:47.355Z</time></trkpt><trkpt lat="45.6469813" lon="10.3436843"><ele>605.0</ele><time>2026-04-09T05:01:48.356Z</time></trkpt><trkpt lat="45.647097" lon="10.3440454"><ele>605.0</ele><time>2026-04-09T05:01:49.356Z</time></trkpt><trkpt lat="45.6472299" lon="10.3443982"><ele>605.0</ele><time>2026-04-09T05:01:50.355Z</time></trkpt><trkpt lat="45.6473794" lon="10.3447336"><ele>600.0</ele><time>2026-04-09T05:01:51.355Z</time></trkpt><trkpt lat="45.6475333" lon="10.3450289"><ele>595.0</ele><time>2026-04-09T05:01:52.355Z</time></trkpt><trkpt lat="45.6476582" lon="10.3452976"><ele>595.0</ele><time>2026-04-09T05:01:53.355Z</time></trkpt><trkpt lat="45.6477488" lon="10.3455099"><ele>595.0</ele><time>2026-04-09T05:01:54.355Z</time></trkpt><trkpt lat="45.6478301" lon="10.345688"><ele>595.0</ele><time>2026-04-09T05:01:55.356Z</time></trkpt><trkpt lat="45.6478994" lon="10.345813"><ele>595.0</ele><time>2026-04-09T05:01:56.355Z</time></trkpt><trkpt lat="45.6479738" lon="10.3459226"><ele>600.8</ele><time>2026-04-09T05:01:57.356Z</time></trkpt><trkpt lat="45.6480453" lon="10.3459735"><ele>606.6</ele><time>2026-04-09T05:01:58.355Z</time></trkpt><trkpt lat="45.6481312" lon="10.3459784"><ele>612.4</ele><time>2026-04-09T05:01:59.355Z</time></trkpt><trkpt lat="45.6482096" lon="10.345913"><ele>618.2</ele><time>2026-04-09T05:02:00.356Z</time></trkpt><trkpt lat="45.6482511" lon="10.3457952"><ele>624.0</ele><time>2026-04-09T05:02:01.355Z</time></trkpt><trkpt lat="45.6482228" lon="10.3456558"><ele>625.3333333333334</ele><time>2026-04-09T05:02:02.356Z</time></trkpt><trkpt lat="45.6481704" lon="10.3454414"><ele>626.6666666666667</ele><time>2026-04-09T05:02:03.355Z</time></trkpt><trkpt lat="45.6481038" lon="10.3452053"><ele>628.0</ele><time>2026-04-09T05:02:04.356Z</time></trkpt><trkpt lat="45.6480436" lon="10.3449384"><ele>632.0</ele><time>2026-04-09T05:02:05.356Z</time></trkpt><trkpt lat="45.6479833" lon="10.3446331"><ele>636.0</ele><time>2026-04-09T05:02:06.356Z</time></trkpt><trkpt lat="45.6479229" lon="10.3443243"><ele>640.0</ele><time>2026-04-09T05:02:07.356Z</time></trkpt><trkpt lat="45.6478768" lon="10.3440069"><ele>642.3333333333334</ele><time>2026-04-09T05:02:08.356Z</time></trkpt><trkpt lat="45.64784" lon="10.3436939"><ele>644.6666666666666</ele><time>2026-04-09T05:02:09.355Z</time></trkpt><trkpt lat="45.6478261" lon="10.3433869"><ele>647.0</ele><time>2026-04-09T05:02:10.355Z</time></trkpt><trkpt lat="45.6478659" lon="10.3430782"><ele>643.0</ele><time>2026-04-09T05:02:11.356Z</time></trkpt><trkpt lat="45.6479486" lon="10.3427732"><ele>639.0</ele><time>2026-04-09T05:02:12.356Z</time></trkpt><trkpt lat="45.6480503" lon="10.3424897"><ele>639.0</ele><time>2026-04-09T05:02:13.356Z</time></trkpt><trkpt lat="45.6481826" lon="10.3422241"><ele>639.0</ele><time>2026-04-09T05:02:14.356Z</time></trkpt><trkpt lat="45.6483309" lon="10.3419712"><ele>632.5</ele><time>2026-04-09T05:02:15.355Z</time></trkpt><trkpt lat="45.6484944" lon="10.3417153"><ele>626.0</ele><time>2026-04-09T05:02:16.356Z</time></trkpt><trkpt lat="45.648668" lon="10.3414672"><ele>633.5</ele><time>2026-04-09T05:02:17.356Z</time></trkpt><trkpt lat="45.6488321" lon="10.3412134"><ele>641.0</ele><time>2026-04-09T05:02:18.356Z</time></trkpt><trkpt lat="45.648995" lon="10.3409721"><ele>641.0</ele><time>2026-04-09T05:02:19.356Z</time></trkpt><trkpt lat="45.6491352" lon="10.3407465"><ele>641.0</ele><time>2026-04-09T05:02:20.356Z</time></trkpt><trkpt lat="45.6492561" lon="10.3405225"><ele>641.0</ele><time>2026-04-09T05:02:21.356Z</time></trkpt><trkpt lat="45.6493307" lon="10.3402801"><ele>640.3333333333333</ele><time>2026-04-09T05:02:22.355Z</time></trkpt><trkpt lat="45.6493716" lon="10.3400271"><ele>639.6666666666666</ele><time>2026-04-09T05:02:23.356Z</time></trkpt><trkpt lat="45.6493786" lon="10.3397653"><ele>639.0</ele><time>2026-04-09T05:02:24.355Z</time></trkpt><trkpt lat="45.6493455" lon="10.3394897"><ele>639.0</ele><time>2026-04-09T05:02:25.355Z</time></trkpt><trkpt lat="45.6492794" lon="10.3392429"><ele>639.0</ele><time>2026-04-09T05:02:26.355Z</time></trkpt><trkpt lat="45.6491779" lon="10.3390191"><ele>639.0</ele><time>2026-04-09T05:02:27.355Z</time></trkpt><trkpt lat="45.6490474" lon="10.3388403"><ele>642.0</ele><time>2026-04-09T05:02:28.356Z</time></trkpt><trkpt lat="45.6488982" lon="10.3386894"><ele>645.0</ele><time>2026-04-09T05:02:29.355Z</time></trkpt><trkpt lat="45.6487374" lon="10.3385802"><ele>648.0</ele><time>2026-04-09T05:02:30.356Z</time></trkpt><trkpt lat="45.6485564" lon="10.3384741"><ele>649.6666666666666</ele><time>2026-04-09T05:02:31.356Z</time></trkpt><trkpt lat="45.6483623" lon="10.3383737"><ele>651.3333333333333</ele><time>2026-04-09T05:02:32.356Z</time></trkpt><trkpt lat="45.6481487" lon="10.3382535"><ele>653.0</ele><time>2026-04-09T05:02:33.356Z</time></trkpt><trkpt lat="45.647938" lon="10.338103"><ele>656.0</ele><time>2026-04-09T05:02:34.356Z</time></trkpt><trkpt lat="45.6477368" lon="10.3379238"><ele>659.0</ele><time>2026-04-09T05:02:35.356Z</time></trkpt><trkpt lat="45.6475656" lon="10.3377158"><ele>659.0</ele><time>2026-04-09T05:02:36.356Z</time></trkpt><trkpt lat="45.6474099" lon="10.337478"><ele>659.0</ele><time>2026-04-09T05:02:37.355Z</time></trkpt><trkpt lat="45.6472849" lon="10.3372051"><ele>670.0</ele><time>2026-04-09T05:02:38.356Z</time></trkpt><trkpt lat="45.6471829" lon="10.3369032"><ele>681.0</ele><time>2026-04-09T05:02:39.356Z</time></trkpt><trkpt lat="45.6471117" lon="10.3365963"><ele>682.0</ele><time>2026-04-09T05:02:40.356Z</time></trkpt><trkpt lat="45.6470976" lon="10.3362747"><ele>683.0</ele><time>2026-04-09T05:02:41.356Z</time></trkpt><trkpt lat="45.6471035" lon="10.3359474"><ele>683.0</ele><time>2026-04-09T05:02:42.356Z</time></trkpt><trkpt lat="45.647131" lon="10.335609"><ele>683.0</ele><time>2026-04-09T05:02:43.356Z</time></trkpt><trkpt lat="45.6471631" lon="10.3352621"><ele>682.0</ele><time>2026-04-09T05:02:44.356Z</time></trkpt><trkpt lat="45.6471816" lon="10.3349109"><ele>681.0</ele><time>2026-04-09T05:02:45.356Z</time></trkpt><trkpt lat="45.6472034" lon="10.3345363"><ele>681.0</ele><time>2026-04-09T05:02:46.355Z</time></trkpt><trkpt lat="45.6472056" lon="10.3341631"><ele>681.0</ele><time>2026-04-09T05:02:47.355Z</time></trkpt><trkpt lat="45.6471739" lon="10.3337788"><ele>682.5</ele><time>2026-04-09T05:02:48.356Z</time></trkpt><trkpt lat="45.6471403" lon="10.3333823"><ele>684.0</ele><time>2026-04-09T05:02:49.355Z</time></trkpt><trkpt lat="45.6471156" lon="10.3329862"><ele>694.0</ele><time>2026-04-09T05:02:50.355Z</time></trkpt><trkpt lat="45.6470724" lon="10.3326093"><ele>704.0</ele><time>2026-04-09T05:02:51.355Z</time></trkpt><trkpt lat="45.6462344" lon="10.3239693"><ele>713.0</ele><time>2026-04-09T05:03:14.355Z</time></trkpt><trkpt lat="45.6463917" lon="10.3236515"><ele>722.0</ele><time>2026-04-09T05:03:15.355Z</time></trkpt><trkpt lat="45.6465082" lon="10.3233444"><ele>718.5</ele><time>2026-04-09T05:03:16.356Z</time></trkpt><trkpt lat="45.6466082" lon="10.323022"><ele>715.0</ele><time>2026-04-09T05:03:17.355Z</time></trkpt><trkpt lat="45.648447" lon="10.3173507"><ele>711.0</ele><time>2026-04-09T05:03:33.355Z</time></trkpt><trkpt lat="45.6485019" lon="10.3170731"><ele>707.0</ele><time>2026-04-09T05:03:34.356Z</time></trkpt><trkpt lat="45.6484953" lon="10.3167788"><ele>703.0</ele><time>2026-04-09T05:03:35.356Z</time></trkpt><trkpt lat="45.6484573" lon="10.3164521"><ele>694.5</ele><time>2026-04-09T05:03:36.355Z</time></trkpt><trkpt lat="45.648403" lon="10.3161268"><ele>686.0</ele><time>2026-04-09T05:03:37.355Z</time></trkpt><trkpt lat="45.6483411" lon="10.3157921"><ele>678.0</ele><time>2026-04-09T05:03:38.356Z</time></trkpt><trkpt lat="45.648268" lon="10.3154411"><ele>670.0</ele><time>2026-04-09T05:03:39.356Z</time></trkpt><trkpt lat="45.6482036" lon="10.3150689"><ele>682.0</ele><time>2026-04-09T05:03:40.355Z</time></trkpt><trkpt lat="45.6481431" lon="10.3146931"><ele>694.0</ele><time>2026-04-09T05:03:41.356Z</time></trkpt><trkpt lat="45.6480803" lon="10.3143163"><ele>694.0</ele><time>2026-04-09T05:03:42.355Z</time></trkpt><trkpt lat="45.6480191" lon="10.3139205"><ele>694.0</ele><time>2026-04-09T05:03:43.356Z</time></trkpt><trkpt lat="45.6479482" lon="10.3135304"><ele>709.5</ele><time>2026-04-09T05:03:44.356Z</time></trkpt><trkpt lat="45.647883" lon="10.3131377"><ele>725.0</ele><time>2026-04-09T05:03:45.356Z</time></trkpt><trkpt lat="45.647527" lon="10.3097517"><ele>719.5</ele><time>2026-04-09T05:03:53.355Z</time></trkpt><trkpt lat="45.6474963" lon="10.3092755"><ele>714.0</ele><time>2026-04-09T05:03:54.355Z</time></trkpt><trkpt lat="45.6474769" lon="10.3088518"><ele>707.0</ele><time>2026-04-09T05:03:55.355Z</time></trkpt><trkpt lat="45.6474339" lon="10.3084169"><ele>700.0</ele><time>2026-04-09T05:03:56.355Z</time></trkpt><trkpt lat="45.6474058" lon="10.3079823"><ele>697.0</ele><time>2026-04-09T05:03:57.355Z</time></trkpt><trkpt lat="45.6473685" lon="10.3075412"><ele>694.0</ele><time>2026-04-09T05:03:58.356Z</time></trkpt><trkpt lat="45.6473295" lon="10.307109"><ele>702.0</ele><time>2026-04-09T05:03:59.356Z</time></trkpt><trkpt lat="45.6472851" lon="10.306677"><ele>710.0</ele><time>2026-04-09T05:04:00.355Z</time></trkpt><trkpt lat="45.6472482" lon="10.3062508"><ele>716.0</ele><time>2026-04-09T05:04:01.356Z</time></trkpt><trkpt lat="45.647206" lon="10.3058308"><ele>722.0</ele><time>2026-04-09T05:04:02.356Z</time></trkpt><trkpt lat="45.6471668" lon="10.3054153"><ele>731.5</ele><time>2026-04-09T05:04:03.356Z</time></trkpt><trkpt lat="45.6471363" lon="10.3050299"><ele>741.0</ele><time>2026-04-09T05:04:04.356Z</time></trkpt><trkpt lat="45.6471174" lon="10.3046937"><ele>743.3333333333334</ele><time>2026-04-09T05:04:05.356Z</time></trkpt><trkpt lat="45.647129" lon="10.3043739"><ele>745.6666666666667</ele><time>2026-04-09T05:04:06.356Z</time></trkpt><trkpt lat="45.6471679" lon="10.3040618"><ele>748.0</ele><time>2026-04-09T05:04:07.355Z</time></trkpt><trkpt lat="45.6472375" lon="10.3037413"><ele>748.0</ele><time>2026-04-09T05:04:08.356Z</time></trkpt><trkpt lat="45.6473139" lon="10.3034217"><ele>748.0</ele><time>2026-04-09T05:04:09.356Z</time></trkpt><trkpt lat="45.6474002" lon="10.3030941"><ele>739.5</ele><time>2026-04-09T05:04:10.355Z</time></trkpt><trkpt lat="45.6474892" lon="10.3027518"><ele>731.0</ele><time>2026-04-09T05:04:11.355Z</time></trkpt><trkpt lat="45.6475828" lon="10.3023775"><ele>723.5</ele><time>2026-04-09T05:04:12.355Z</time></trkpt><trkpt lat="45.6476715" lon="10.3020209"><ele>716.0</ele><time>2026-04-09T05:04:13.355Z</time></trkpt><trkpt lat="45.6477534" lon="10.3016751"><ele>730.0</ele><time>2026-04-09T05:04:14.355Z</time></trkpt><trkpt lat="45.6478329" lon="10.3013553"><ele>744.0</ele><time>2026-04-09T05:04:15.355Z</time></trkpt><trkpt lat="45.6479133" lon="10.3010446"><ele>744.0</ele><time>2026-04-09T05:04:16.355Z</time></trkpt><trkpt lat="45.6479695" lon="10.3007437"><ele>744.0</ele><time>2026-04-09T05:04:17.356Z</time></trkpt><trkpt lat="45.6480076" lon="10.3004413"><ele>744.0</ele><time>2026-04-09T05:04:18.356Z</time></trkpt><trkpt lat="45.6480057" lon="10.300129"><ele>744.3333333333334</ele><time>2026-04-09T05:04:19.355Z</time></trkpt><trkpt lat="45.6479815" lon="10.2998202"><ele>744.6666666666667</ele><time>2026-04-09T05:04:20.356Z</time></trkpt><trkpt lat="45.647918" lon="10.2995071"><ele>745.0</ele><time>2026-04-09T05:04:21.356Z</time></trkpt><trkpt lat="45.6478584" lon="10.2991743"><ele>748.5</ele><time>2026-04-09T05:04:22.355Z</time></trkpt><trkpt lat="45.6478063" lon="10.2988474"><ele>752.0</ele><time>2026-04-09T05:04:23.356Z</time></trkpt><trkpt lat="45.6477945" lon="10.2985375"><ele>752.0</ele><time>2026-04-09T05:04:24.355Z</time></trkpt><trkpt lat="45.6478464" lon="10.2982199"><ele>752.0</ele><time>2026-04-09T05:04:25.356Z</time></trkpt><trkpt lat="45.647929" lon="10.2979128"><ele>742.5</ele><time>2026-04-09T05:04:26.355Z</time></trkpt><trkpt lat="45.6480257" lon="10.297596"><ele>733.0</ele><time>2026-04-09T05:04:27.355Z</time></trkpt><trkpt lat="45.64813" lon="10.2972593"><ele>698.0</ele><time>2026-04-09T05:04:28.355Z</time></trkpt><trkpt lat="45.6490339" lon="10.2946078"><ele>698.0</ele><time>2026-04-09T05:04:36.356Z</time></trkpt><trkpt lat="45.6491244" lon="10.2942968"><ele>698.0</ele><time>2026-04-09T05:04:37.355Z</time></trkpt><trkpt lat="45.6492239" lon="10.2939963"><ele>689.5</ele><time>2026-04-09T05:04:38.356Z</time></trkpt><trkpt lat="45.649314" lon="10.2936834"><ele>681.0</ele><time>2026-04-09T05:04:39.355Z</time></trkpt><trkpt lat="45.649415" lon="10.2933885"><ele>693.0</ele><time>2026-04-09T05:04:40.355Z</time></trkpt><trkpt lat="45.6495133" lon="10.2930777"><ele>705.0</ele><time>2026-04-09T05:04:41.355Z</time></trkpt><trkpt lat="45.6496102" lon="10.2927756"><ele>705.0</ele><time>2026-04-09T05:04:42.355Z</time></trkpt><trkpt lat="45.6497208" lon="10.2924966"><ele>705.0</ele><time>2026-04-09T05:04:43.355Z</time></trkpt><trkpt lat="45.6498414" lon="10.2922378"><ele>705.0</ele><time>2026-04-09T05:04:44.356Z</time></trkpt><trkpt lat="45.6499758" lon="10.2919885"><ele>696.6666666666666</ele><time>2026-04-09T05:04:45.356Z</time></trkpt><trkpt lat="45.6501228" lon="10.2917585"><ele>688.3333333333333</ele><time>2026-04-09T05:04:46.355Z</time></trkpt><trkpt lat="45.6502648" lon="10.2915709"><ele>680.0</ele><time>2026-04-09T05:04:47.356Z</time></trkpt><trkpt lat="45.6504063" lon="10.2914008"><ele>680.0</ele><time>2026-04-09T05:04:48.355Z</time></trkpt><trkpt lat="45.6505439" lon="10.2912342"><ele>680.0</ele><time>2026-04-09T05:04:49.356Z</time></trkpt><trkpt lat="45.650683" lon="10.2910687"><ele>680.0</ele><time>2026-04-09T05:04:50.355Z</time></trkpt><trkpt lat="45.6508111" lon="10.2909068"><ele>680.0</ele><time>2026-04-09T05:04:51.356Z</time></trkpt><trkpt lat="45.6509516" lon="10.2907465"><ele>680.0</ele><time>2026-04-09T05:04:52.355Z</time></trkpt><trkpt lat="45.651113" lon="10.2905815"><ele>680.0</ele><time>2026-04-09T05:04:53.356Z</time></trkpt><trkpt lat="45.6512702" lon="10.290419"><ele>679.6666666666666</ele><time>2026-04-09T05:04:54.355Z</time></trkpt><trkpt lat="45.6514195" lon="10.2902603"><ele>679.3333333333334</ele><time>2026-04-09T05:04:55.356Z</time></trkpt><trkpt lat="45.6515661" lon="10.2901088"><ele>679.0</ele><time>2026-04-09T05:04:56.356Z</time></trkpt><trkpt lat="45.6517051" lon="10.2899521"><ele>679.0</ele><time>2026-04-09T05:04:57.356Z</time></trkpt><trkpt lat="45.6518372" lon="10.2898031"><ele>679.0</ele><time>2026-04-09T05:04:58.355Z</time></trkpt><trkpt lat="45.6519702" lon="10.289661"><ele>679.0</ele><time>2026-04-09T05:04:59.356Z</time></trkpt><trkpt lat="45.6521015" lon="10.2895212"><ele>677.5</ele><time>2026-04-09T05:05:00.356Z</time></trkpt><trkpt lat="45.6522226" lon="10.2894089"><ele>676.0</ele><time>2026-04-09T05:05:01.355Z</time></trkpt><trkpt lat="45.6523321" lon="10.289298"><ele>674.5</ele><time>2026-04-09T05:05:02.356Z</time></trkpt><trkpt lat="45.6524198" lon="10.2891991"><ele>673.0</ele><time>2026-04-09T05:05:03.355Z</time></trkpt><trkpt lat="45.6525044" lon="10.2890976"><ele>673.0</ele><time>2026-04-09T05:05:04.356Z</time></trkpt><trkpt lat="45.6525701" lon="10.2889856"><ele>673.0</ele><time>2026-04-09T05:05:05.355Z</time></trkpt><trkpt lat="45.6526427" lon="10.288869"><ele>673.0</ele><time>2026-04-09T05:05:06.355Z</time></trkpt><trkpt lat="45.6527097" lon="10.2887385"><ele>673.0</ele><time>2026-04-09T05:05:07.356Z</time></trkpt><trkpt lat="45.6527681" lon="10.2886006"><ele>673.0</ele><time>2026-04-09T05:05:08.355Z</time></trkpt><trkpt lat="45.6528105" lon="10.2884777"><ele>678.2</ele><time>2026-04-09T05:05:09.355Z</time></trkpt><trkpt lat="45.6528524" lon="10.2883403"><ele>683.4</ele><time>2026-04-09T05:05:10.356Z</time></trkpt><trkpt lat="45.6528868" lon="10.2881997"><ele>688.6</ele><time>2026-04-09T05:05:11.355Z</time></trkpt><trkpt lat="45.6529097" lon="10.2880685"><ele>693.8000000000001</ele><time>2026-04-09T05:05:12.355Z</time></trkpt><trkpt lat="45.6529354" lon="10.2879403"><ele>699.0</ele><time>2026-04-09T05:05:13.355Z</time></trkpt><trkpt lat="45.6529564" lon="10.2878132"><ele>699.0</ele><time>2026-04-09T05:05:14.355Z</time></trkpt><trkpt lat="45.6529782" lon="10.2876753"><ele>699.0</ele><time>2026-04-09T05:05:15.355Z</time></trkpt><trkpt lat="45.6530034" lon="10.2875404"><ele>699.0</ele><time>2026-04-09T05:05:16.355Z</time></trkpt><trkpt lat="45.6530307" lon="10.2874032"><ele>699.0</ele><time>2026-04-09T05:05:17.356Z</time></trkpt><trkpt lat="45.6530589" lon="10.2872665"><ele>699.0</ele><time>2026-04-09T05:05:18.356Z</time></trkpt><trkpt lat="45.6530794" lon="10.287133"><ele>696.8000000000001</ele><time>2026-04-09T05:05:19.356Z</time></trkpt><trkpt lat="45.6531056" lon="10.2869957"><ele>694.6</ele><time>2026-04-09T05:05:20.355Z</time></trkpt><trkpt lat="45.6531341" lon="10.2868575"><ele>692.4</ele><time>2026-04-09T05:05:21.356Z</time></trkpt><trkpt lat="45.6531598" lon="10.2867104"><ele>690.2</ele><time>2026-04-09T05:05:22.355Z</time></trkpt><trkpt lat="45.6531883" lon="10.2865675"><ele>688.0</ele><time>2026-04-09T05:05:23.355Z</time></trkpt><trkpt lat="45.6532168" lon="10.2864241"><ele>686.0</ele><time>2026-04-09T05:05:24.356Z</time></trkpt><trkpt lat="45.6532444" lon="10.2862793"><ele>684.0</ele><time>2026-04-09T05:05:25.355Z</time></trkpt><trkpt lat="45.6532813" lon="10.286142"><ele>682.0</ele><time>2026-04-09T05:05:26.356Z</time></trkpt><trkpt lat="45.6533162" lon="10.2860071"><ele>680.0</ele><time>2026-04-09T05:05:27.355Z</time></trkpt><trkpt lat="45.6533699" lon="10.2858785"><ele>678.0</ele><time>2026-04-09T05:05:28.355Z</time></trkpt><trkpt lat="45.6534225" lon="10.2857574"><ele>678.0</ele><time>2026-04-09T05:05:29.355Z</time></trkpt><trkpt lat="45.6534767" lon="10.2856324"><ele>678.0</ele><time>2026-04-09T05:05:30.355Z</time></trkpt><trkpt lat="45.653539" lon="10.2855112"><ele>678.0</ele><time>2026-04-09T05:05:31.355Z</time></trkpt><trkpt lat="45.6536155" lon="10.2853994"><ele>678.0</ele><time>2026-04-09T05:05:32.356Z</time></trkpt><trkpt lat="45.6536959" lon="10.2852894"><ele>678.0</ele><time>2026-04-09T05:05:33.355Z</time></trkpt><trkpt lat="45.65377" lon="10.2851791"><ele>677.0</ele><time>2026-04-09T05:05:34.356Z</time></trkpt><trkpt lat="45.6538311" lon="10.2850772"><ele>676.0</ele><time>2026-04-09T05:05:35.356Z</time></trkpt><trkpt lat="45.6538929" lon="10.2849772"><ele>675.0</ele><time>2026-04-09T05:05:36.355Z</time></trkpt><trkpt lat="45.6539538" lon="10.2848769"><ele>674.0</ele><time>2026-04-09T05:05:37.355Z</time></trkpt><trkpt lat="45.6540173" lon="10.2847767"><ele>673.0</ele><time>2026-04-09T05:05:38.355Z</time></trkpt><trkpt lat="45.6540864" lon="10.2846862"><ele>673.0</ele><time>2026-04-09T05:05:39.356Z</time></trkpt><trkpt lat="45.6541448" lon="10.2845938"><ele>673.0</ele><time>2026-04-09T05:05:40.355Z</time></trkpt><trkpt lat="45.6542041" lon="10.2845066"><ele>673.0</ele><time>2026-04-09T05:05:41.355Z</time></trkpt><trkpt lat="45.6542533" lon="10.2844152"><ele>673.0</ele><time>2026-04-09T05:05:42.356Z</time></trkpt><trkpt lat="45.6542992" lon="10.2843147"><ele>673.0</ele><time>2026-04-09T05:05:43.355Z</time></trkpt><trkpt lat="45.6543443" lon="10.2841998"><ele>673.0</ele><time>2026-04-09T05:05:44.355Z</time></trkpt><trkpt lat="45.6543722" lon="10.284067"><ele>670.6666666666667</ele><time>2026-04-09T05:05:45.355Z</time></trkpt><trkpt lat="45.6543752" lon="10.2839001"><ele>668.3333333333334</ele><time>2026-04-09T05:05:46.355Z</time></trkpt><trkpt lat="45.6543809" lon="10.2836631"><ele>666.0</ele><time>2026-04-09T05:05:47.356Z</time></trkpt><trkpt lat="45.654374" lon="10.2833653"><ele>665.0</ele><time>2026-04-09T05:05:48.356Z</time></trkpt><trkpt lat="45.6543883" lon="10.2830781"><ele>664.0</ele><time>2026-04-09T05:05:49.356Z</time></trkpt><trkpt lat="45.6543957" lon="10.2828409"><ele>663.0</ele><time>2026-04-09T05:05:50.356Z</time></trkpt><trkpt lat="45.6543917" lon="10.2826233"><ele>663.0</ele><time>2026-04-09T05:05:51.356Z</time></trkpt><trkpt lat="45.654401" lon="10.2824306"><ele>663.0</ele><time>2026-04-09T05:05:52.355Z</time></trkpt><trkpt lat="45.6544427" lon="10.282268"><ele>663.0</ele><time>2026-04-09T05:05:53.356Z</time></trkpt><trkpt lat="45.6545004" lon="10.2821324"><ele>663.0</ele><time>2026-04-09T05:05:54.356Z</time></trkpt><trkpt lat="45.654587" lon="10.2820375"><ele>664.75</ele><time>2026-04-09T05:05:55.356Z</time></trkpt><trkpt lat="45.6547129" lon="10.2819879"><ele>666.5</ele><time>2026-04-09T05:05:56.355Z</time></trkpt><trkpt lat="45.6548371" lon="10.2819746"><ele>668.25</ele><time>2026-04-09T05:05:57.356Z</time></trkpt><trkpt lat="45.6549709" lon="10.2820027"><ele>670.0</ele><time>2026-04-09T05:05:58.356Z</time></trkpt><trkpt lat="45.6551126" lon="10.2820434"><ele>670.0</ele><time>2026-04-09T05:05:59.356Z</time></trkpt><trkpt lat="45.6552448" lon="10.2820569"><ele>670.0</ele><time>2026-04-09T05:06:00.355Z</time></trkpt><trkpt lat="45.6553757" lon="10.2820434"><ele>670.0</ele><time>2026-04-09T05:06:01.355Z</time></trkpt><trkpt lat="45.6555011" lon="10.2819889"><ele>670.0</ele><time>2026-04-09T05:06:02.355Z</time></trkpt><trkpt lat="45.6556" lon="10.2818734"><ele>674.0</ele><time>2026-04-09T05:06:03.356Z</time></trkpt><trkpt lat="45.655668" lon="10.281713"><ele>678.0</ele><time>2026-04-09T05:06:04.355Z</time></trkpt><trkpt lat="45.655686" lon="10.2815335"><ele>682.0</ele><time>2026-04-09T05:06:05.356Z</time></trkpt><trkpt lat="45.6556739" lon="10.2813381"><ele>686.0</ele><time>2026-04-09T05:06:06.355Z</time></trkpt><trkpt lat="45.6556236" lon="10.2811232"><ele>686.0</ele><time>2026-04-09T05:06:07.356Z</time></trkpt><trkpt lat="45.6555626" lon="10.2809085"><ele>686.0</ele><time>2026-04-09T05:06:08.355Z</time></trkpt><trkpt lat="45.655486" lon="10.2807026"><ele>686.0</ele><time>2026-04-09T05:06:09.355Z</time></trkpt><trkpt lat="45.6554366" lon="10.2804466"><ele>684.6666666666666</ele><time>2026-04-09T05:06:10.356Z</time></trkpt><trkpt lat="45.6554261" lon="10.2801575"><ele>683.3333333333334</ele><time>2026-04-09T05:06:11.355Z</time></trkpt><trkpt lat="45.6554254" lon="10.279861"><ele>682.0</ele><time>2026-04-09T05:06:12.355Z</time></trkpt><trkpt lat="45.6554398" lon="10.2795666"><ele>679.3333333333334</ele><time>2026-04-09T05:06:13.356Z</time></trkpt><trkpt lat="45.6554449" lon="10.2792701"><ele>676.6666666666666</ele><time>2026-04-09T05:06:14.356Z</time></trkpt><trkpt lat="45.6554449" lon="10.2789582"><ele>674.0</ele><time>2026-04-09T05:06:15.356Z</time></trkpt><trkpt lat="45.6554497" lon="10.2786313"><ele>673.3333333333333</ele><time>2026-04-09T05:06:16.356Z</time></trkpt><trkpt lat="45.6554505" lon="10.27832"><ele>672.6666666666666</ele><time>2026-04-09T05:06:17.356Z</time></trkpt><trkpt lat="45.6554429" lon="10.2780214"><ele>672.0</ele><time>2026-04-09T05:06:18.355Z</time></trkpt><trkpt lat="45.655415" lon="10.2777257"><ele>674.3333333333334</ele><time>2026-04-09T05:06:19.356Z</time></trkpt><trkpt lat="45.6553758" lon="10.2774226"><ele>676.6666666666667</ele><time>2026-04-09T05:06:20.355Z</time></trkpt><trkpt lat="45.655335" lon="10.2771283"><ele>679.0</ele><time>2026-04-09T05:06:21.356Z</time></trkpt><trkpt lat="45.6553124" lon="10.2768375"><ele>678.3333333333334</ele><time>2026-04-09T05:06:22.355Z</time></trkpt><trkpt lat="45.6553161" lon="10.2765639"><ele>677.6666666666666</ele><time>2026-04-09T05:06:23.355Z</time></trkpt><trkpt lat="45.6553459" lon="10.2762834"><ele>677.0</ele><time>2026-04-09T05:06:24.356Z</time></trkpt><trkpt lat="45.6554022" lon="10.2759956"><ele>677.0</ele><time>2026-04-09T05:06:25.356Z</time></trkpt><trkpt lat="45.6554961" lon="10.2757277"><ele>677.0</ele><time>2026-04-09T05:06:26.356Z</time></trkpt><trkpt lat="45.6555893" lon="10.2754454"><ele>677.0</ele><time>2026-04-09T05:06:27.355Z</time></trkpt><trkpt lat="45.6556824" lon="10.2751688"><ele>671.3333333333333</ele><time>2026-04-09T05:06:28.355Z</time></trkpt><trkpt lat="45.6557727" lon="10.2749128"><ele>665.6666666666666</ele><time>2026-04-09T05:06:29.356Z</time></trkpt><trkpt lat="45.6558537" lon="10.2746662"><ele>660.0</ele><time>2026-04-09T05:06:30.356Z</time></trkpt><trkpt lat="45.6559321" lon="10.2744367"><ele>658.6666666666666</ele><time>2026-04-09T05:06:31.356Z</time></trkpt><trkpt lat="45.6560095" lon="10.2742186"><ele>657.3333333333333</ele><time>2026-04-09T05:06:32.355Z</time></trkpt><trkpt lat="45.6560851" lon="10.2740083"><ele>656.0</ele><time>2026-04-09T05:06:33.355Z</time></trkpt><trkpt lat="45.6561528" lon="10.2738076"><ele>661.0</ele><time>2026-04-09T05:06:34.356Z</time></trkpt><trkpt lat="45.6562158" lon="10.2736117"><ele>666.0</ele><time>2026-04-09T05:06:35.355Z</time></trkpt><trkpt lat="45.6562772" lon="10.2734277"><ele>671.0</ele><time>2026-04-09T05:06:36.355Z</time></trkpt><trkpt lat="45.6563211" lon="10.273265"><ele>676.0</ele><time>2026-04-09T05:06:37.354Z</time></trkpt><trkpt lat="45.6563305" lon="10.2731138"><ele>674.4</ele><time>2026-04-09T05:06:38.354Z</time></trkpt><trkpt lat="45.6562972" lon="10.2729871"><ele>672.8</ele><time>2026-04-09T05:06:39.355Z</time></trkpt><trkpt lat="45.6562028" lon="10.2728875"><ele>671.1999999999999</ele><time>2026-04-09T05:06:40.355Z</time></trkpt><trkpt lat="45.6560965" lon="10.2728262"><ele>669.5999999999999</ele><time>2026-04-09T05:06:41.355Z</time></trkpt><trkpt lat="45.6559809" lon="10.2728316"><ele>668.0</ele><time>2026-04-09T05:06:42.355Z</time></trkpt><trkpt lat="45.6558986" lon="10.2729221"><ele>663.5</ele><time>2026-04-09T05:06:43.354Z</time></trkpt><trkpt lat="45.6558242" lon="10.2730477"><ele>659.0</ele><time>2026-04-09T05:06:44.354Z</time></trkpt><trkpt lat="45.6557521" lon="10.2732269"><ele>654.5</ele><time>2026-04-09T05:06:45.354Z</time></trkpt><trkpt lat="45.6556768" lon="10.2734252"><ele>650.0</ele><time>2026-04-09T05:06:46.354Z</time></trkpt><trkpt lat="45.6555988" lon="10.2736291"><ele>650.0</ele><time>2026-04-09T05:06:47.355Z</time></trkpt><trkpt lat="45.655507" lon="10.2738285"><ele>650.0</ele><time>2026-04-09T05:06:48.355Z</time></trkpt><trkpt lat="45.655415" lon="10.2740337"><ele>650.0</ele><time>2026-04-09T05:06:49.354Z</time></trkpt><trkpt lat="45.6553235" lon="10.2742378"><ele>648.0</ele><time>2026-04-09T05:06:50.354Z</time></trkpt><trkpt lat="45.6552285" lon="10.274443"><ele>646.0</ele><time>2026-04-09T05:06:51.354Z</time></trkpt><trkpt lat="45.6551388" lon="10.2746465"><ele>644.0</ele><time>2026-04-09T05:06:52.355Z</time></trkpt><trkpt lat="45.655055" lon="10.2748336"><ele>644.0</ele><time>2026-04-09T05:06:53.354Z</time></trkpt><trkpt lat="45.6549713" lon="10.2749987"><ele>644.0</ele><time>2026-04-09T05:06:54.354Z</time></trkpt><trkpt lat="45.6549006" lon="10.2751617"><ele>644.0</ele><time>2026-04-09T05:06:55.354Z</time></trkpt><trkpt lat="45.6548599" lon="10.2753171"><ele>644.0</ele><time>2026-04-09T05:06:56.354Z</time></trkpt><trkpt lat="45.6548429" lon="10.2754759"><ele>644.0</ele><time>2026-04-09T05:06:57.355Z</time></trkpt><trkpt lat="45.6548562" lon="10.2756325"><ele>644.0</ele><time>2026-04-09T05:06:58.354Z</time></trkpt><trkpt lat="45.6548775" lon="10.2757699"><ele>644.0</ele><time>2026-04-09T05:06:59.354Z</time></trkpt><trkpt lat="45.6549051" lon="10.2759105"><ele>644.0</ele><time>2026-04-09T05:07:00.354Z</time></trkpt><trkpt lat="45.6549194" lon="10.276035"><ele>644.0</ele><time>2026-04-09T05:07:01.354Z</time></trkpt><trkpt lat="45.6549233" lon="10.2761563"><ele>644.0</ele><time>2026-04-09T05:07:02.354Z</time></trkpt><trkpt lat="45.6548949" lon="10.2762798"><ele>644.0</ele><time>2026-04-09T05:07:03.354Z</time></trkpt><trkpt lat="45.6548358" lon="10.276355"><ele>644.0</ele><time>2026-04-09T05:07:04.354Z</time></trkpt><trkpt lat="45.6547624" lon="10.2763722"><ele>644.0</ele><time>2026-04-09T05:07:05.355Z</time></trkpt><trkpt lat="45.6546919" lon="10.2763377"><ele>644.0</ele><time>2026-04-09T05:07:06.354Z</time></trkpt><trkpt lat="45.6546437" lon="10.2762351"><ele>644.0</ele><time>2026-04-09T05:07:07.354Z</time></trkpt><trkpt lat="45.6546575" lon="10.276105"><ele>644.0</ele><time>2026-04-09T05:07:08.354Z</time></trkpt><trkpt lat="45.6546866" lon="10.2759444"><ele>644.0</ele><time>2026-04-09T05:07:09.355Z</time></trkpt><trkpt lat="45.6547127" lon="10.2757616"><ele>644.0</ele><time>2026-04-09T05:07:10.354Z</time></trkpt><trkpt lat="45.6547201" lon="10.2755376"><ele>644.0</ele><time>2026-04-09T05:07:11.355Z</time></trkpt><trkpt lat="45.6547181" lon="10.2753101"><ele>644.0</ele><time>2026-04-09T05:07:12.354Z</time></trkpt><trkpt lat="45.6547222" lon="10.2750799"><ele>644.0</ele><time>2026-04-09T05:07:13.355Z</time></trkpt><trkpt lat="45.6547188" lon="10.2748704"><ele>644.0</ele><time>2026-04-09T05:07:14.354Z</time></trkpt><trkpt lat="45.6547139" lon="10.2746697"><ele>644.0</ele><time>2026-04-09T05:07:15.355Z</time></trkpt><trkpt lat="45.6547118" lon="10.2744784"><ele>642.25</ele><time>2026-04-09T05:07:16.355Z</time></trkpt><trkpt lat="45.6547126" lon="10.2743095"><ele>640.5</ele><time>2026-04-09T05:07:17.354Z</time></trkpt><trkpt lat="45.6547106" lon="10.2741378"><ele>638.75</ele><time>2026-04-09T05:07:18.354Z</time></trkpt><trkpt lat="45.6546981" lon="10.273966"><ele>637.0</ele><time>2026-04-09T05:07:19.354Z</time></trkpt><trkpt lat="45.6546918" lon="10.2738146"><ele>635.75</ele><time>2026-04-09T05:07:20.355Z</time></trkpt><trkpt lat="45.6546875" lon="10.2736481"><ele>634.5</ele><time>2026-04-09T05:07:21.355Z</time></trkpt><trkpt lat="45.6546859" lon="10.2734813"><ele>633.25</ele><time>2026-04-09T05:07:22.354Z</time></trkpt><trkpt lat="45.6546934" lon="10.2733116"><ele>632.0</ele><time>2026-04-09T05:07:23.355Z</time></trkpt><trkpt lat="45.6547119" lon="10.2731372"><ele>630.5</ele><time>2026-04-09T05:07:24.354Z</time></trkpt><trkpt lat="45.6547504" lon="10.2729594"><ele>629.0</ele><time>2026-04-09T05:07:25.355Z</time></trkpt><trkpt lat="45.6547925" lon="10.2727878"><ele>627.5</ele><time>2026-04-09T05:07:26.354Z</time></trkpt><trkpt lat="45.6548335" lon="10.2726408"><ele>626.0</ele><time>2026-04-09T05:07:27.354Z</time></trkpt><trkpt lat="45.6548752" lon="10.2724947"><ele>626.0</ele><time>2026-04-09T05:07:28.355Z</time></trkpt><trkpt lat="45.6549113" lon="10.272353"><ele>626.0</ele><time>2026-04-09T05:07:29.355Z</time></trkpt><trkpt lat="45.6549528" lon="10.2722113"><ele>626.0</ele><time>2026-04-09T05:07:30.354Z</time></trkpt><trkpt lat="45.6549871" lon="10.2720782"><ele>626.0</ele><time>2026-04-09T05:07:31.354Z</time></trkpt><trkpt lat="45.6549872" lon="10.2719504"><ele>626.0</ele><time>2026-04-09T05:07:32.354Z</time></trkpt><trkpt lat="45.6549516" lon="10.2718302"><ele>625.6666666666666</ele><time>2026-04-09T05:07:33.355Z</time></trkpt><trkpt lat="45.654877" lon="10.271771"><ele>625.3333333333333</ele><time>2026-04-09T05:07:34.355Z</time></trkpt><trkpt lat="45.6547941" lon="10.2717376"><ele>625.0</ele><time>2026-04-09T05:07:35.354Z</time></trkpt><trkpt lat="45.6547084" lon="10.2717686"><ele>624.6666666666666</ele><time>2026-04-09T05:07:36.354Z</time></trkpt><trkpt lat="45.6546373" lon="10.2718431"><ele>624.3333333333334</ele><time>2026-04-09T05:07:37.355Z</time></trkpt><trkpt lat="45.6545677" lon="10.2719454"><ele>624.0</ele><time>2026-04-09T05:07:38.355Z</time></trkpt><trkpt lat="45.6544986" lon="10.2720591"><ele>621.2</ele><time>2026-04-09T05:07:39.355Z</time></trkpt><trkpt lat="45.6544271" lon="10.2721723"><ele>618.4</ele><time>2026-04-09T05:07:40.355Z</time></trkpt><trkpt lat="45.6543502" lon="10.272287"><ele>615.6</ele><time>2026-04-09T05:07:41.354Z</time></trkpt><trkpt lat="45.6542753" lon="10.2724115"><ele>612.8</ele><time>2026-04-09T05:07:42.355Z</time></trkpt><trkpt lat="45.6542004" lon="10.2725345"><ele>610.0</ele><time>2026-04-09T05:07:43.355Z</time></trkpt><trkpt lat="45.6541283" lon="10.2726605"><ele>610.0</ele><time>2026-04-09T05:07:44.355Z</time></trkpt><trkpt lat="45.6540595" lon="10.27279"><ele>610.0</ele><time>2026-04-09T05:07:45.355Z</time></trkpt><trkpt lat="45.6540021" lon="10.2729268"><ele>610.0</ele><time>2026-04-09T05:07:46.355Z</time></trkpt><trkpt lat="45.6539482" lon="10.2730788"><ele>610.0</ele><time>2026-04-09T05:07:47.355Z</time></trkpt><trkpt lat="45.6539072" lon="10.2732382"><ele>611.0</ele><time>2026-04-09T05:07:48.354Z</time></trkpt><trkpt lat="45.6538705" lon="10.2733974"><ele>612.0</ele><time>2026-04-09T05:07:49.355Z</time></trkpt><trkpt lat="45.653838" lon="10.273549"><ele>613.0</ele><time>2026-04-09T05:07:50.354Z</time></trkpt><trkpt lat="45.6538063" lon="10.2736939"><ele>614.0</ele><time>2026-04-09T05:07:51.355Z</time></trkpt><trkpt lat="45.6537993" lon="10.2738199"><ele>615.0</ele><time>2026-04-09T05:07:52.355Z</time></trkpt><trkpt lat="45.65376" lon="10.2739643"><ele>615.6</ele><time>2026-04-09T05:07:53.354Z</time></trkpt><trkpt lat="45.6537295" lon="10.274124"><ele>616.2</ele><time>2026-04-09T05:07:54.354Z</time></trkpt><trkpt lat="45.6537073" lon="10.2742791"><ele>616.8</ele><time>2026-04-09T05:07:55.354Z</time></trkpt><trkpt lat="45.6536723" lon="10.2744329"><ele>617.4</ele><time>2026-04-09T05:07:56.355Z</time></trkpt><trkpt lat="45.6536417" lon="10.2745797"><ele>618.0</ele><time>2026-04-09T05:07:57.355Z</time></trkpt><trkpt lat="45.6536178" lon="10.2747272"><ele>617.8</ele><time>2026-04-09T05:07:58.355Z</time></trkpt><trkpt lat="45.6535986" lon="10.2748664"><ele>617.5999999999999</ele><time>2026-04-09T05:07:59.355Z</time></trkpt><trkpt lat="45.6535965" lon="10.2750045"><ele>617.4000000000001</ele><time>2026-04-09T05:08:00.355Z</time></trkpt><trkpt lat="45.6536101" lon="10.2751209"><ele>617.2</ele><time>2026-04-09T05:08:01.355Z</time></trkpt><trkpt lat="45.6536208" lon="10.2752448"><ele>617.0</ele><time>2026-04-09T05:08:02.354Z</time></trkpt><trkpt lat="45.6536332" lon="10.2753685"><ele>617.0</ele><time>2026-04-09T05:08:03.355Z</time></trkpt><trkpt lat="45.6536467" lon="10.2754904"><ele>617.0</ele><time>2026-04-09T05:08:04.354Z</time></trkpt><trkpt lat="45.6536545" lon="10.2756151"><ele>617.0</ele><time>2026-04-09T05:08:05.355Z</time></trkpt><trkpt lat="45.6536611" lon="10.2757416"><ele>617.0</ele><time>2026-04-09T05:08:06.355Z</time></trkpt><trkpt lat="45.6536532" lon="10.2758574"><ele>617.0</ele><time>2026-04-09T05:08:07.355Z</time></trkpt><trkpt lat="45.6536211" lon="10.2759693"><ele>617.0</ele><time>2026-04-09T05:08:08.354Z</time></trkpt><trkpt lat="45.6535624" lon="10.2760648"><ele>613.0</ele><time>2026-04-09T05:08:09.354Z</time></trkpt><trkpt lat="45.6534786" lon="10.2761003"><ele>609.0</ele><time>2026-04-09T05:08:10.355Z</time></trkpt><trkpt lat="45.653381" lon="10.2761155"><ele>605.0</ele><time>2026-04-09T05:08:11.354Z</time></trkpt><trkpt lat="45.6532936" lon="10.2760706"><ele>601.0</ele><time>2026-04-09T05:08:12.355Z</time></trkpt><trkpt lat="45.6532334" lon="10.2759643"><ele>597.0</ele><time>2026-04-09T05:08:13.355Z</time></trkpt><trkpt lat="45.6532002" lon="10.2758669"><ele>597.0</ele><time>2026-04-09T05:08:14.355Z</time></trkpt><trkpt lat="45.6531886" lon="10.2757325"><ele>597.0</ele><time>2026-04-09T05:08:15.355Z</time></trkpt><trkpt lat="45.6531878" lon="10.27561"><ele>597.0</ele><time>2026-04-09T05:08:16.355Z</time></trkpt><trkpt lat="45.6531852" lon="10.2754709"><ele>597.0</ele><time>2026-04-09T05:08:17.354Z</time></trkpt><trkpt lat="45.6531698" lon="10.2753372"><ele>597.0</ele><time>2026-04-09T05:08:18.355Z</time></trkpt><trkpt lat="45.6531565" lon="10.2752074"><ele>597.0</ele><time>2026-04-09T05:08:19.354Z</time></trkpt><trkpt lat="45.6531451" lon="10.2750858"><ele>597.0</ele><time>2026-04-09T05:08:20.354Z</time></trkpt><trkpt lat="45.653126" lon="10.2749766"><ele>597.0</ele><time>2026-04-09T05:08:21.355Z</time></trkpt><trkpt lat="45.6531144" lon="10.2748863"><ele>597.0</ele><time>2026-04-09T05:08:22.355Z</time></trkpt><trkpt lat="45.6530672" lon="10.2747349"><ele>597.0</ele><time>2026-04-09T05:08:24.355Z</time></trkpt><trkpt lat="45.6529695" lon="10.2746882"><ele>597.0</ele><time>2026-04-09T05:08:26.354Z</time></trkpt><trkpt lat="45.6528851" lon="10.2748321"><ele>596.8333333333334</ele><time>2026-04-09T05:08:28.354Z</time></trkpt><trkpt lat="45.6528702" lon="10.2749201"><ele>596.6666666666666</ele><time>2026-04-09T05:08:29.355Z</time></trkpt><trkpt lat="45.652876" lon="10.2750224"><ele>596.5</ele><time>2026-04-09T05:08:30.355Z</time></trkpt><trkpt lat="45.6528643" lon="10.2751238"><ele>596.3333333333333</ele><time>2026-04-09T05:08:31.354Z</time></trkpt><trkpt lat="45.6528491" lon="10.2752425"><ele>596.1666666666666</ele><time>2026-04-09T05:08:32.354Z</time></trkpt><trkpt lat="45.6528246" lon="10.2753663"><ele>596.0</ele><time>2026-04-09T05:08:33.355Z</time></trkpt><trkpt lat="45.6528158" lon="10.2754984"><ele>596.1666666666666</ele><time>2026-04-09T05:08:34.355Z</time></trkpt><trkpt lat="45.6528017" lon="10.2756297"><ele>596.3333333333333</ele><time>2026-04-09T05:08:35.355Z</time></trkpt><trkpt lat="45.652792" lon="10.2757579"><ele>596.5</ele><time>2026-04-09T05:08:36.354Z</time></trkpt><trkpt lat="45.6527773" lon="10.2758853"><ele>596.6666666666666</ele><time>2026-04-09T05:08:37.355Z</time></trkpt><trkpt lat="45.6527687" lon="10.2760056"><ele>596.8333333333334</ele><time>2026-04-09T05:08:38.355Z</time></trkpt><trkpt lat="45.6527432" lon="10.2761073"><ele>597.0</ele><time>2026-04-09T05:08:39.355Z</time></trkpt><trkpt lat="45.652689" lon="10.2761694"><ele>594.3333333333334</ele><time>2026-04-09T05:08:40.355Z</time></trkpt><trkpt lat="45.6526184" lon="10.2762217"><ele>591.6666666666666</ele><time>2026-04-09T05:08:41.355Z</time></trkpt><trkpt lat="45.6525361" lon="10.2762224"><ele>589.0</ele><time>2026-04-09T05:08:42.354Z</time></trkpt><trkpt lat="45.6524695" lon="10.2761758"><ele>586.3333333333333</ele><time>2026-04-09T05:08:43.355Z</time></trkpt><trkpt lat="45.6524177" lon="10.2760948"><ele>583.6666666666666</ele><time>2026-04-09T05:08:44.355Z</time></trkpt><trkpt lat="45.6523895" lon="10.275993"><ele>581.0</ele><time>2026-04-09T05:08:45.354Z</time></trkpt><trkpt lat="45.6523782" lon="10.275873"><ele>581.0</ele><time>2026-04-09T05:08:46.355Z</time></trkpt><trkpt lat="45.6523777" lon="10.2756859"><ele>581.0</ele><time>2026-04-09T05:08:47.355Z</time></trkpt><trkpt lat="45.6523789" lon="10.2755209"><ele>581.0</ele><time>2026-04-09T05:08:48.354Z</time></trkpt><trkpt lat="45.6523577" lon="10.2753655"><ele>581.0</ele><time>2026-04-09T05:08:49.355Z</time></trkpt><trkpt lat="45.6523396" lon="10.2752047"><ele>580.2</ele><time>2026-04-09T05:08:50.354Z</time></trkpt><trkpt lat="45.6523217" lon="10.2750637"><ele>579.4000000000001</ele><time>2026-04-09T05:08:51.354Z</time></trkpt><trkpt lat="45.6523157" lon="10.2749037"><ele>578.6</ele><time>2026-04-09T05:08:52.355Z</time></trkpt><trkpt lat="45.6522916" lon="10.2747693"><ele>577.8000000000001</ele><time>2026-04-09T05:08:53.354Z</time></trkpt><trkpt lat="45.6522708" lon="10.2746412"><ele>577.0</ele><time>2026-04-09T05:08:54.355Z</time></trkpt><trkpt lat="45.6522494" lon="10.2745307"><ele>576.4</ele><time>2026-04-09T05:08:55.355Z</time></trkpt><trkpt lat="45.6522269" lon="10.2744327"><ele>575.8000000000001</ele><time>2026-04-09T05:08:56.354Z</time></trkpt><trkpt lat="45.6521661" lon="10.274288"><ele>575.2</ele><time>2026-04-09T05:08:58.355Z</time></trkpt><trkpt lat="45.6521045" lon="10.2742302"><ele>574.6</ele><time>2026-04-09T05:08:59.355Z</time></trkpt><trkpt lat="45.6520459" lon="10.2741772"><ele>574.0</ele><time>2026-04-09T05:09:00.354Z</time></trkpt><trkpt lat="45.6519597" lon="10.274038"><ele>571.2</ele><time>2026-04-09T05:09:02.354Z</time></trkpt><trkpt lat="45.6519382" lon="10.273909"><ele>568.4</ele><time>2026-04-09T05:09:03.354Z</time></trkpt><trkpt lat="45.6519296" lon="10.2737847"><ele>565.6</ele><time>2026-04-09T05:09:04.355Z</time></trkpt><trkpt lat="45.6519141" lon="10.2736343"><ele>562.8</ele><time>2026-04-09T05:09:05.355Z</time></trkpt><trkpt lat="45.6518995" lon="10.2734788"><ele>560.0</ele><time>2026-04-09T05:09:06.354Z</time></trkpt><trkpt lat="45.6518756" lon="10.2733243"><ele>560.0</ele><time>2026-04-09T05:09:07.355Z</time></trkpt><trkpt lat="45.6518519" lon="10.2731666"><ele>560.0</ele><time>2026-04-09T05:09:08.354Z</time></trkpt><trkpt lat="45.6518295" lon="10.2730259"><ele>560.0</ele><time>2026-04-09T05:09:09.354Z</time></trkpt><trkpt lat="45.6518158" lon="10.2729003"><ele>560.0</ele><time>2026-04-09T05:09:10.355Z</time></trkpt><trkpt lat="45.6517986" lon="10.2727982"><ele>560.0</ele><time>2026-04-09T05:09:11.355Z</time></trkpt><trkpt lat="45.6517609" lon="10.2727247"><ele>560.0</ele><time>2026-04-09T05:09:12.354Z</time></trkpt><trkpt lat="45.6516907" lon="10.2727059"><ele>560.0</ele><time>2026-04-09T05:09:13.355Z</time></trkpt><trkpt lat="45.6516283" lon="10.2727568"><ele>560.0</ele><time>2026-04-09T05:09:14.355Z</time></trkpt><trkpt lat="45.6515455" lon="10.2729236"><ele>560.0</ele><time>2026-04-09T05:09:16.355Z</time></trkpt><trkpt lat="45.6515098" lon="10.273063"><ele>560.0</ele><time>2026-04-09T05:09:17.355Z</time></trkpt><trkpt lat="45.651476" lon="10.2731897"><ele>560.0</ele><time>2026-04-09T05:09:18.354Z</time></trkpt><trkpt lat="45.651444" lon="10.2733171"><ele>560.0</ele><time>2026-04-09T05:09:19.355Z</time></trkpt><trkpt lat="45.6514111" lon="10.273437"><ele>560.0</ele><time>2026-04-09T05:09:20.355Z</time></trkpt><trkpt lat="45.6513721" lon="10.273545"><ele>560.0</ele><time>2026-04-09T05:09:21.354Z</time></trkpt><trkpt lat="45.6513152" lon="10.2735908"><ele>560.0</ele><time>2026-04-09T05:09:22.355Z</time></trkpt><trkpt lat="45.651251" lon="10.2735677"><ele>560.0</ele><time>2026-04-09T05:09:23.355Z</time></trkpt><trkpt lat="45.6511754" lon="10.273436"><ele>560.0</ele><time>2026-04-09T05:09:25.355Z</time></trkpt><trkpt lat="45.6511682" lon="10.2733126"><ele>560.0</ele><time>2026-04-09T05:09:26.355Z</time></trkpt><trkpt lat="45.6511641" lon="10.2731416"><ele>560.0</ele><time>2026-04-09T05:09:27.354Z</time></trkpt><trkpt lat="45.6511541" lon="10.272933"><ele>560.0</ele><time>2026-04-09T05:09:28.354Z</time></trkpt><trkpt lat="45.6511349" lon="10.2727573"><ele>560.0</ele><time>2026-04-09T05:09:29.355Z</time></trkpt><trkpt lat="45.6511128" lon="10.2725988"><ele>556.8</ele><time>2026-04-09T05:09:30.355Z</time></trkpt><trkpt lat="45.6510991" lon="10.2724572"><ele>553.6</ele><time>2026-04-09T05:09:31.354Z</time></trkpt><trkpt lat="45.6510855" lon="10.2723567"><ele>550.4</ele><time>2026-04-09T05:09:32.354Z</time></trkpt><trkpt lat="45.6510565" lon="10.2722584"><ele>547.2</ele><time>2026-04-09T05:09:34.354Z</time></trkpt><trkpt lat="45.6509294" lon="10.2722543"><ele>544.0</ele><time>2026-04-09T05:09:36.355Z</time></trkpt><trkpt lat="45.6508249" lon="10.2722952"><ele>544.0</ele><time>2026-04-09T05:09:37.354Z</time></trkpt><trkpt lat="45.6507092" lon="10.2723241"><ele>544.0</ele><time>2026-04-09T05:09:38.355Z</time></trkpt><trkpt lat="45.6506025" lon="10.2723433"><ele>544.0</ele><time>2026-04-09T05:09:39.355Z</time></trkpt><trkpt lat="45.6504962" lon="10.2723513"><ele>544.0</ele><time>2026-04-09T05:09:40.355Z</time></trkpt><trkpt lat="45.650383" lon="10.2723484"><ele>544.0</ele><time>2026-04-09T05:09:41.354Z</time></trkpt><trkpt lat="45.65026" lon="10.2722804"><ele>540.6</ele><time>2026-04-09T05:09:42.354Z</time></trkpt><trkpt lat="45.6501468" lon="10.272202"><ele>537.2</ele><time>2026-04-09T05:09:43.354Z</time></trkpt><trkpt lat="45.6500405" lon="10.2721521"><ele>533.8000000000001</ele><time>2026-04-09T05:09:44.355Z</time></trkpt><trkpt lat="45.6499463" lon="10.2721139"><ele>530.4</ele><time>2026-04-09T05:09:45.355Z</time></trkpt><trkpt lat="45.6498653" lon="10.2720619"><ele>527.0</ele><time>2026-04-09T05:09:46.354Z</time></trkpt><trkpt lat="45.6497937" lon="10.2720306"><ele>527.0</ele><time>2026-04-09T05:09:47.355Z</time></trkpt><trkpt lat="45.6496938" lon="10.2719736"><ele>527.0</ele><time>2026-04-09T05:09:49.355Z</time></trkpt><trkpt lat="45.6496139" lon="10.2719368"><ele>527.0</ele><time>2026-04-09T05:09:51.355Z</time></trkpt><trkpt lat="45.649561" lon="10.2717559"><ele>527.0</ele><time>2026-04-09T05:09:54.354Z</time></trkpt><trkpt lat="45.6495392" lon="10.2716087"><ele>527.0</ele><time>2026-04-09T05:09:55.354Z</time></trkpt><trkpt lat="45.6495349" lon="10.2714877"><ele>526.75</ele><time>2026-04-09T05:09:56.355Z</time></trkpt><trkpt lat="45.6495251" lon="10.2713309"><ele>526.5</ele><time>2026-04-09T05:09:57.355Z</time></trkpt><trkpt lat="45.6495361" lon="10.2711411"><ele>526.25</ele><time>2026-04-09T05:09:58.354Z</time></trkpt><trkpt lat="45.6495436" lon="10.2709465"><ele>526.0</ele><time>2026-04-09T05:09:59.355Z</time></trkpt><trkpt lat="45.6495542" lon="10.2707477"><ele>525.0</ele><time>2026-04-09T05:10:00.354Z</time></trkpt><trkpt lat="45.6495745" lon="10.2705646"><ele>524.0</ele><time>2026-04-09T05:10:01.354Z</time></trkpt><trkpt lat="45.6495842" lon="10.2703631"><ele>523.0</ele><time>2026-04-09T05:10:02.354Z</time></trkpt><trkpt lat="45.6495954" lon="10.2701639"><ele>522.0</ele><time>2026-04-09T05:10:03.355Z</time></trkpt><trkpt lat="45.6496221" lon="10.2699806"><ele>522.0</ele><time>2026-04-09T05:10:04.355Z</time></trkpt><trkpt lat="45.6496337" lon="10.2697926"><ele>522.0</ele><time>2026-04-09T05:10:05.355Z</time></trkpt><trkpt lat="45.6496712" lon="10.2696113"><ele>522.0</ele><time>2026-04-09T05:10:06.355Z</time></trkpt><trkpt lat="45.6496982" lon="10.2694429"><ele>522.0</ele><time>2026-04-09T05:10:07.355Z</time></trkpt><trkpt lat="45.6497188" lon="10.2692765"><ele>520.2</ele><time>2026-04-09T05:10:08.354Z</time></trkpt><trkpt lat="45.6497327" lon="10.2691065"><ele>518.4000000000001</ele><time>2026-04-09T05:10:09.355Z</time></trkpt><trkpt lat="45.6497417" lon="10.2689494"><ele>516.5999999999999</ele><time>2026-04-09T05:10:10.355Z</time></trkpt><trkpt lat="45.6497534" lon="10.2687969"><ele>514.8</ele><time>2026-04-09T05:10:11.354Z</time></trkpt><trkpt lat="45.6497617" lon="10.2686435"><ele>513.0</ele><time>2026-04-09T05:10:12.354Z</time></trkpt><trkpt lat="45.6497824" lon="10.2684917"><ele>512.1999999999999</ele><time>2026-04-09T05:10:13.354Z</time></trkpt><trkpt lat="45.6498013" lon="10.2683438"><ele>511.4</ele><time>2026-04-09T05:10:14.355Z</time></trkpt><trkpt lat="45.649815" lon="10.268194"><ele>510.59999999999997</ele><time>2026-04-09T05:10:15.355Z</time></trkpt><trkpt lat="45.6498356" lon="10.2680461"><ele>509.79999999999995</ele><time>2026-04-09T05:10:16.355Z</time></trkpt><trkpt lat="45.6498549" lon="10.2679047"><ele>509.0</ele><time>2026-04-09T05:10:17.354Z</time></trkpt><trkpt lat="45.6498714" lon="10.2677554"><ele>508.4</ele><time>2026-04-09T05:10:18.354Z</time></trkpt><trkpt lat="45.6498859" lon="10.2676083"><ele>507.79999999999995</ele><time>2026-04-09T05:10:19.355Z</time></trkpt><trkpt lat="45.6498967" lon="10.26746"><ele>507.20000000000005</ele><time>2026-04-09T05:10:20.354Z</time></trkpt><trkpt lat="45.6499087" lon="10.2673229"><ele>506.6</ele><time>2026-04-09T05:10:21.355Z</time></trkpt><trkpt lat="45.6499316" lon="10.2671834"><ele>506.0</ele><time>2026-04-09T05:10:22.354Z</time></trkpt><trkpt lat="45.6499427" lon="10.267055"><ele>504.8333333333333</ele><time>2026-04-09T05:10:23.354Z</time></trkpt><trkpt lat="45.6499533" lon="10.2669297"><ele>503.66666666666663</ele><time>2026-04-09T05:10:24.354Z</time></trkpt><trkpt lat="45.6499827" lon="10.2668142"><ele>502.5</ele><time>2026-04-09T05:10:25.354Z</time></trkpt><trkpt lat="45.6500218" lon="10.266707"><ele>501.33333333333337</ele><time>2026-04-09T05:10:26.355Z</time></trkpt><trkpt lat="45.650072" lon="10.2666286"><ele>500.1666666666667</ele><time>2026-04-09T05:10:27.355Z</time></trkpt><trkpt lat="45.6501283" lon="10.2665646"><ele>499.0</ele><time>2026-04-09T05:10:28.354Z</time></trkpt><trkpt lat="45.6501596" lon="10.2664757"><ele>499.0</ele><time>2026-04-09T05:10:29.354Z</time></trkpt><trkpt lat="45.6501603" lon="10.2663848"><ele>499.0</ele><time>2026-04-09T05:10:30.354Z</time></trkpt><trkpt lat="45.6500666" lon="10.2662792"><ele>499.0</ele><time>2026-04-09T05:10:32.354Z</time></trkpt><trkpt lat="45.6499508" lon="10.2663198"><ele>499.0</ele><time>2026-04-09T05:10:34.354Z</time></trkpt><trkpt lat="45.6498883" lon="10.2663945"><ele>499.0</ele><time>2026-04-09T05:10:35.355Z</time></trkpt><trkpt lat="45.6498246" lon="10.2664598"><ele>499.00000000000006</ele><time>2026-04-09T05:10:36.355Z</time></trkpt><trkpt lat="45.6497559" lon="10.2665227"><ele>499.0</ele><time>2026-04-09T05:10:37.355Z</time></trkpt><trkpt lat="45.6496793" lon="10.2665932"><ele>499.0</ele><time>2026-04-09T05:10:38.354Z</time></trkpt><trkpt lat="45.6495931" lon="10.2666683"><ele>499.0</ele><time>2026-04-09T05:10:39.355Z</time></trkpt><trkpt lat="45.6495197" lon="10.2667534"><ele>499.00000000000006</ele><time>2026-04-09T05:10:40.355Z</time></trkpt><trkpt lat="45.6494803" lon="10.266855"><ele>499.0</ele><time>2026-04-09T05:10:41.355Z</time></trkpt><trkpt lat="45.6494319" lon="10.2669645"><ele>498.00000000000006</ele><time>2026-04-09T05:10:42.355Z</time></trkpt><trkpt lat="45.6493924" lon="10.2670742"><ele>497.0</ele><time>2026-04-09T05:10:43.354Z</time></trkpt><trkpt lat="45.6493522" lon="10.2671799"><ele>496.0</ele><time>2026-04-09T05:10:44.355Z</time></trkpt><trkpt lat="45.6493121" lon="10.2672904"><ele>495.0</ele><time>2026-04-09T05:10:45.355Z</time></trkpt><trkpt lat="45.6492659" lon="10.2674022"><ele>494.00000000000006</ele><time>2026-04-09T05:10:46.355Z</time></trkpt><trkpt lat="45.6492245" lon="10.2675085"><ele>493.0</ele><time>2026-04-09T05:10:47.355Z</time></trkpt><trkpt lat="45.6491793" lon="10.2676044"><ele>493.00000000000006</ele><time>2026-04-09T05:10:48.355Z</time></trkpt><trkpt lat="45.6491196" lon="10.2677088"><ele>493.0</ele><time>2026-04-09T05:10:49.355Z</time></trkpt><trkpt lat="45.6490569" lon="10.267794"><ele>493.0</ele><time>2026-04-09T05:10:50.354Z</time></trkpt><trkpt lat="45.6489972" lon="10.2678851"><ele>493.0</ele><time>2026-04-09T05:10:51.354Z</time></trkpt><trkpt lat="45.648926" lon="10.2679733"><ele>493.00000000000006</ele><time>2026-04-09T05:10:52.355Z</time></trkpt><trkpt lat="45.648858" lon="10.2680472"><ele>493.0</ele><time>2026-04-09T05:10:53.354Z</time></trkpt><trkpt lat="45.6487842" lon="10.2681078"><ele>492.33333333333337</ele><time>2026-04-09T05:10:54.355Z</time></trkpt><trkpt lat="45.6487176" lon="10.2681792"><ele>491.6666666666667</ele><time>2026-04-09T05:10:55.355Z</time></trkpt><trkpt lat="45.6486573" lon="10.2682418"><ele>491.0</ele><time>2026-04-09T05:10:56.354Z</time></trkpt><trkpt lat="45.6485838" lon="10.2682955"><ele>490.33333333333337</ele><time>2026-04-09T05:10:57.355Z</time></trkpt><trkpt lat="45.6485257" lon="10.2683404"><ele>489.6666666666667</ele><time>2026-04-09T05:10:58.355Z</time></trkpt><trkpt lat="45.6484568" lon="10.2683999"><ele>489.0</ele><time>2026-04-09T05:10:59.355Z</time></trkpt><trkpt lat="45.6483959" lon="10.2684649"><ele>489.0</ele><time>2026-04-09T05:11:00.355Z</time></trkpt><trkpt lat="45.6483268" lon="10.2685259"><ele>489.0</ele><time>2026-04-09T05:11:01.354Z</time></trkpt><trkpt lat="45.6482596" lon="10.2685782"><ele>489.0</ele><time>2026-04-09T05:11:02.354Z</time></trkpt><trkpt lat="45.6481953" lon="10.2686234"><ele>489.0</ele><time>2026-04-09T05:11:03.354Z</time></trkpt><trkpt lat="45.6481277" lon="10.2686543"><ele>489.0</ele><time>2026-04-09T05:11:04.355Z</time></trkpt><trkpt lat="45.6480373" lon="10.2687044"><ele>489.0</ele><time>2026-04-09T05:11:06.354Z</time></trkpt><trkpt lat="45.6479358" lon="10.2687609"><ele>489.0</ele><time>2026-04-09T05:11:08.355Z</time></trkpt><trkpt lat="45.647829" lon="10.2687816"><ele>489.0</ele><time>2026-04-09T05:11:10.355Z</time></trkpt><trkpt lat="45.6477595" lon="10.2686779"><ele>489.0</ele><time>2026-04-09T05:11:12.355Z</time></trkpt><trkpt lat="45.6477709" lon="10.2685057"><ele>489.0</ele><time>2026-04-09T05:11:14.354Z</time></trkpt><trkpt lat="45.6478396" lon="10.2683927"><ele>489.0</ele><time>2026-04-09T05:11:15.354Z</time></trkpt><trkpt lat="45.6479145" lon="10.2682794"><ele>489.0</ele><time>2026-04-09T05:11:16.354Z</time></trkpt><trkpt lat="45.6479755" lon="10.2681632"><ele>489.0</ele><time>2026-04-09T05:11:17.355Z</time></trkpt><trkpt lat="45.6480282" lon="10.2680488"><ele>489.0</ele><time>2026-04-09T05:11:18.355Z</time></trkpt><trkpt lat="45.6480809" lon="10.2679369"><ele>489.0</ele><time>2026-04-09T05:11:19.355Z</time></trkpt><trkpt lat="45.6481349" lon="10.2678188"><ele>489.0</ele><time>2026-04-09T05:11:20.355Z</time></trkpt><trkpt lat="45.6481838" lon="10.2677026"><ele>488.3333333333333</ele><time>2026-04-09T05:11:21.355Z</time></trkpt><trkpt lat="45.6482352" lon="10.2675966"><ele>487.66666666666663</ele><time>2026-04-09T05:11:22.355Z</time></trkpt><trkpt lat="45.6482778" lon="10.2674995"><ele>487.0</ele><time>2026-04-09T05:11:23.354Z</time></trkpt><trkpt lat="45.6483205" lon="10.2673937"><ele>486.3333333333333</ele><time>2026-04-09T05:11:24.355Z</time></trkpt><trkpt lat="45.6483582" lon="10.2672879"><ele>485.66666666666663</ele><time>2026-04-09T05:11:25.355Z</time></trkpt><trkpt lat="45.6483944" lon="10.2671944"><ele>485.0</ele><time>2026-04-09T05:11:26.355Z</time></trkpt><trkpt lat="45.6484296" lon="10.2670981"><ele>484.3333333333333</ele><time>2026-04-09T05:11:27.354Z</time></trkpt><trkpt lat="45.6484542" lon="10.2669813"><ele>483.66666666666663</ele><time>2026-04-09T05:11:28.354Z</time></trkpt><trkpt lat="45.6484643" lon="10.2668744"><ele>483.0</ele><time>2026-04-09T05:11:29.355Z</time></trkpt><trkpt lat="45.6484505" lon="10.266754"><ele>482.33333333333337</ele><time>2026-04-09T05:11:30.354Z</time></trkpt><trkpt lat="45.6484293" lon="10.2666308"><ele>481.6666666666667</ele><time>2026-04-09T05:11:31.355Z</time></trkpt><trkpt lat="45.6484191" lon="10.2665135"><ele>481.0</ele><time>2026-04-09T05:11:32.354Z</time></trkpt><trkpt lat="45.6484123" lon="10.2663884"><ele>480.8</ele><time>2026-04-09T05:11:33.355Z</time></trkpt><trkpt lat="45.6484153" lon="10.2662744"><ele>480.6</ele><time>2026-04-09T05:11:34.355Z</time></trkpt><trkpt lat="45.6484296" lon="10.2661546"><ele>480.4</ele><time>2026-04-09T05:11:35.355Z</time></trkpt><trkpt lat="45.6484571" lon="10.2660519"><ele>480.2</ele><time>2026-04-09T05:11:36.354Z</time></trkpt><trkpt lat="45.6485081" lon="10.2659369"><ele>480.0</ele><time>2026-04-09T05:11:37.354Z</time></trkpt><trkpt lat="45.6485794" lon="10.2658038"><ele>479.6666666666667</ele><time>2026-04-09T05:11:38.354Z</time></trkpt><trkpt lat="45.6486309" lon="10.2656917"><ele>479.33333333333337</ele><time>2026-04-09T05:11:39.354Z</time></trkpt><trkpt lat="45.6486798" lon="10.265586"><ele>479.0</ele><time>2026-04-09T05:11:40.354Z</time></trkpt><trkpt lat="45.6487417" lon="10.2655089"><ele>478.6666666666667</ele><time>2026-04-09T05:11:41.355Z</time></trkpt><trkpt lat="45.6488282" lon="10.2654574"><ele>478.33333333333337</ele><time>2026-04-09T05:11:42.354Z</time></trkpt><trkpt lat="45.6489117" lon="10.265409"><ele>478.0</ele><time>2026-04-09T05:11:43.354Z</time></trkpt><trkpt lat="45.6489757" lon="10.2653371"><ele>478.0</ele><time>2026-04-09T05:11:44.354Z</time></trkpt><trkpt lat="45.6490218" lon="10.2652343"><ele>478.0</ele><time>2026-04-09T05:11:45.355Z</time></trkpt><trkpt lat="45.6490656" lon="10.2650872"><ele>478.0</ele><time>2026-04-09T05:11:46.354Z</time></trkpt><trkpt lat="45.6491188" lon="10.264926"><ele>478.0</ele><time>2026-04-09T05:11:47.355Z</time></trkpt><trkpt lat="45.6491842" lon="10.2647481"><ele>476.5</ele><time>2026-04-09T05:11:48.354Z</time></trkpt><trkpt lat="45.6492517" lon="10.2645821"><ele>475.0</ele><time>2026-04-09T05:11:49.354Z</time></trkpt><trkpt lat="45.6493225" lon="10.2644184"><ele>473.5</ele><time>2026-04-09T05:11:50.355Z</time></trkpt><trkpt lat="45.6493925" lon="10.2642506"><ele>472.0</ele><time>2026-04-09T05:11:51.355Z</time></trkpt><trkpt lat="45.6494537" lon="10.2640856"><ele>472.25</ele><time>2026-04-09T05:11:52.355Z</time></trkpt><trkpt lat="45.6495202" lon="10.2639264"><ele>472.5</ele><time>2026-04-09T05:11:53.354Z</time></trkpt><trkpt lat="45.6495849" lon="10.263773"><ele>472.75</ele><time>2026-04-09T05:11:54.354Z</time></trkpt><trkpt lat="45.6496464" lon="10.2636348"><ele>473.0</ele><time>2026-04-09T05:11:55.354Z</time></trkpt><trkpt lat="45.6496965" lon="10.2635048"><ele>473.0</ele><time>2026-04-09T05:11:56.355Z</time></trkpt><trkpt lat="45.6497529" lon="10.263384"><ele>472.99999999999994</ele><time>2026-04-09T05:11:57.355Z</time></trkpt><trkpt lat="45.6498039" lon="10.2632713"><ele>472.99999999999994</ele><time>2026-04-09T05:11:58.355Z</time></trkpt><trkpt lat="45.649864" lon="10.2631788"><ele>473.0</ele><time>2026-04-09T05:11:59.355Z</time></trkpt><trkpt lat="45.6499303" lon="10.2630905"><ele>473.0</ele><time>2026-04-09T05:12:00.354Z</time></trkpt><trkpt lat="45.6500058" lon="10.2630079"><ele>471.66666666666663</ele><time>2026-04-09T05:12:01.355Z</time></trkpt><trkpt lat="45.6500567" lon="10.2629486"><ele>470.3333333333333</ele><time>2026-04-09T05:12:02.354Z</time></trkpt><trkpt lat="45.650111" lon="10.262815"><ele>469.0</ele><time>2026-04-09T05:12:04.355Z</time></trkpt><trkpt lat="45.6501141" lon="10.2627113"><ele>467.66666666666663</ele><time>2026-04-09T05:12:05.355Z</time></trkpt><trkpt lat="45.6501072" lon="10.2625895"><ele>466.3333333333333</ele><time>2026-04-09T05:12:06.355Z</time></trkpt><trkpt lat="45.6501609" lon="10.2624512"><ele>465.0</ele><time>2026-04-09T05:12:07.355Z</time></trkpt><trkpt lat="45.6502309" lon="10.2623167"><ele>471.66666666666663</ele><time>2026-04-09T05:12:08.354Z</time></trkpt><trkpt lat="45.6503092" lon="10.2621446"><ele>478.3333333333333</ele><time>2026-04-09T05:12:09.354Z</time></trkpt><trkpt lat="45.6503752" lon="10.2619378"><ele>485.0</ele><time>2026-04-09T05:12:10.355Z</time></trkpt><trkpt lat="45.650428" lon="10.2617014"><ele>485.0</ele><time>2026-04-09T05:12:11.355Z</time></trkpt><trkpt lat="45.6504771" lon="10.2614709"><ele>485.0</ele><time>2026-04-09T05:12:12.355Z</time></trkpt><trkpt lat="45.6505155" lon="10.2612375"><ele>485.0</ele><time>2026-04-09T05:12:13.355Z</time></trkpt><trkpt lat="45.6505216" lon="10.2609861"><ele>484.3333333333333</ele><time>2026-04-09T05:12:14.354Z</time></trkpt><trkpt lat="45.6505034" lon="10.260696"><ele>483.66666666666663</ele><time>2026-04-09T05:12:15.355Z</time></trkpt><trkpt lat="45.6504909" lon="10.2604002"><ele>483.0</ele><time>2026-04-09T05:12:16.355Z</time></trkpt><trkpt lat="45.6504865" lon="10.2601191"><ele>483.0</ele><time>2026-04-09T05:12:17.354Z</time></trkpt><trkpt lat="45.6505077" lon="10.2598745"><ele>483.0</ele><time>2026-04-09T05:12:18.354Z</time></trkpt><trkpt lat="45.6505711" lon="10.2596397"><ele>483.0</ele><time>2026-04-09T05:12:19.354Z</time></trkpt><trkpt lat="45.6506782" lon="10.2594033"><ele>481.66666666666663</ele><time>2026-04-09T05:12:20.354Z</time></trkpt><trkpt lat="45.6507804" lon="10.2591687"><ele>480.3333333333333</ele><time>2026-04-09T05:12:21.354Z</time></trkpt><trkpt lat="45.6508681" lon="10.2589601"><ele>479.0</ele><time>2026-04-09T05:12:22.354Z</time></trkpt><trkpt lat="45.6509293" lon="10.258774"><ele>480.2</ele><time>2026-04-09T05:12:23.355Z</time></trkpt><trkpt lat="45.6509901" lon="10.2586247"><ele>481.4</ele><time>2026-04-09T05:12:24.354Z</time></trkpt><trkpt lat="45.6510405" lon="10.2585276"><ele>482.6</ele><time>2026-04-09T05:12:25.355Z</time></trkpt><trkpt lat="45.6511141" lon="10.2584663"><ele>483.8</ele><time>2026-04-09T05:12:26.354Z</time></trkpt><trkpt lat="45.6511937" lon="10.2584171"><ele>485.0</ele><time>2026-04-09T05:12:27.355Z</time></trkpt><trkpt lat="45.6513069" lon="10.2583641"><ele>485.0</ele><time>2026-04-09T05:12:28.355Z</time></trkpt><trkpt lat="45.6514146" lon="10.2583119"><ele>485.0</ele><time>2026-04-09T05:12:29.354Z</time></trkpt><trkpt lat="45.6515101" lon="10.2582567"><ele>485.0</ele><time>2026-04-09T05:12:30.354Z</time></trkpt><trkpt lat="45.6515897" lon="10.2581564"><ele>485.0</ele><time>2026-04-09T05:12:31.355Z</time></trkpt><trkpt lat="45.6516261" lon="10.258023"><ele>485.0</ele><time>2026-04-09T05:12:32.355Z</time></trkpt><trkpt lat="45.6516632" lon="10.257882"><ele>483.25</ele><time>2026-04-09T05:12:33.355Z</time></trkpt><trkpt lat="45.6516723" lon="10.2577131"><ele>481.5</ele><time>2026-04-09T05:12:34.355Z</time></trkpt><trkpt lat="45.6516599" lon="10.2575128"><ele>479.75</ele><time>2026-04-09T05:12:35.355Z</time></trkpt><trkpt lat="45.6516478" lon="10.2573066"><ele>478.0</ele><time>2026-04-09T05:12:36.354Z</time></trkpt><trkpt lat="45.6516562" lon="10.2570929"><ele>477.33333333333337</ele><time>2026-04-09T05:12:37.355Z</time></trkpt><trkpt lat="45.6516437" lon="10.2568768"><ele>476.66666666666663</ele><time>2026-04-09T05:12:38.354Z</time></trkpt><trkpt lat="45.6516334" lon="10.2566621"><ele>476.0</ele><time>2026-04-09T05:12:39.355Z</time></trkpt><trkpt lat="45.6516198" lon="10.2564488"><ele>475.3333333333333</ele><time>2026-04-09T05:12:40.355Z</time></trkpt><trkpt lat="45.6516116" lon="10.2562392"><ele>474.66666666666663</ele><time>2026-04-09T05:12:41.354Z</time></trkpt><trkpt lat="45.651616" lon="10.2560216"><ele>474.0</ele><time>2026-04-09T05:12:42.355Z</time></trkpt><trkpt lat="45.6516311" lon="10.2557972"><ele>472.66666666666663</ele><time>2026-04-09T05:12:43.354Z</time></trkpt><trkpt lat="45.6516479" lon="10.255571"><ele>471.3333333333333</ele><time>2026-04-09T05:12:44.354Z</time></trkpt><trkpt lat="45.6516613" lon="10.2553243"><ele>470.0</ele><time>2026-04-09T05:12:45.354Z</time></trkpt><trkpt lat="45.651676" lon="10.2550749"><ele>470.0</ele><time>2026-04-09T05:12:46.354Z</time></trkpt><trkpt lat="45.6516911" lon="10.2548393"><ele>470.0</ele><time>2026-04-09T05:12:47.355Z</time></trkpt><trkpt lat="45.6517118" lon="10.2546228"><ele>470.0</ele><time>2026-04-09T05:12:48.355Z</time></trkpt><trkpt lat="45.6517196" lon="10.2544127"><ele>469.5</ele><time>2026-04-09T05:12:49.354Z</time></trkpt><trkpt lat="45.6517405" lon="10.2542032"><ele>469.0</ele><time>2026-04-09T05:12:50.355Z</time></trkpt><trkpt lat="45.6517645" lon="10.2540044"><ele>468.5</ele><time>2026-04-09T05:12:51.354Z</time></trkpt><trkpt lat="45.6517819" lon="10.2537995"><ele>468.0</ele><time>2026-04-09T05:12:52.355Z</time></trkpt><trkpt lat="45.6518012" lon="10.2535977"><ele>466.5</ele><time>2026-04-09T05:12:53.354Z</time></trkpt><trkpt lat="45.6518263" lon="10.2533966"><ele>465.0</ele><time>2026-04-09T05:12:54.354Z</time></trkpt><trkpt lat="45.6518428" lon="10.2531998"><ele>463.5</ele><time>2026-04-09T05:12:55.355Z</time></trkpt><trkpt lat="45.6518627" lon="10.2529986"><ele>462.0</ele><time>2026-04-09T05:12:56.355Z</time></trkpt><trkpt lat="45.6518792" lon="10.2527946"><ele>462.75</ele><time>2026-04-09T05:12:57.355Z</time></trkpt><trkpt lat="45.651899" lon="10.2525915"><ele>463.5</ele><time>2026-04-09T05:12:58.354Z</time></trkpt><trkpt lat="45.6519222" lon="10.252392"><ele>464.25</ele><time>2026-04-09T05:12:59.354Z</time></trkpt><trkpt lat="45.6519587" lon="10.2521975"><ele>465.0</ele><time>2026-04-09T05:13:00.355Z</time></trkpt><trkpt lat="45.652007" lon="10.2520126"><ele>465.0</ele><time>2026-04-09T05:13:01.355Z</time></trkpt><trkpt lat="45.6520542" lon="10.2518491"><ele>465.0</ele><time>2026-04-09T05:13:02.355Z</time></trkpt><trkpt lat="45.6521074" lon="10.2516925"><ele>465.0</ele><time>2026-04-09T05:13:03.355Z</time></trkpt><trkpt lat="45.6521608" lon="10.2515162"><ele>465.0</ele><time>2026-04-09T05:13:04.355Z</time></trkpt><trkpt lat="45.6522352" lon="10.251374"><ele>463.2</ele><time>2026-04-09T05:13:05.355Z</time></trkpt><trkpt lat="45.6523236" lon="10.2512723"><ele>461.4</ele><time>2026-04-09T05:13:06.354Z</time></trkpt><trkpt lat="45.6524126" lon="10.251184"><ele>459.6</ele><time>2026-04-09T05:13:07.355Z</time></trkpt><trkpt lat="45.6525006" lon="10.2511055"><ele>457.8</ele><time>2026-04-09T05:13:08.354Z</time></trkpt><trkpt lat="45.6525907" lon="10.2510651"><ele>456.0</ele><time>2026-04-09T05:13:09.354Z</time></trkpt><trkpt lat="45.6526952" lon="10.2510592"><ele>456.5</ele><time>2026-04-09T05:13:10.354Z</time></trkpt><trkpt lat="45.6528058" lon="10.2511"><ele>457.0</ele><time>2026-04-09T05:13:11.355Z</time></trkpt><trkpt lat="45.6529106" lon="10.2511974"><ele>457.5</ele><time>2026-04-09T05:13:12.354Z</time></trkpt><trkpt lat="45.6530013" lon="10.2513153"><ele>458.0</ele><time>2026-04-09T05:13:13.354Z</time></trkpt><trkpt lat="45.6530832" lon="10.2514775"><ele>458.0</ele><time>2026-04-09T05:13:14.355Z</time></trkpt><trkpt lat="45.6531679" lon="10.2516725"><ele>458.0</ele><time>2026-04-09T05:13:15.354Z</time></trkpt><trkpt lat="45.6532526" lon="10.2518574"><ele>458.0</ele><time>2026-04-09T05:13:16.355Z</time></trkpt><trkpt lat="45.6533278" lon="10.2520367"><ele>458.0</ele><time>2026-04-09T05:13:17.355Z</time></trkpt><trkpt lat="45.6533943" lon="10.2521811"><ele>457.99999999999994</ele><time>2026-04-09T05:13:18.354Z</time></trkpt><trkpt lat="45.6534597" lon="10.2523"><ele>457.99999999999994</ele><time>2026-04-09T05:13:19.354Z</time></trkpt><trkpt lat="45.6535335" lon="10.2523928"><ele>458.0</ele><time>2026-04-09T05:13:20.355Z</time></trkpt><trkpt lat="45.6536331" lon="10.2524223"><ele>458.0</ele><time>2026-04-09T05:13:21.355Z</time></trkpt><trkpt lat="45.653709" lon="10.2524234"><ele>457.0</ele><time>2026-04-09T05:13:22.354Z</time></trkpt><trkpt lat="45.6537908" lon="10.2523611"><ele>456.0</ele><time>2026-04-09T05:13:23.355Z</time></trkpt><trkpt lat="45.6538858" lon="10.2522576"><ele>455.0</ele><time>2026-04-09T05:13:24.354Z</time></trkpt><trkpt lat="45.6539905" lon="10.2521823"><ele>454.0</ele><time>2026-04-09T05:13:25.355Z</time></trkpt><trkpt lat="45.6541008" lon="10.2520968"><ele>454.0</ele><time>2026-04-09T05:13:26.355Z</time></trkpt><trkpt lat="45.6542242" lon="10.2520253"><ele>454.0</ele><time>2026-04-09T05:13:27.355Z</time></trkpt><trkpt lat="45.6543439" lon="10.2519346"><ele>454.0</ele><time>2026-04-09T05:13:28.354Z</time></trkpt><trkpt lat="45.6544498" lon="10.251851"><ele>454.0</ele><time>2026-04-09T05:13:29.355Z</time></trkpt><trkpt lat="45.6545378" lon="10.251767"><ele>457.2</ele><time>2026-04-09T05:13:30.355Z</time></trkpt><trkpt lat="45.6545937" lon="10.2516442"><ele>460.4</ele><time>2026-04-09T05:13:31.354Z</time></trkpt><trkpt lat="45.6546221" lon="10.251514"><ele>463.6</ele><time>2026-04-09T05:13:32.354Z</time></trkpt><trkpt lat="45.6546084" lon="10.2513607"><ele>466.8</ele><time>2026-04-09T05:13:33.353Z</time></trkpt><trkpt lat="45.6545864" lon="10.2511935"><ele>470.0</ele><time>2026-04-09T05:13:34.353Z</time></trkpt><trkpt lat="45.6545515" lon="10.2510118"><ele>470.0</ele><time>2026-04-09T05:13:35.353Z</time></trkpt><trkpt lat="45.6545203" lon="10.2508027"><ele>470.0</ele><time>2026-04-09T05:13:36.354Z</time></trkpt><trkpt lat="45.6544835" lon="10.2505989"><ele>470.0</ele><time>2026-04-09T05:13:37.354Z</time></trkpt><trkpt lat="45.6544461" lon="10.25039"><ele>470.0</ele><time>2026-04-09T05:13:38.354Z</time></trkpt><trkpt lat="45.654406" lon="10.2501921"><ele>464.25</ele><time>2026-04-09T05:13:39.353Z</time></trkpt><trkpt lat="45.6543721" lon="10.2499948"><ele>458.5</ele><time>2026-04-09T05:13:40.353Z</time></trkpt><trkpt lat="45.6543383" lon="10.2498069"><ele>452.75</ele><time>2026-04-09T05:13:41.354Z</time></trkpt><trkpt lat="45.6543026" lon="10.2496288"><ele>447.0</ele><time>2026-04-09T05:13:42.354Z</time></trkpt><trkpt lat="45.6542732" lon="10.2494561"><ele>447.0</ele><time>2026-04-09T05:13:43.353Z</time></trkpt><trkpt lat="45.6542451" lon="10.2493166"><ele>447.00000000000006</ele><time>2026-04-09T05:13:44.354Z</time></trkpt><trkpt lat="45.6542283" lon="10.2491842"><ele>447.00000000000006</ele><time>2026-04-09T05:13:45.354Z</time></trkpt><trkpt lat="45.6542107" lon="10.2490337"><ele>447.0</ele><time>2026-04-09T05:13:46.353Z</time></trkpt><trkpt lat="45.6541867" lon="10.248864"><ele>447.0</ele><time>2026-04-09T05:13:47.354Z</time></trkpt><trkpt lat="45.6541624" lon="10.2486807"><ele>446.25</ele><time>2026-04-09T05:13:48.353Z</time></trkpt><trkpt lat="45.6541308" lon="10.2484856"><ele>445.5</ele><time>2026-04-09T05:13:49.354Z</time></trkpt><trkpt lat="45.6541102" lon="10.2482886"><ele>444.75</ele><time>2026-04-09T05:13:50.353Z</time></trkpt><trkpt lat="45.6541048" lon="10.2480955"><ele>444.0</ele><time>2026-04-09T05:13:51.353Z</time></trkpt><trkpt lat="45.6541148" lon="10.2479004"><ele>443.0</ele><time>2026-04-09T05:13:52.353Z</time></trkpt><trkpt lat="45.654135" lon="10.247724"><ele>442.0</ele><time>2026-04-09T05:13:53.353Z</time></trkpt><trkpt lat="45.6541722" lon="10.247541"><ele>441.0</ele><time>2026-04-09T05:13:54.353Z</time></trkpt><trkpt lat="45.6542173" lon="10.2473728"><ele>440.0</ele><time>2026-04-09T05:13:55.354Z</time></trkpt><trkpt lat="45.6542578" lon="10.2472077"><ele>438.25</ele><time>2026-04-09T05:13:56.354Z</time></trkpt><trkpt lat="45.6543041" lon="10.2470364"><ele>436.5</ele><time>2026-04-09T05:13:57.354Z</time></trkpt><trkpt lat="45.6543496" lon="10.2468488"><ele>434.75</ele><time>2026-04-09T05:13:58.353Z</time></trkpt><trkpt lat="45.654401" lon="10.2466668"><ele>433.0</ele><time>2026-04-09T05:13:59.354Z</time></trkpt><trkpt lat="45.6544489" lon="10.2464964"><ele>434.0</ele><time>2026-04-09T05:14:00.354Z</time></trkpt><trkpt lat="45.6544986" lon="10.2463195"><ele>435.0</ele><time>2026-04-09T05:14:01.354Z</time></trkpt><trkpt lat="45.654546" lon="10.2461542"><ele>436.0</ele><time>2026-04-09T05:14:02.353Z</time></trkpt><trkpt lat="45.6545926" lon="10.2459905"><ele>437.0</ele><time>2026-04-09T05:14:03.354Z</time></trkpt><trkpt lat="45.6546306" lon="10.2458388"><ele>437.0</ele><time>2026-04-09T05:14:04.353Z</time></trkpt><trkpt lat="45.654676" lon="10.2456953"><ele>437.00000000000006</ele><time>2026-04-09T05:14:05.354Z</time></trkpt><trkpt lat="45.6547097" lon="10.2455584"><ele>437.00000000000006</ele><time>2026-04-09T05:14:06.353Z</time></trkpt><trkpt lat="45.6547439" lon="10.2454384"><ele>437.0</ele><time>2026-04-09T05:14:07.353Z</time></trkpt><trkpt lat="45.654775" lon="10.2453121"><ele>437.0</ele><time>2026-04-09T05:14:08.354Z</time></trkpt><trkpt lat="45.6548121" lon="10.2451636"><ele>436.25</ele><time>2026-04-09T05:14:09.354Z</time></trkpt><trkpt lat="45.654868" lon="10.2449895"><ele>435.5</ele><time>2026-04-09T05:14:10.353Z</time></trkpt><trkpt lat="45.6549119" lon="10.2448178"><ele>434.75</ele><time>2026-04-09T05:14:11.354Z</time></trkpt><trkpt lat="45.6549606" lon="10.2446434"><ele>434.0</ele><time>2026-04-09T05:14:12.353Z</time></trkpt><trkpt lat="45.6550058" lon="10.244479"><ele>433.0</ele><time>2026-04-09T05:14:13.354Z</time></trkpt><trkpt lat="45.6550526" lon="10.2443071"><ele>432.0</ele><time>2026-04-09T05:14:14.354Z</time></trkpt><trkpt lat="45.6550921" lon="10.2441347"><ele>431.0</ele><time>2026-04-09T05:14:15.353Z</time></trkpt><trkpt lat="45.6551369" lon="10.2439699"><ele>430.0</ele><time>2026-04-09T05:14:16.353Z</time></trkpt><trkpt lat="45.6551772" lon="10.2437995"><ele>429.4</ele><time>2026-04-09T05:14:17.354Z</time></trkpt><trkpt lat="45.6551978" lon="10.2436395"><ele>428.8</ele><time>2026-04-09T05:14:18.354Z</time></trkpt><trkpt lat="45.655207" lon="10.2434731"><ele>428.20000000000005</ele><time>2026-04-09T05:14:19.353Z</time></trkpt><trkpt lat="45.6552073" lon="10.2433198"><ele>427.6</ele><time>2026-04-09T05:14:20.354Z</time></trkpt><trkpt lat="45.6551962" lon="10.2431871"><ele>427.0</ele><time>2026-04-09T05:14:21.353Z</time></trkpt><trkpt lat="45.6551884" lon="10.2430691"><ele>427.00000000000006</ele><time>2026-04-09T05:14:22.353Z</time></trkpt><trkpt lat="45.6551785" lon="10.2429658"><ele>427.0</ele><time>2026-04-09T05:14:23.353Z</time></trkpt><trkpt lat="45.6551622" lon="10.2428746"><ele>427.0</ele><time>2026-04-09T05:14:24.354Z</time></trkpt><trkpt lat="45.6551392" lon="10.2427801"><ele>427.0</ele><time>2026-04-09T05:14:25.354Z</time></trkpt><trkpt lat="45.6551116" lon="10.2426511"><ele>427.00000000000006</ele><time>2026-04-09T05:14:26.353Z</time></trkpt><trkpt lat="45.6550824" lon="10.2425271"><ele>427.0</ele><time>2026-04-09T05:14:27.354Z</time></trkpt><trkpt lat="45.6550627" lon="10.2424066"><ele>427.20000000000005</ele><time>2026-04-09T05:14:28.354Z</time></trkpt><trkpt lat="45.655058" lon="10.2422464"><ele>427.40000000000003</ele><time>2026-04-09T05:14:30.354Z</time></trkpt><trkpt lat="45.6550596" lon="10.2421427"><ele>427.59999999999997</ele><time>2026-04-09T05:14:32.353Z</time></trkpt><trkpt lat="45.6550895" lon="10.2419663"><ele>427.79999999999995</ele><time>2026-04-09T05:14:34.354Z</time></trkpt><trkpt lat="45.6551208" lon="10.2418428"><ele>428.0</ele><time>2026-04-09T05:14:35.354Z</time></trkpt><trkpt lat="45.6551492" lon="10.2417298"><ele>428.0</ele><time>2026-04-09T05:14:36.354Z</time></trkpt><trkpt lat="45.6551751" lon="10.2416102"><ele>428.0</ele><time>2026-04-09T05:14:37.354Z</time></trkpt><trkpt lat="45.6552018" lon="10.2414626"><ele>428.0</ele><time>2026-04-09T05:14:38.353Z</time></trkpt><trkpt lat="45.6552307" lon="10.2412789"><ele>428.0</ele><time>2026-04-09T05:14:39.353Z</time></trkpt><trkpt lat="45.655273" lon="10.2410871"><ele>430.0</ele><time>2026-04-09T05:14:40.354Z</time></trkpt><trkpt lat="45.6553044" lon="10.2408845"><ele>432.0</ele><time>2026-04-09T05:14:41.353Z</time></trkpt><trkpt lat="45.6553363" lon="10.2407105"><ele>434.0</ele><time>2026-04-09T05:14:42.354Z</time></trkpt><trkpt lat="45.6553733" lon="10.2405411"><ele>436.0</ele><time>2026-04-09T05:14:43.354Z</time></trkpt><trkpt lat="45.6553994" lon="10.240399"><ele>436.0</ele><time>2026-04-09T05:14:44.353Z</time></trkpt><trkpt lat="45.6554233" lon="10.2402449"><ele>436.0</ele><time>2026-04-09T05:14:45.354Z</time></trkpt><trkpt lat="45.65543" lon="10.2401097"><ele>436.0</ele><time>2026-04-09T05:14:46.354Z</time></trkpt><trkpt lat="45.6553936" lon="10.2399918"><ele>436.0</ele><time>2026-04-09T05:14:47.354Z</time></trkpt><trkpt lat="45.6553178" lon="10.2398813"><ele>436.0</ele><time>2026-04-09T05:14:48.353Z</time></trkpt><trkpt lat="45.6552155" lon="10.2397902"><ele>433.8</ele><time>2026-04-09T05:14:49.353Z</time></trkpt><trkpt lat="45.6551141" lon="10.2397399"><ele>431.6</ele><time>2026-04-09T05:14:50.354Z</time></trkpt><trkpt lat="45.6550012" lon="10.2397029"><ele>429.4</ele><time>2026-04-09T05:14:51.353Z</time></trkpt><trkpt lat="45.6549145" lon="10.239672"><ele>427.2</ele><time>2026-04-09T05:14:52.354Z</time></trkpt><trkpt lat="45.6548405" lon="10.2396361"><ele>425.0</ele><time>2026-04-09T05:14:53.354Z</time></trkpt><trkpt lat="45.6547644" lon="10.2396009"><ele>425.0</ele><time>2026-04-09T05:14:54.354Z</time></trkpt><trkpt lat="45.6547223" lon="10.2395139"><ele>425.0</ele><time>2026-04-09T05:14:55.353Z</time></trkpt><trkpt lat="45.6547273" lon="10.2393969"><ele>425.0</ele><time>2026-04-09T05:14:56.353Z</time></trkpt><trkpt lat="45.6547609" lon="10.2392509"><ele>425.0</ele><time>2026-04-09T05:14:57.353Z</time></trkpt><trkpt lat="45.6548028" lon="10.2391001"><ele>425.0</ele><time>2026-04-09T05:14:58.353Z</time></trkpt><trkpt lat="45.6548286" lon="10.2389787"><ele>424.8</ele><time>2026-04-09T05:14:59.353Z</time></trkpt><trkpt lat="45.6548606" lon="10.2388613"><ele>424.6</ele><time>2026-04-09T05:15:00.354Z</time></trkpt><trkpt lat="45.6548931" lon="10.2387478"><ele>424.4</ele><time>2026-04-09T05:15:01.353Z</time></trkpt><trkpt lat="45.6549304" lon="10.2386103"><ele>424.2</ele><time>2026-04-09T05:15:02.353Z</time></trkpt><trkpt lat="45.6549672" lon="10.2384604"><ele>424.0</ele><time>2026-04-09T05:15:03.354Z</time></trkpt><trkpt lat="45.6550042" lon="10.2382908"><ele>424.0</ele><time>2026-04-09T05:15:04.354Z</time></trkpt><trkpt lat="45.6550436" lon="10.2381413"><ele>424.0</ele><time>2026-04-09T05:15:05.354Z</time></trkpt><trkpt lat="45.6550843" lon="10.237992"><ele>424.0</ele><time>2026-04-09T05:15:06.353Z</time></trkpt><trkpt lat="45.6551278" lon="10.2378329"><ele>424.0</ele><time>2026-04-09T05:15:07.353Z</time></trkpt><trkpt lat="45.6551854" lon="10.2376834"><ele>424.25</ele><time>2026-04-09T05:15:08.354Z</time></trkpt><trkpt lat="45.6552569" lon="10.2375328"><ele>424.5</ele><time>2026-04-09T05:15:09.354Z</time></trkpt><trkpt lat="45.6553322" lon="10.2373943"><ele>424.75</ele><time>2026-04-09T05:15:10.354Z</time></trkpt><trkpt lat="45.6554145" lon="10.2372696"><ele>425.0</ele><time>2026-04-09T05:15:11.353Z</time></trkpt><trkpt lat="45.6554866" lon="10.2371368"><ele>425.0</ele><time>2026-04-09T05:15:12.353Z</time></trkpt><trkpt lat="45.65555" lon="10.2370213"><ele>425.0</ele><time>2026-04-09T05:15:13.354Z</time></trkpt><trkpt lat="45.6556096" lon="10.2369152"><ele>425.0</ele><time>2026-04-09T05:15:14.354Z</time></trkpt><trkpt lat="45.6556689" lon="10.2368094"><ele>425.0</ele><time>2026-04-09T05:15:15.353Z</time></trkpt><trkpt lat="45.6557292" lon="10.2367132"><ele>425.0</ele><time>2026-04-09T05:15:16.354Z</time></trkpt><trkpt lat="45.6557763" lon="10.2366156"><ele>425.0</ele><time>2026-04-09T05:15:17.354Z</time></trkpt><trkpt lat="45.6558368" lon="10.2365164"><ele>425.0</ele><time>2026-04-09T05:15:18.354Z</time></trkpt><trkpt lat="45.6558942" lon="10.2364107"><ele>425.0</ele><time>2026-04-09T05:15:19.354Z</time></trkpt><trkpt lat="45.6559515" lon="10.2362992"><ele>425.0</ele><time>2026-04-09T05:15:20.354Z</time></trkpt><trkpt lat="45.6560007" lon="10.2361941"><ele>425.0</ele><time>2026-04-09T05:15:21.353Z</time></trkpt><trkpt lat="45.6560573" lon="10.236115"><ele>423.4</ele><time>2026-04-09T05:15:22.354Z</time></trkpt><trkpt lat="45.6561415" lon="10.2360445"><ele>421.8</ele><time>2026-04-09T05:15:24.353Z</time></trkpt><trkpt lat="45.6562295" lon="10.2360003"><ele>420.20000000000005</ele><time>2026-04-09T05:15:26.354Z</time></trkpt><trkpt lat="45.6563314" lon="10.2359413"><ele>418.6</ele><time>2026-04-09T05:15:28.354Z</time></trkpt><trkpt lat="45.6564537" lon="10.2358558"><ele>417.0</ele><time>2026-04-09T05:15:30.354Z</time></trkpt><trkpt lat="45.6565172" lon="10.2357779"><ele>417.0</ele><time>2026-04-09T05:15:31.354Z</time></trkpt><trkpt lat="45.6565676" lon="10.235703"><ele>417.0</ele><time>2026-04-09T05:15:32.354Z</time></trkpt><trkpt lat="45.6566195" lon="10.2356217"><ele>417.0</ele><time>2026-04-09T05:15:33.354Z</time></trkpt><trkpt lat="45.656671" lon="10.2355388"><ele>417.0</ele><time>2026-04-09T05:15:34.354Z</time></trkpt><trkpt lat="45.6567277" lon="10.2354481"><ele>417.0</ele><time>2026-04-09T05:15:35.354Z</time></trkpt><trkpt lat="45.6567837" lon="10.2353497"><ele>417.0</ele><time>2026-04-09T05:15:36.353Z</time></trkpt><trkpt lat="45.6568489" lon="10.2352539"><ele>416.8</ele><time>2026-04-09T05:15:37.353Z</time></trkpt><trkpt lat="45.656912" lon="10.2351509"><ele>416.6</ele><time>2026-04-09T05:15:38.354Z</time></trkpt><trkpt lat="45.6569822" lon="10.2350468"><ele>416.40000000000003</ele><time>2026-04-09T05:15:39.353Z</time></trkpt><trkpt lat="45.6570525" lon="10.2349297"><ele>416.20000000000005</ele><time>2026-04-09T05:15:40.353Z</time></trkpt><trkpt lat="45.6571182" lon="10.2348157"><ele>416.0</ele><time>2026-04-09T05:15:41.353Z</time></trkpt><trkpt lat="45.6571914" lon="10.2347033"><ele>415.0</ele><time>2026-04-09T05:15:42.354Z</time></trkpt><trkpt lat="45.6572581" lon="10.23459"><ele>414.0</ele><time>2026-04-09T05:15:43.354Z</time></trkpt><trkpt lat="45.6573284" lon="10.2344893"><ele>413.0</ele><time>2026-04-09T05:15:44.354Z</time></trkpt><trkpt lat="45.6573939" lon="10.2343806"><ele>412.0</ele><time>2026-04-09T05:15:45.354Z</time></trkpt><trkpt lat="45.657465" lon="10.2342635"><ele>411.0</ele><time>2026-04-09T05:15:46.353Z</time></trkpt><trkpt lat="45.6575187" lon="10.2341344"><ele>411.0</ele><time>2026-04-09T05:15:47.353Z</time></trkpt><trkpt lat="45.6575603" lon="10.2339928"><ele>411.0</ele><time>2026-04-09T05:15:48.353Z</time></trkpt><trkpt lat="45.657575" lon="10.2338363"><ele>411.0</ele><time>2026-04-09T05:15:49.354Z</time></trkpt><trkpt lat="45.6575856" lon="10.2336913"><ele>411.0</ele><time>2026-04-09T05:15:50.354Z</time></trkpt><trkpt lat="45.6575888" lon="10.2335449"><ele>411.0</ele><time>2026-04-09T05:15:51.354Z</time></trkpt><trkpt lat="45.6576015" lon="10.2333915"><ele>409.5</ele><time>2026-04-09T05:15:52.354Z</time></trkpt><trkpt lat="45.6576145" lon="10.2332302"><ele>408.0</ele><time>2026-04-09T05:15:53.353Z</time></trkpt><trkpt lat="45.657634" lon="10.2330457"><ele>406.5</ele><time>2026-04-09T05:15:54.354Z</time></trkpt><trkpt lat="45.6576497" lon="10.2328387"><ele>405.0</ele><time>2026-04-09T05:15:55.354Z</time></trkpt><trkpt lat="45.6576683" lon="10.2326172"><ele>404.0</ele><time>2026-04-09T05:15:56.354Z</time></trkpt><trkpt lat="45.6576839" lon="10.2323898"><ele>403.0</ele><time>2026-04-09T05:15:57.353Z</time></trkpt><trkpt lat="45.6576761" lon="10.2321635"><ele>402.0</ele><time>2026-04-09T05:15:58.353Z</time></trkpt><trkpt lat="45.6576735" lon="10.2319495"><ele>402.5</ele><time>2026-04-09T05:15:59.353Z</time></trkpt><trkpt lat="45.6576702" lon="10.23175"><ele>403.0</ele><time>2026-04-09T05:16:00.353Z</time></trkpt><trkpt lat="45.6576671" lon="10.2315702"><ele>403.5</ele><time>2026-04-09T05:16:01.354Z</time></trkpt><trkpt lat="45.6576602" lon="10.2314222"><ele>404.0</ele><time>2026-04-09T05:16:02.353Z</time></trkpt><trkpt lat="45.6576511" lon="10.2312907"><ele>404.0</ele><time>2026-04-09T05:16:03.353Z</time></trkpt><trkpt lat="45.6576406" lon="10.2311796"><ele>404.0</ele><time>2026-04-09T05:16:04.353Z</time></trkpt><trkpt lat="45.6576157" lon="10.2310637"><ele>404.0</ele><time>2026-04-09T05:16:06.354Z</time></trkpt><trkpt lat="45.6574802" lon="10.2309629"><ele>404.0</ele><time>2026-04-09T05:16:09.353Z</time></trkpt><trkpt lat="45.6573675" lon="10.2309066"><ele>404.0</ele><time>2026-04-09T05:16:10.353Z</time></trkpt><trkpt lat="45.6572508" lon="10.2308742"><ele>404.0</ele><time>2026-04-09T05:16:11.354Z</time></trkpt><trkpt lat="45.6571455" lon="10.2308395"><ele>404.0</ele><time>2026-04-09T05:16:12.353Z</time></trkpt><trkpt lat="45.6570525" lon="10.2307991"><ele>404.0</ele><time>2026-04-09T05:16:13.353Z</time></trkpt><trkpt lat="45.6569638" lon="10.2307712"><ele>404.0</ele><time>2026-04-09T05:16:14.353Z</time></trkpt><trkpt lat="45.6568736" lon="10.2307381"><ele>404.0</ele><time>2026-04-09T05:16:15.354Z</time></trkpt><trkpt lat="45.6568058" lon="10.2307099"><ele>403.6</ele><time>2026-04-09T05:16:16.354Z</time></trkpt><trkpt lat="45.65674" lon="10.2306744"><ele>403.2</ele><time>2026-04-09T05:16:17.354Z</time></trkpt><trkpt lat="45.6566473" lon="10.2306234"><ele>402.8</ele><time>2026-04-09T05:16:19.353Z</time></trkpt><trkpt lat="45.6566256" lon="10.2305001"><ele>402.40000000000003</ele><time>2026-04-09T05:16:22.354Z</time></trkpt><trkpt lat="45.6567144" lon="10.2302997"><ele>402.0</ele><time>2026-04-09T05:16:24.354Z</time></trkpt><trkpt lat="45.6567792" lon="10.2301574"><ele>402.0</ele><time>2026-04-09T05:16:25.354Z</time></trkpt><trkpt lat="45.6568268" lon="10.2300106"><ele>402.0</ele><time>2026-04-09T05:16:26.354Z</time></trkpt><trkpt lat="45.6568437" lon="10.2298491"><ele>402.0</ele><time>2026-04-09T05:16:27.354Z</time></trkpt><trkpt lat="45.6568499" lon="10.229732"><ele>402.0</ele><time>2026-04-09T05:16:28.353Z</time></trkpt><trkpt lat="45.6568494" lon="10.2295994"><ele>402.0</ele><time>2026-04-09T05:16:29.353Z</time></trkpt><trkpt lat="45.6568539" lon="10.2294558"><ele>401.6666666666667</ele><time>2026-04-09T05:16:30.354Z</time></trkpt><trkpt lat="45.6568571" lon="10.2293192"><ele>401.33333333333337</ele><time>2026-04-09T05:16:31.353Z</time></trkpt><trkpt lat="45.6568527" lon="10.2292013"><ele>401.0</ele><time>2026-04-09T05:16:32.354Z</time></trkpt><trkpt lat="45.6568533" lon="10.2290825"><ele>400.6666666666667</ele><time>2026-04-09T05:16:33.353Z</time></trkpt><trkpt lat="45.6568716" lon="10.2289822"><ele>400.33333333333337</ele><time>2026-04-09T05:16:34.353Z</time></trkpt><trkpt lat="45.6569188" lon="10.22888"><ele>400.0</ele><time>2026-04-09T05:16:35.353Z</time></trkpt><trkpt lat="45.6569866" lon="10.2288304"><ele>399.6</ele><time>2026-04-09T05:16:36.354Z</time></trkpt><trkpt lat="45.6570563" lon="10.2288082"><ele>399.2</ele><time>2026-04-09T05:16:37.354Z</time></trkpt><trkpt lat="45.6571661" lon="10.2288327"><ele>398.79999999999995</ele><time>2026-04-09T05:16:38.354Z</time></trkpt><trkpt lat="45.6572725" lon="10.2289017"><ele>398.4</ele><time>2026-04-09T05:16:39.354Z</time></trkpt><trkpt lat="45.6573627" lon="10.228978"><ele>398.0</ele><time>2026-04-09T05:16:40.354Z</time></trkpt><trkpt lat="45.6574638" lon="10.2290493"><ele>398.0</ele><time>2026-04-09T05:16:41.354Z</time></trkpt><trkpt lat="45.6575458" lon="10.2291139"><ele>398.0</ele><time>2026-04-09T05:16:42.353Z</time></trkpt><trkpt lat="45.6576168" lon="10.2291502"><ele>398.0</ele><time>2026-04-09T05:16:43.353Z</time></trkpt><trkpt lat="45.6576917" lon="10.2291099"><ele>398.0</ele><time>2026-04-09T05:16:45.353Z</time></trkpt><trkpt lat="45.6577903" lon="10.2290282"><ele>398.0</ele><time>2026-04-09T05:16:47.354Z</time></trkpt><trkpt lat="45.657854" lon="10.2289202"><ele>396.4</ele><time>2026-04-09T05:16:48.353Z</time></trkpt><trkpt lat="45.6579363" lon="10.2288192"><ele>394.79999999999995</ele><time>2026-04-09T05:16:49.353Z</time></trkpt><trkpt lat="45.6579987" lon="10.2287265"><ele>393.2</ele><time>2026-04-09T05:16:50.354Z</time></trkpt><trkpt lat="45.6580724" lon="10.2286157"><ele>391.6</ele><time>2026-04-09T05:16:51.353Z</time></trkpt><trkpt lat="45.6581569" lon="10.2284996"><ele>390.0</ele><time>2026-04-09T05:16:52.353Z</time></trkpt><trkpt lat="45.6582505" lon="10.2283778"><ele>390.0</ele><time>2026-04-09T05:16:53.353Z</time></trkpt><trkpt lat="45.6583339" lon="10.2282949"><ele>390.0</ele><time>2026-04-09T05:16:54.353Z</time></trkpt><trkpt lat="45.6584042" lon="10.2282158"><ele>390.0</ele><time>2026-04-09T05:16:55.353Z</time></trkpt><trkpt lat="45.658459" lon="10.2281157"><ele>390.0</ele><time>2026-04-09T05:16:56.353Z</time></trkpt><trkpt lat="45.6584955" lon="10.2280159"><ele>390.0</ele><time>2026-04-09T05:16:57.353Z</time></trkpt><trkpt lat="45.6584949" lon="10.2279134"><ele>390.0</ele><time>2026-04-09T05:16:58.353Z</time></trkpt><trkpt lat="45.6584651" lon="10.2277825"><ele>390.25</ele><time>2026-04-09T05:16:59.353Z</time></trkpt><trkpt lat="45.6584232" lon="10.2276358"><ele>390.5</ele><time>2026-04-09T05:17:00.353Z</time></trkpt><trkpt lat="45.6583807" lon="10.227471"><ele>390.75</ele><time>2026-04-09T05:17:01.353Z</time></trkpt><trkpt lat="45.6583338" lon="10.2273019"><ele>391.0</ele><time>2026-04-09T05:17:02.353Z</time></trkpt><trkpt lat="45.6582966" lon="10.2271332"><ele>391.0</ele><time>2026-04-09T05:17:03.354Z</time></trkpt><trkpt lat="45.6582673" lon="10.2269643"><ele>391.0</ele><time>2026-04-09T05:17:04.354Z</time></trkpt><trkpt lat="45.6582541" lon="10.2268043"><ele>391.0</ele><time>2026-04-09T05:17:05.354Z</time></trkpt><trkpt lat="45.6582604" lon="10.2266425"><ele>391.0</ele><time>2026-04-09T05:17:06.353Z</time></trkpt><trkpt lat="45.6582987" lon="10.2264976"><ele>389.75</ele><time>2026-04-09T05:17:07.353Z</time></trkpt><trkpt lat="45.6583594" lon="10.2263618"><ele>388.5</ele><time>2026-04-09T05:17:08.354Z</time></trkpt><trkpt lat="45.6584225" lon="10.2262109"><ele>387.25</ele><time>2026-04-09T05:17:09.354Z</time></trkpt><trkpt lat="45.6584821" lon="10.226054"><ele>386.0</ele><time>2026-04-09T05:17:10.353Z</time></trkpt><trkpt lat="45.658548" lon="10.2258834"><ele>386.0</ele><time>2026-04-09T05:17:11.353Z</time></trkpt><trkpt lat="45.6586111" lon="10.225722"><ele>386.0</ele><time>2026-04-09T05:17:12.353Z</time></trkpt><trkpt lat="45.6586756" lon="10.2255583"><ele>386.0</ele><time>2026-04-09T05:17:13.354Z</time></trkpt><trkpt lat="45.6587455" lon="10.2254069"><ele>386.0</ele><time>2026-04-09T05:17:14.353Z</time></trkpt><trkpt lat="45.6588164" lon="10.2252631"><ele>387.5</ele><time>2026-04-09T05:17:15.354Z</time></trkpt><trkpt lat="45.6588907" lon="10.225124"><ele>389.0</ele><time>2026-04-09T05:17:16.353Z</time></trkpt><trkpt lat="45.6589644" lon="10.2249992"><ele>390.5</ele><time>2026-04-09T05:17:17.353Z</time></trkpt><trkpt lat="45.6590356" lon="10.2248716"><ele>392.0</ele><time>2026-04-09T05:17:18.354Z</time></trkpt><trkpt lat="45.6591159" lon="10.2247519"><ele>391.99999999999994</ele><time>2026-04-09T05:17:19.354Z</time></trkpt><trkpt lat="45.6591953" lon="10.2246666"><ele>392.0</ele><time>2026-04-09T05:17:20.354Z</time></trkpt><trkpt lat="45.6592696" lon="10.2245912"><ele>392.0</ele><time>2026-04-09T05:17:21.354Z</time></trkpt><trkpt lat="45.6593283" lon="10.2245392"><ele>392.0</ele><time>2026-04-09T05:17:22.354Z</time></trkpt><trkpt lat="45.6593953" lon="10.2244675"><ele>391.99999999999994</ele><time>2026-04-09T05:17:24.354Z</time></trkpt><trkpt lat="45.6594631" lon="10.2244316"><ele>392.0</ele><time>2026-04-09T05:19:02.352Z</time></trkpt><trkpt lat="45.6595513" lon="10.2243521"><ele>393.66666666666663</ele><time>2026-04-09T05:19:04.352Z</time></trkpt><trkpt lat="45.6596192" lon="10.2243209"><ele>395.3333333333333</ele><time>2026-04-09T05:19:05.352Z</time></trkpt><trkpt lat="45.6596948" lon="10.2243063"><ele>397.0</ele><time>2026-04-09T05:19:06.353Z</time></trkpt><trkpt lat="45.6597814" lon="10.2242944"><ele>398.66666666666663</ele><time>2026-04-09T05:19:07.352Z</time></trkpt><trkpt lat="45.6598822" lon="10.2243021"><ele>400.3333333333333</ele><time>2026-04-09T05:19:08.352Z</time></trkpt><trkpt lat="45.6599872" lon="10.2243009"><ele>402.0</ele><time>2026-04-09T05:19:09.352Z</time></trkpt><trkpt lat="45.6600898" lon="10.2243092"><ele>402.0</ele><time>2026-04-09T05:19:10.353Z</time></trkpt><trkpt lat="45.6601811" lon="10.224311"><ele>402.0</ele><time>2026-04-09T05:19:11.353Z</time></trkpt><trkpt lat="45.6602694" lon="10.2242958"><ele>402.0</ele><time>2026-04-09T05:19:12.353Z</time></trkpt><trkpt lat="45.6603607" lon="10.2242558"><ele>402.0</ele><time>2026-04-09T05:19:13.352Z</time></trkpt><trkpt lat="45.660442" lon="10.2241868"><ele>402.0</ele><time>2026-04-09T05:19:14.353Z</time></trkpt><trkpt lat="45.6604981" lon="10.2241005"><ele>403.8333333333333</ele><time>2026-04-09T05:19:15.353Z</time></trkpt><trkpt lat="45.6605508" lon="10.2240209"><ele>405.66666666666663</ele><time>2026-04-09T05:19:16.352Z</time></trkpt><trkpt lat="45.6606065" lon="10.2239572"><ele>407.5</ele><time>2026-04-09T05:19:17.353Z</time></trkpt><trkpt lat="45.660656" lon="10.2238769"><ele>409.3333333333333</ele><time>2026-04-09T05:19:18.352Z</time></trkpt><trkpt lat="45.6606889" lon="10.2237915"><ele>411.16666666666663</ele><time>2026-04-09T05:19:19.352Z</time></trkpt><trkpt lat="45.6607052" lon="10.2236051"><ele>413.0</ele><time>2026-04-09T05:19:21.353Z</time></trkpt><trkpt lat="45.6607754" lon="10.2234609"><ele>413.0</ele><time>2026-04-09T05:19:23.353Z</time></trkpt><trkpt lat="45.6608575" lon="10.2234064"><ele>413.0</ele><time>2026-04-09T05:19:24.352Z</time></trkpt><trkpt lat="45.6609452" lon="10.2233528"><ele>413.0</ele><time>2026-04-09T05:19:25.352Z</time></trkpt><trkpt lat="45.6610462" lon="10.2232545"><ele>413.0</ele><time>2026-04-09T05:19:26.353Z</time></trkpt><trkpt lat="45.6611385" lon="10.2231372"><ele>413.0</ele><time>2026-04-09T05:19:27.352Z</time></trkpt><trkpt lat="45.6612289" lon="10.2230349"><ele>412.59999999999997</ele><time>2026-04-09T05:19:28.352Z</time></trkpt><trkpt lat="45.6613193" lon="10.2229275"><ele>412.2</ele><time>2026-04-09T05:19:29.353Z</time></trkpt><trkpt lat="45.661407" lon="10.2228258"><ele>411.8</ele><time>2026-04-09T05:19:30.352Z</time></trkpt><trkpt lat="45.6614876" lon="10.2227329"><ele>411.4</ele><time>2026-04-09T05:19:31.352Z</time></trkpt><trkpt lat="45.6615648" lon="10.2226362"><ele>411.0</ele><time>2026-04-09T05:19:32.353Z</time></trkpt><trkpt lat="45.6616482" lon="10.2225445"><ele>411.0</ele><time>2026-04-09T05:19:33.352Z</time></trkpt><trkpt lat="45.6617291" lon="10.2224497"><ele>411.0</ele><time>2026-04-09T05:19:34.353Z</time></trkpt><trkpt lat="45.661819" lon="10.2223468"><ele>411.0</ele><time>2026-04-09T05:19:35.353Z</time></trkpt><trkpt lat="45.6619087" lon="10.2222397"><ele>411.0</ele><time>2026-04-09T05:19:36.353Z</time></trkpt><trkpt lat="45.66199" lon="10.2221164"><ele>409.0</ele><time>2026-04-09T05:19:37.353Z</time></trkpt><trkpt lat="45.6620556" lon="10.2219913"><ele>407.0</ele><time>2026-04-09T05:19:38.353Z</time></trkpt><trkpt lat="45.6621079" lon="10.2218599"><ele>405.0</ele><time>2026-04-09T05:19:39.353Z</time></trkpt><trkpt lat="45.6621543" lon="10.2217316"><ele>403.0</ele><time>2026-04-09T05:19:40.352Z</time></trkpt><trkpt lat="45.6622087" lon="10.2216103"><ele>401.0</ele><time>2026-04-09T05:19:41.353Z</time></trkpt><trkpt lat="45.6622887" lon="10.2215065"><ele>397.75</ele><time>2026-04-09T05:19:42.353Z</time></trkpt><trkpt lat="45.662388" lon="10.2214249"><ele>394.5</ele><time>2026-04-09T05:19:43.353Z</time></trkpt><trkpt lat="45.6625069" lon="10.2213733"><ele>391.25</ele><time>2026-04-09T05:19:44.353Z</time></trkpt><trkpt lat="45.6626449" lon="10.2213583"><ele>388.0</ele><time>2026-04-09T05:19:45.353Z</time></trkpt><trkpt lat="45.6627826" lon="10.2213487"><ele>387.5</ele><time>2026-04-09T05:19:46.353Z</time></trkpt><trkpt lat="45.6629238" lon="10.2213231"><ele>387.0</ele><time>2026-04-09T05:19:47.352Z</time></trkpt><trkpt lat="45.6630645" lon="10.221284"><ele>386.5</ele><time>2026-04-09T05:19:48.353Z</time></trkpt><trkpt lat="45.6631991" lon="10.2212158"><ele>386.0</ele><time>2026-04-09T05:19:49.352Z</time></trkpt><trkpt lat="45.6633201" lon="10.2211279"><ele>386.0</ele><time>2026-04-09T05:19:50.352Z</time></trkpt><trkpt lat="45.6634309" lon="10.2210149"><ele>386.0</ele><time>2026-04-09T05:19:51.352Z</time></trkpt><trkpt lat="45.6635351" lon="10.2208901"><ele>386.0</ele><time>2026-04-09T05:19:52.353Z</time></trkpt><trkpt lat="45.6636509" lon="10.2207646"><ele>386.0</ele><time>2026-04-09T05:19:53.353Z</time></trkpt><trkpt lat="45.6637726" lon="10.2206542"><ele>384.25</ele><time>2026-04-09T05:19:54.352Z</time></trkpt><trkpt lat="45.6638959" lon="10.2205419"><ele>382.5</ele><time>2026-04-09T05:19:55.353Z</time></trkpt><trkpt lat="45.6640051" lon="10.220445"><ele>380.75</ele><time>2026-04-09T05:19:56.352Z</time></trkpt><trkpt lat="45.6641139" lon="10.2203737"><ele>379.0</ele><time>2026-04-09T05:19:57.353Z</time></trkpt><trkpt lat="45.664222" lon="10.2203139"><ele>379.0</ele><time>2026-04-09T05:19:58.352Z</time></trkpt><trkpt lat="45.6643229" lon="10.2202683"><ele>379.0</ele><time>2026-04-09T05:19:59.353Z</time></trkpt><trkpt lat="45.6644187" lon="10.2202202"><ele>379.0</ele><time>2026-04-09T05:20:00.352Z</time></trkpt><trkpt lat="45.6645121" lon="10.2201703"><ele>379.0</ele><time>2026-04-09T05:20:01.353Z</time></trkpt><trkpt lat="45.6646072" lon="10.2201149"><ele>379.0</ele><time>2026-04-09T05:20:02.352Z</time></trkpt><trkpt lat="45.6647103" lon="10.2200613"><ele>379.66666666666663</ele><time>2026-04-09T05:20:03.352Z</time></trkpt><trkpt lat="45.6648059" lon="10.219995"><ele>380.3333333333333</ele><time>2026-04-09T05:20:04.352Z</time></trkpt><trkpt lat="45.6648765" lon="10.2199106"><ele>381.0</ele><time>2026-04-09T05:20:05.352Z</time></trkpt><trkpt lat="45.6649092" lon="10.219798"><ele>381.6666666666667</ele><time>2026-04-09T05:20:06.353Z</time></trkpt><trkpt lat="45.6649045" lon="10.2196866"><ele>382.33333333333337</ele><time>2026-04-09T05:20:07.352Z</time></trkpt><trkpt lat="45.6648965" lon="10.2195674"><ele>383.0</ele><time>2026-04-09T05:20:08.353Z</time></trkpt><trkpt lat="45.664877" lon="10.2194406"><ele>383.0</ele><time>2026-04-09T05:20:09.353Z</time></trkpt><trkpt lat="45.6648359" lon="10.2193369"><ele>383.0</ele><time>2026-04-09T05:20:10.352Z</time></trkpt><trkpt lat="45.6647854" lon="10.2191997"><ele>383.0</ele><time>2026-04-09T05:20:11.353Z</time></trkpt><trkpt lat="45.664693" lon="10.2190498"><ele>383.0</ele><time>2026-04-09T05:20:12.352Z</time></trkpt><trkpt lat="45.6645792" lon="10.2188975"><ele>380.33333333333337</ele><time>2026-04-09T05:20:13.352Z</time></trkpt><trkpt lat="45.6644232" lon="10.2187689"><ele>377.6666666666667</ele><time>2026-04-09T05:20:14.353Z</time></trkpt><trkpt lat="45.6642732" lon="10.2186375"><ele>375.0</ele><time>2026-04-09T05:20:15.353Z</time></trkpt><trkpt lat="45.664141" lon="10.2185104"><ele>375.0</ele><time>2026-04-09T05:20:16.353Z</time></trkpt><trkpt lat="45.6640115" lon="10.2183885"><ele>375.0</ele><time>2026-04-09T05:20:17.352Z</time></trkpt><trkpt lat="45.6638935" lon="10.2182815"><ele>375.0</ele><time>2026-04-09T05:20:18.353Z</time></trkpt><trkpt lat="45.6637811" lon="10.2181905"><ele>375.0</ele><time>2026-04-09T05:20:19.353Z</time></trkpt><trkpt lat="45.6636992" lon="10.2180827"><ele>373.2</ele><time>2026-04-09T05:20:20.352Z</time></trkpt><trkpt lat="45.6636123" lon="10.2179794"><ele>371.4</ele><time>2026-04-09T05:20:21.353Z</time></trkpt><trkpt lat="45.6635344" lon="10.2178868"><ele>369.6</ele><time>2026-04-09T05:20:22.352Z</time></trkpt><trkpt lat="45.6634529" lon="10.217801"><ele>367.8</ele><time>2026-04-09T05:20:23.353Z</time></trkpt><trkpt lat="45.6633764" lon="10.2177214"><ele>366.0</ele><time>2026-04-09T05:20:24.353Z</time></trkpt><trkpt lat="45.6633009" lon="10.2176413"><ele>366.0</ele><time>2026-04-09T05:20:25.352Z</time></trkpt><trkpt lat="45.6632024" lon="10.2175235"><ele>366.0</ele><time>2026-04-09T05:20:26.352Z</time></trkpt><trkpt lat="45.6630966" lon="10.217413"><ele>366.0</ele><time>2026-04-09T05:20:27.352Z</time></trkpt><trkpt lat="45.6629867" lon="10.2173023"><ele>366.0</ele><time>2026-04-09T05:20:28.353Z</time></trkpt><trkpt lat="45.6628679" lon="10.2171978"><ele>362.75</ele><time>2026-04-09T05:20:29.352Z</time></trkpt><trkpt lat="45.6627428" lon="10.217113"><ele>359.5</ele><time>2026-04-09T05:20:30.353Z</time></trkpt><trkpt lat="45.6626205" lon="10.2170382"><ele>356.25</ele><time>2026-04-09T05:20:31.353Z</time></trkpt><trkpt lat="45.662509" lon="10.2169532"><ele>353.0</ele><time>2026-04-09T05:20:32.353Z</time></trkpt><trkpt lat="45.662405" lon="10.2168766"><ele>353.0</ele><time>2026-04-09T05:20:33.352Z</time></trkpt><trkpt lat="45.6623211" lon="10.2167804"><ele>353.0</ele><time>2026-04-09T05:20:34.353Z</time></trkpt><trkpt lat="45.6622623" lon="10.216689"><ele>353.0</ele><time>2026-04-09T05:20:35.353Z</time></trkpt><trkpt lat="45.6622209" lon="10.216597"><ele>353.0</ele><time>2026-04-09T05:20:36.353Z</time></trkpt><trkpt lat="45.662185" lon="10.2165025"><ele>353.0</ele><time>2026-04-09T05:20:37.352Z</time></trkpt><trkpt lat="45.6621518" lon="10.2163962"><ele>353.0</ele><time>2026-04-09T05:20:38.352Z</time></trkpt><trkpt lat="45.662122" lon="10.2162673"><ele>354.5</ele><time>2026-04-09T05:20:39.352Z</time></trkpt><trkpt lat="45.6620794" lon="10.2161204"><ele>356.0</ele><time>2026-04-09T05:20:40.352Z</time></trkpt><trkpt lat="45.6620188" lon="10.215969"><ele>357.5</ele><time>2026-04-09T05:20:41.353Z</time></trkpt><trkpt lat="45.661939" lon="10.2158111"><ele>359.0</ele><time>2026-04-09T05:20:42.353Z</time></trkpt><trkpt lat="45.6618377" lon="10.2156649"><ele>356.0</ele><time>2026-04-09T05:20:43.353Z</time></trkpt><trkpt lat="45.6617342" lon="10.2155292"><ele>353.0</ele><time>2026-04-09T05:20:44.353Z</time></trkpt><trkpt lat="45.6616395" lon="10.2153872"><ele>350.0</ele><time>2026-04-09T05:20:45.353Z</time></trkpt><trkpt lat="45.6615592" lon="10.2152478"><ele>347.0</ele><time>2026-04-09T05:20:46.353Z</time></trkpt><trkpt lat="45.6614886" lon="10.2151117"><ele>347.0</ele><time>2026-04-09T05:20:47.353Z</time></trkpt><trkpt lat="45.6614255" lon="10.214959"><ele>347.0</ele><time>2026-04-09T05:20:48.352Z</time></trkpt><trkpt lat="45.6613519" lon="10.214784"><ele>347.0</ele><time>2026-04-09T05:20:49.353Z</time></trkpt><trkpt lat="45.661254" lon="10.2146036"><ele>347.0</ele><time>2026-04-09T05:20:50.353Z</time></trkpt><trkpt lat="45.661153" lon="10.2144197"><ele>343.25</ele><time>2026-04-09T05:20:51.353Z</time></trkpt><trkpt lat="45.6610613" lon="10.2142491"><ele>339.5</ele><time>2026-04-09T05:20:52.352Z</time></trkpt><trkpt lat="45.660969" lon="10.214085"><ele>335.75</ele><time>2026-04-09T05:20:53.352Z</time></trkpt><trkpt lat="45.6608844" lon="10.2139283"><ele>332.0</ele><time>2026-04-09T05:20:54.353Z</time></trkpt><trkpt lat="45.660812" lon="10.2137831"><ele>331.75</ele><time>2026-04-09T05:20:55.353Z</time></trkpt><trkpt lat="45.6607441" lon="10.2136416"><ele>331.5</ele><time>2026-04-09T05:20:56.353Z</time></trkpt><trkpt lat="45.6606795" lon="10.2134923"><ele>331.25</ele><time>2026-04-09T05:20:57.352Z</time></trkpt><trkpt lat="45.6606231" lon="10.2133287"><ele>331.0</ele><time>2026-04-09T05:20:58.352Z</time></trkpt><trkpt lat="45.6605571" lon="10.2131578"><ele>331.66666666666663</ele><time>2026-04-09T05:20:59.352Z</time></trkpt><trkpt lat="45.6604969" lon="10.2129671"><ele>332.3333333333333</ele><time>2026-04-09T05:21:00.352Z</time></trkpt><trkpt lat="45.6604429" lon="10.2127564"><ele>333.0</ele><time>2026-04-09T05:21:01.353Z</time></trkpt><trkpt lat="45.6603889" lon="10.2125459"><ele>333.0</ele><time>2026-04-09T05:21:02.352Z</time></trkpt><trkpt lat="45.660343" lon="10.2123288"><ele>333.0</ele><time>2026-04-09T05:21:03.352Z</time></trkpt><trkpt lat="45.660288" lon="10.2121036"><ele>333.0</ele><time>2026-04-09T05:21:04.345Z</time></trkpt><trkpt lat="45.6602278" lon="10.2118829"><ele>330.6666666666667</ele><time>2026-04-09T05:21:05.353Z</time></trkpt><trkpt lat="45.6601664" lon="10.2116761"><ele>328.33333333333337</ele><time>2026-04-09T05:21:06.352Z</time></trkpt><trkpt lat="45.6600928" lon="10.2114851"><ele>326.0</ele><time>2026-04-09T05:21:07.352Z</time></trkpt><trkpt lat="45.6600145" lon="10.211308"><ele>324.6666666666667</ele><time>2026-04-09T05:21:08.353Z</time></trkpt><trkpt lat="45.6599138" lon="10.2111224"><ele>323.3333333333333</ele><time>2026-04-09T05:21:09.353Z</time></trkpt><trkpt lat="45.6597995" lon="10.2109415"><ele>322.0</ele><time>2026-04-09T05:21:10.353Z</time></trkpt><trkpt lat="45.6596937" lon="10.2107591"><ele>320.25</ele><time>2026-04-09T05:21:11.353Z</time></trkpt><trkpt lat="45.6595963" lon="10.2105991"><ele>318.5</ele><time>2026-04-09T05:21:12.353Z</time></trkpt><trkpt lat="45.6595078" lon="10.210443"><ele>316.75</ele><time>2026-04-09T05:21:13.353Z</time></trkpt><trkpt lat="45.6594256" lon="10.2102951"><ele>315.0</ele><time>2026-04-09T05:21:14.353Z</time></trkpt><trkpt lat="45.6593418" lon="10.2101647"><ele>315.0</ele><time>2026-04-09T05:21:15.353Z</time></trkpt><trkpt lat="45.6592634" lon="10.2100268"><ele>315.0</ele><time>2026-04-09T05:21:16.353Z</time></trkpt><trkpt lat="45.6591698" lon="10.2098887"><ele>315.0</ele><time>2026-04-09T05:21:17.352Z</time></trkpt><trkpt lat="45.6590654" lon="10.209766"><ele>315.0</ele><time>2026-04-09T05:21:18.353Z</time></trkpt><trkpt lat="45.6589464" lon="10.2096654"><ele>314.0</ele><time>2026-04-09T05:21:19.352Z</time></trkpt><trkpt lat="45.6588236" lon="10.2095792"><ele>313.0</ele><time>2026-04-09T05:21:20.352Z</time></trkpt><trkpt lat="45.658708" lon="10.2094679"><ele>312.0</ele><time>2026-04-09T05:21:21.352Z</time></trkpt><trkpt lat="45.6585957" lon="10.2093558"><ele>311.0</ele><time>2026-04-09T05:21:22.352Z</time></trkpt><trkpt lat="45.6584961" lon="10.2092421"><ele>311.0</ele><time>2026-04-09T05:21:23.353Z</time></trkpt><trkpt lat="45.6584166" lon="10.2091172"><ele>311.0</ele><time>2026-04-09T05:21:24.353Z</time></trkpt><trkpt lat="45.6583346" lon="10.2090022"><ele>311.0</ele><time>2026-04-09T05:21:25.353Z</time></trkpt><trkpt lat="45.6582596" lon="10.2088925"><ele>311.0</ele><time>2026-04-09T05:21:26.353Z</time></trkpt><trkpt lat="45.6581893" lon="10.2087876"><ele>311.0</ele><time>2026-04-09T05:21:27.353Z</time></trkpt><trkpt lat="45.6581053" lon="10.2086287"><ele>312.0</ele><time>2026-04-09T05:21:28.352Z</time></trkpt><trkpt lat="45.6580213" lon="10.2084234"><ele>313.0</ele><time>2026-04-09T05:21:29.352Z</time></trkpt><trkpt lat="45.6579439" lon="10.208193"><ele>314.0</ele><time>2026-04-09T05:21:30.353Z</time></trkpt><trkpt lat="45.65786" lon="10.20796"><ele>311.0</ele><time>2026-04-09T05:21:31.352Z</time></trkpt><trkpt lat="45.657778" lon="10.2077526"><ele>308.0</ele><time>2026-04-09T05:21:32.353Z</time></trkpt><trkpt lat="45.6576787" lon="10.207569"><ele>305.0</ele><time>2026-04-09T05:21:33.352Z</time></trkpt><trkpt lat="45.6575546" lon="10.2073981"><ele>307.0</ele><time>2026-04-09T05:21:34.352Z</time></trkpt><trkpt lat="45.6574311" lon="10.2072297"><ele>309.0</ele><time>2026-04-09T05:21:35.353Z</time></trkpt><trkpt lat="45.6573078" lon="10.2070669"><ele>311.0</ele><time>2026-04-09T05:21:36.352Z</time></trkpt><trkpt lat="45.6571858" lon="10.2069172"><ele>311.0</ele><time>2026-04-09T05:21:37.353Z</time></trkpt><trkpt lat="45.6570727" lon="10.2067674"><ele>311.0</ele><time>2026-04-09T05:21:38.352Z</time></trkpt><trkpt lat="45.6569494" lon="10.2066483"><ele>311.0</ele><time>2026-04-09T05:21:39.353Z</time></trkpt><trkpt lat="45.6568278" lon="10.2065485"><ele>311.0</ele><time>2026-04-09T05:21:40.352Z</time></trkpt><trkpt lat="45.6567094" lon="10.20648"><ele>309.25</ele><time>2026-04-09T05:21:41.353Z</time></trkpt><trkpt lat="45.6566004" lon="10.2063868"><ele>307.5</ele><time>2026-04-09T05:21:42.353Z</time></trkpt><trkpt lat="45.6565007" lon="10.2062964"><ele>305.75</ele><time>2026-04-09T05:21:43.353Z</time></trkpt><trkpt lat="45.6564015" lon="10.2062207"><ele>304.0</ele><time>2026-04-09T05:21:44.352Z</time></trkpt><trkpt lat="45.6562946" lon="10.2061319"><ele>304.0</ele><time>2026-04-09T05:21:45.353Z</time></trkpt><trkpt lat="45.6561944" lon="10.2060158"><ele>304.0</ele><time>2026-04-09T05:21:46.353Z</time></trkpt><trkpt lat="45.6560672" lon="10.2058912"><ele>304.0</ele><time>2026-04-09T05:21:47.352Z</time></trkpt><trkpt lat="45.6559613" lon="10.2057335"><ele>304.0</ele><time>2026-04-09T05:21:48.352Z</time></trkpt><trkpt lat="45.6558572" lon="10.2055281"><ele>301.3333333333333</ele><time>2026-04-09T05:21:49.352Z</time></trkpt><trkpt lat="45.6557631" lon="10.2052898"><ele>298.6666666666667</ele><time>2026-04-09T05:21:50.353Z</time></trkpt><trkpt lat="45.6556732" lon="10.205055"><ele>296.0</ele><time>2026-04-09T05:21:51.353Z</time></trkpt><trkpt lat="45.6555868" lon="10.2048471"><ele>297.5</ele><time>2026-04-09T05:21:52.352Z</time></trkpt><trkpt lat="45.6555082" lon="10.2046504"><ele>299.0</ele><time>2026-04-09T05:21:53.352Z</time></trkpt><trkpt lat="45.655448" lon="10.2044569"><ele>300.5</ele><time>2026-04-09T05:21:54.352Z</time></trkpt><trkpt lat="45.6554" lon="10.204265"><ele>302.0</ele><time>2026-04-09T05:21:55.352Z</time></trkpt><trkpt lat="45.6553668" lon="10.2040697"><ele>302.4</ele><time>2026-04-09T05:21:56.352Z</time></trkpt><trkpt lat="45.6553584" lon="10.203891"><ele>302.79999999999995</ele><time>2026-04-09T05:21:57.352Z</time></trkpt><trkpt lat="45.6553355" lon="10.2037395"><ele>303.2</ele><time>2026-04-09T05:21:58.352Z</time></trkpt><trkpt lat="45.6553264" lon="10.2035996"><ele>303.59999999999997</ele><time>2026-04-09T05:21:59.353Z</time></trkpt><trkpt lat="45.6553135" lon="10.2034774"><ele>304.0</ele><time>2026-04-09T05:22:00.353Z</time></trkpt><trkpt lat="45.6553014" lon="10.2033583"><ele>300.66666666666663</ele><time>2026-04-09T05:22:01.353Z</time></trkpt><trkpt lat="45.6552805" lon="10.2032523"><ele>297.3333333333333</ele><time>2026-04-09T05:22:02.353Z</time></trkpt><trkpt lat="45.6552464" lon="10.2031549"><ele>294.0</ele><time>2026-04-09T05:22:03.352Z</time></trkpt><trkpt lat="45.6552086" lon="10.2030709"><ele>290.6666666666667</ele><time>2026-04-09T05:22:04.352Z</time></trkpt><trkpt lat="45.6551672" lon="10.2029922"><ele>287.33333333333337</ele><time>2026-04-09T05:22:05.352Z</time></trkpt><trkpt lat="45.6551295" lon="10.2029179"><ele>284.0</ele><time>2026-04-09T05:22:06.352Z</time></trkpt><trkpt lat="45.6551238" lon="10.2027768"><ele>283.0</ele><time>2026-04-09T05:22:08.353Z</time></trkpt><trkpt lat="45.655172" lon="10.2026604"><ele>282.0</ele><time>2026-04-09T05:22:10.352Z</time></trkpt><trkpt lat="45.6551342" lon="10.202546"><ele>281.0</ele><time>2026-04-09T05:22:12.353Z</time></trkpt><trkpt lat="45.6550246" lon="10.2024929"><ele>280.0</ele><time>2026-04-09T05:22:14.353Z</time></trkpt><trkpt lat="45.654968" lon="10.2024442"><ele>279.0</ele><time>2026-04-09T05:22:15.352Z</time></trkpt><trkpt lat="45.6549234" lon="10.2023499"><ele>278.0</ele><time>2026-04-09T05:22:16.353Z</time></trkpt><trkpt lat="45.654892" lon="10.2022084"><ele>277.2</ele><time>2026-04-09T05:22:17.352Z</time></trkpt><trkpt lat="45.6548412" lon="10.2020717"><ele>276.4</ele><time>2026-04-09T05:22:18.352Z</time></trkpt><trkpt lat="45.6547937" lon="10.2019314"><ele>275.59999999999997</ele><time>2026-04-09T05:22:19.353Z</time></trkpt><trkpt lat="45.6547608" lon="10.2017966"><ele>274.8</ele><time>2026-04-09T05:22:20.353Z</time></trkpt><trkpt lat="45.6547242" lon="10.2016862"><ele>274.0</ele><time>2026-04-09T05:22:21.353Z</time></trkpt><trkpt lat="45.6546843" lon="10.2015821"><ele>273.3333333333333</ele><time>2026-04-09T05:22:22.352Z</time></trkpt><trkpt lat="45.6546437" lon="10.2014805"><ele>272.66666666666663</ele><time>2026-04-09T05:22:23.352Z</time></trkpt><trkpt lat="45.6546038" lon="10.2013731"><ele>272.0</ele><time>2026-04-09T05:22:24.353Z</time></trkpt><trkpt lat="45.6545636" lon="10.2012787"><ele>271.3333333333333</ele><time>2026-04-09T05:22:25.352Z</time></trkpt><trkpt lat="45.6545299" lon="10.2011638"><ele>270.6666666666667</ele><time>2026-04-09T05:22:26.352Z</time></trkpt><trkpt lat="45.6544976" lon="10.2010333"><ele>270.0</ele><time>2026-04-09T05:22:27.353Z</time></trkpt><trkpt lat="45.6544568" lon="10.2009032"><ele>270.25</ele><time>2026-04-09T05:22:28.352Z</time></trkpt><trkpt lat="45.6544078" lon="10.2007498"><ele>270.5</ele><time>2026-04-09T05:22:29.353Z</time></trkpt><trkpt lat="45.6543397" lon="10.2005959"><ele>270.75</ele><time>2026-04-09T05:22:30.353Z</time></trkpt><trkpt lat="45.654293" lon="10.2004497"><ele>271.0</ele><time>2026-04-09T05:22:31.353Z</time></trkpt><trkpt lat="45.6542549" lon="10.2003141"><ele>270.5</ele><time>2026-04-09T05:22:32.353Z</time></trkpt><trkpt lat="45.6542235" lon="10.2001954"><ele>270.0</ele><time>2026-04-09T05:22:33.352Z</time></trkpt><trkpt lat="45.6542153" lon="10.2000746"><ele>269.5</ele><time>2026-04-09T05:22:34.352Z</time></trkpt><trkpt lat="45.6542248" lon="10.1999586"><ele>269.0</ele><time>2026-04-09T05:22:35.352Z</time></trkpt><trkpt lat="45.6542613" lon="10.1998598"><ele>268.5</ele><time>2026-04-09T05:22:36.352Z</time></trkpt><trkpt lat="45.6543252" lon="10.1997763"><ele>268.0</ele><time>2026-04-09T05:22:37.353Z</time></trkpt><trkpt lat="45.6544238" lon="10.1996984"><ele>267.75</ele><time>2026-04-09T05:22:38.352Z</time></trkpt><trkpt lat="45.6545476" lon="10.1996447"><ele>267.5</ele><time>2026-04-09T05:22:39.353Z</time></trkpt><trkpt lat="45.6546802" lon="10.1995942"><ele>267.25</ele><time>2026-04-09T05:22:40.352Z</time></trkpt><trkpt lat="45.6548362" lon="10.1995314"><ele>267.0</ele><time>2026-04-09T05:22:41.353Z</time></trkpt><trkpt lat="45.6550047" lon="10.1994694"><ele>267.0</ele><time>2026-04-09T05:22:42.352Z</time></trkpt><trkpt lat="45.6551519" lon="10.1994173"><ele>267.0</ele><time>2026-04-09T05:22:43.352Z</time></trkpt><trkpt lat="45.6553071" lon="10.1993869"><ele>267.0</ele><time>2026-04-09T05:22:44.353Z</time></trkpt><trkpt lat="45.6554693" lon="10.1993491"><ele>268.3333333333333</ele><time>2026-04-09T05:22:45.352Z</time></trkpt><trkpt lat="45.6556437" lon="10.1993058"><ele>269.66666666666663</ele><time>2026-04-09T05:22:46.352Z</time></trkpt><trkpt lat="45.6558352" lon="10.1992574"><ele>271.0</ele><time>2026-04-09T05:22:47.352Z</time></trkpt><trkpt lat="45.6560267" lon="10.1992022"><ele>271.0</ele><time>2026-04-09T05:22:48.352Z</time></trkpt><trkpt lat="45.6562104" lon="10.1991419"><ele>271.0</ele><time>2026-04-09T05:22:49.352Z</time></trkpt><trkpt lat="45.6563971" lon="10.1990662"><ele>271.0</ele><time>2026-04-09T05:22:50.352Z</time></trkpt><trkpt lat="45.6565909" lon="10.1989875"><ele>271.0</ele><time>2026-04-09T05:22:51.352Z</time></trkpt><trkpt lat="45.6567944" lon="10.1989125"><ele>271.0</ele><time>2026-04-09T05:22:52.352Z</time></trkpt><trkpt lat="45.6569914" lon="10.1988345"><ele>271.0</ele><time>2026-04-09T05:22:53.353Z</time></trkpt><trkpt lat="45.6571892" lon="10.1987523"><ele>271.0</ele><time>2026-04-09T05:22:54.352Z</time></trkpt><trkpt lat="45.6573857" lon="10.198667"><ele>271.0</ele><time>2026-04-09T05:22:55.352Z</time></trkpt><trkpt lat="45.6575851" lon="10.1985902"><ele>271.0</ele><time>2026-04-09T05:22:56.352Z</time></trkpt><trkpt lat="45.6577905" lon="10.1985167"><ele>271.3333333333333</ele><time>2026-04-09T05:22:57.353Z</time></trkpt><trkpt lat="45.6579868" lon="10.1984422"><ele>271.6666666666667</ele><time>2026-04-09T05:22:58.352Z</time></trkpt><trkpt lat="45.6581864" lon="10.1983574"><ele>272.0</ele><time>2026-04-09T05:22:59.353Z</time></trkpt><trkpt lat="45.6583816" lon="10.1982812"><ele>272.0</ele><time>2026-04-09T05:23:00.353Z</time></trkpt><trkpt lat="45.658563" lon="10.1981942"><ele>272.0</ele><time>2026-04-09T05:23:01.352Z</time></trkpt><trkpt lat="45.6587345" lon="10.1981303"><ele>272.0</ele><time>2026-04-09T05:23:02.352Z</time></trkpt><trkpt lat="45.6588991" lon="10.1980714"><ele>272.0</ele><time>2026-04-09T05:23:03.352Z</time></trkpt><trkpt lat="45.6590461" lon="10.1980153"><ele>272.0</ele><time>2026-04-09T05:23:04.353Z</time></trkpt><trkpt lat="45.6591758" lon="10.1979582"><ele>272.0</ele><time>2026-04-09T05:23:05.353Z</time></trkpt><trkpt lat="45.6592989" lon="10.1979193"><ele>272.0</ele><time>2026-04-09T05:23:06.353Z</time></trkpt><trkpt lat="45.6594054" lon="10.1978952"><ele>272.1666666666667</ele><time>2026-04-09T05:23:07.352Z</time></trkpt><trkpt lat="45.6595047" lon="10.1979066"><ele>272.33333333333337</ele><time>2026-04-09T05:23:08.352Z</time></trkpt><trkpt lat="45.6595921" lon="10.1979352"><ele>272.5</ele><time>2026-04-09T05:23:09.353Z</time></trkpt><trkpt lat="45.6596752" lon="10.1979701"><ele>272.6666666666667</ele><time>2026-04-09T05:23:10.352Z</time></trkpt><trkpt lat="45.6597592" lon="10.1979601"><ele>272.8333333333333</ele><time>2026-04-09T05:23:11.352Z</time></trkpt><trkpt lat="45.6598207" lon="10.1979256"><ele>273.0</ele><time>2026-04-09T05:23:12.352Z</time></trkpt><trkpt lat="45.6598662" lon="10.19785"><ele>273.0</ele><time>2026-04-09T05:23:13.352Z</time></trkpt><trkpt lat="45.6598852" lon="10.1977602"><ele>273.0</ele><time>2026-04-09T05:23:14.352Z</time></trkpt><trkpt lat="45.6598269" lon="10.1976154"><ele>273.0</ele><time>2026-04-09T05:23:16.353Z</time></trkpt><trkpt lat="45.6597711" lon="10.1975624"><ele>273.0</ele><time>2026-04-09T05:23:17.353Z</time></trkpt><trkpt lat="45.6597015" lon="10.1975606"><ele>273.0</ele><time>2026-04-09T05:23:18.352Z</time></trkpt><trkpt lat="45.6596339" lon="10.1976011"><ele>273.0</ele><time>2026-04-09T05:23:19.352Z</time></trkpt><trkpt lat="45.6595547" lon="10.1976708"><ele>273.0</ele><time>2026-04-09T05:23:20.352Z</time></trkpt><trkpt lat="45.659452" lon="10.197741"><ele>273.0</ele><time>2026-04-09T05:23:21.353Z</time></trkpt><trkpt lat="45.6593368" lon="10.1978083"><ele>273.0</ele><time>2026-04-09T05:23:22.353Z</time></trkpt><trkpt lat="45.6592075" lon="10.1978637"><ele>273.0</ele><time>2026-04-09T05:23:23.352Z</time></trkpt><trkpt lat="45.6590704" lon="10.1979258"><ele>272.75</ele><time>2026-04-09T05:23:24.352Z</time></trkpt><trkpt lat="45.6589414" lon="10.197978"><ele>272.5</ele><time>2026-04-09T05:23:25.352Z</time></trkpt><trkpt lat="45.6588105" lon="10.1980259"><ele>272.25</ele><time>2026-04-09T05:23:26.352Z</time></trkpt><trkpt lat="45.6586741" lon="10.1980781"><ele>272.0</ele><time>2026-04-09T05:23:27.352Z</time></trkpt><trkpt lat="45.6585274" lon="10.1981291"><ele>272.0</ele><time>2026-04-09T05:23:28.352Z</time></trkpt><trkpt lat="45.658377" lon="10.1981903"><ele>272.0</ele><time>2026-04-09T05:23:29.352Z</time></trkpt><trkpt lat="45.6582244" lon="10.1982546"><ele>272.0</ele><time>2026-04-09T05:23:30.353Z</time></trkpt><trkpt lat="45.6580696" lon="10.1983279"><ele>272.0</ele><time>2026-04-09T05:23:31.352Z</time></trkpt><trkpt lat="45.657917" lon="10.1983934"><ele>272.0</ele><time>2026-04-09T05:23:32.353Z</time></trkpt><trkpt lat="45.6577648" lon="10.1984607"><ele>272.0</ele><time>2026-04-09T05:23:33.352Z</time></trkpt><trkpt lat="45.6576126" lon="10.1985317"><ele>271.6666666666667</ele><time>2026-04-09T05:23:34.353Z</time></trkpt><trkpt lat="45.6574513" lon="10.1985945"><ele>271.3333333333333</ele><time>2026-04-09T05:23:35.352Z</time></trkpt><trkpt lat="45.6572895" lon="10.1986584"><ele>271.0</ele><time>2026-04-09T05:23:36.352Z</time></trkpt><trkpt lat="45.6571131" lon="10.1987315"><ele>270.3333333333333</ele><time>2026-04-09T05:23:37.353Z</time></trkpt><trkpt lat="45.656922" lon="10.1988044"><ele>269.6666666666667</ele><time>2026-04-09T05:23:38.353Z</time></trkpt><trkpt lat="45.6567411" lon="10.1988663"><ele>269.0</ele><time>2026-04-09T05:23:39.352Z</time></trkpt><trkpt lat="45.6565584" lon="10.1989134"><ele>269.0</ele><time>2026-04-09T05:23:40.353Z</time></trkpt><trkpt lat="45.6563852" lon="10.1989617"><ele>269.0</ele><time>2026-04-09T05:23:41.352Z</time></trkpt><trkpt lat="45.6562327" lon="10.1990103"><ele>269.0</ele><time>2026-04-09T05:23:42.353Z</time></trkpt><trkpt lat="45.6560919" lon="10.1990596"><ele>269.5</ele><time>2026-04-09T05:23:43.353Z</time></trkpt><trkpt lat="45.6559636" lon="10.1991191"><ele>270.0</ele><time>2026-04-09T05:23:44.353Z</time></trkpt><trkpt lat="45.6558398" lon="10.1991626"><ele>270.5</ele><time>2026-04-09T05:23:45.353Z</time></trkpt><trkpt lat="45.6557222" lon="10.19919"><ele>271.0</ele><time>2026-04-09T05:23:46.352Z</time></trkpt><trkpt lat="45.6556195" lon="10.199219"><ele>271.0</ele><time>2026-04-09T05:23:47.353Z</time></trkpt><trkpt lat="45.6555257" lon="10.1992496"><ele>271.0</ele><time>2026-04-09T05:23:48.353Z</time></trkpt><trkpt lat="45.6554438" lon="10.1992777"><ele>271.0</ele><time>2026-04-09T05:23:49.353Z</time></trkpt><trkpt lat="45.6553447" lon="10.1992196"><ele>271.0</ele><time>2026-04-09T05:23:51.352Z</time></trkpt><trkpt lat="45.655331" lon="10.1990601"><ele>271.0</ele><time>2026-04-09T05:23:53.352Z</time></trkpt><trkpt lat="45.6553527" lon="10.1989622"><ele>270.25</ele><time>2026-04-09T05:23:54.353Z</time></trkpt><trkpt lat="45.6553511" lon="10.1988161"><ele>269.5</ele><time>2026-04-09T05:23:55.353Z</time></trkpt><trkpt lat="45.655336" lon="10.198648"><ele>268.75</ele><time>2026-04-09T05:23:56.352Z</time></trkpt><trkpt lat="45.6553115" lon="10.1984732"><ele>268.0</ele><time>2026-04-09T05:23:57.351Z</time></trkpt><trkpt lat="45.6552929" lon="10.1983119"><ele>267.5</ele><time>2026-04-09T05:23:58.351Z</time></trkpt><trkpt lat="45.6552756" lon="10.19816"><ele>267.0</ele><time>2026-04-09T05:23:59.351Z</time></trkpt><trkpt lat="45.6552561" lon="10.1980257"><ele>266.5</ele><time>2026-04-09T05:24:00.352Z</time></trkpt><trkpt lat="45.655237" lon="10.1978997"><ele>266.0</ele><time>2026-04-09T05:24:01.351Z</time></trkpt><trkpt lat="45.6552257" lon="10.1977884"><ele>265.5</ele><time>2026-04-09T05:24:02.352Z</time></trkpt><trkpt lat="45.6552117" lon="10.1976868"><ele>265.0</ele><time>2026-04-09T05:24:03.352Z</time></trkpt><trkpt lat="45.6552054" lon="10.1975897"><ele>265.0</ele><time>2026-04-09T05:24:04.352Z</time></trkpt><trkpt lat="45.6551873" lon="10.1974729"><ele>265.0</ele><time>2026-04-09T05:24:06.352Z</time></trkpt><trkpt lat="45.6551686" lon="10.1973619"><ele>265.0</ele><time>2026-04-09T05:24:09.351Z</time></trkpt><trkpt lat="45.6551366" lon="10.1972263"><ele>265.0</ele><time>2026-04-09T05:24:12.351Z</time></trkpt><trkpt lat="45.6551249" lon="10.1971"><ele>265.0</ele><time>2026-04-09T05:24:14.352Z</time></trkpt><trkpt lat="45.6551147" lon="10.1969709"><ele>265.0</ele><time>2026-04-09T05:24:16.352Z</time></trkpt><trkpt lat="45.6550853" lon="10.1968199"><ele>265.2</ele><time>2026-04-09T05:24:18.352Z</time></trkpt><trkpt lat="45.655069" lon="10.1966558"><ele>265.4</ele><time>2026-04-09T05:24:20.352Z</time></trkpt><trkpt lat="45.6550586" lon="10.1965663"><ele>265.6</ele><time>2026-04-09T05:24:21.351Z</time></trkpt><trkpt lat="45.6550262" lon="10.1964146"><ele>265.8</ele><time>2026-04-09T05:24:23.352Z</time></trkpt><trkpt lat="45.6549711" lon="10.196304"><ele>266.0</ele><time>2026-04-09T05:24:25.352Z</time></trkpt><trkpt lat="45.6549079" lon="10.1962071"><ele>266.0</ele><time>2026-04-09T05:24:27.352Z</time></trkpt><trkpt lat="45.6548261" lon="10.1962325"><ele>266.0</ele><time>2026-04-09T05:24:29.352Z</time></trkpt><trkpt lat="45.6547736" lon="10.1962913"><ele>266.0</ele><time>2026-04-09T05:24:30.351Z</time></trkpt><trkpt lat="45.6547104" lon="10.1963535"><ele>266.0</ele><time>2026-04-09T05:24:31.352Z</time></trkpt><trkpt lat="45.6546535" lon="10.196434"><ele>266.0</ele><time>2026-04-09T05:24:32.352Z</time></trkpt><trkpt lat="45.6545953" lon="10.1964999"><ele>266.0</ele><time>2026-04-09T05:24:33.351Z</time></trkpt><trkpt lat="45.6545357" lon="10.1965767"><ele>266.0</ele><time>2026-04-09T05:24:34.351Z</time></trkpt><trkpt lat="45.6544809" lon="10.1966503"><ele>266.0</ele><time>2026-04-09T05:24:35.352Z</time></trkpt><trkpt lat="45.6544328" lon="10.1967181"><ele>266.0</ele><time>2026-04-09T05:24:36.352Z</time></trkpt><trkpt lat="45.6543515" lon="10.1967713"><ele>266.0</ele><time>2026-04-09T05:24:38.351Z</time></trkpt><trkpt lat="45.654277" lon="10.1968152"><ele>266.0</ele><time>2026-04-09T05:24:40.351Z</time></trkpt><trkpt lat="45.6541981" lon="10.1968608"><ele>266.0</ele><time>2026-04-09T05:24:41.352Z</time></trkpt><trkpt lat="45.6541008" lon="10.1969177"><ele>267.0</ele><time>2026-04-09T05:24:42.351Z</time></trkpt><trkpt lat="45.6540199" lon="10.1969681"><ele>268.0</ele><time>2026-04-09T05:24:43.352Z</time></trkpt><trkpt lat="45.6539483" lon="10.1970113"><ele>269.0</ele><time>2026-04-09T05:24:44.352Z</time></trkpt><trkpt lat="45.6538784" lon="10.1970503"><ele>270.0</ele><time>2026-04-09T05:24:45.352Z</time></trkpt><trkpt lat="45.6537379" lon="10.1970832"><ele>271.0</ele><time>2026-04-09T05:24:47.351Z</time></trkpt><trkpt lat="45.6536702" lon="10.1971062"><ele>274.8333333333333</ele><time>2026-04-09T05:24:48.352Z</time></trkpt><trkpt lat="45.6536008" lon="10.1971132"><ele>278.66666666666663</ele><time>2026-04-09T05:24:49.352Z</time></trkpt><trkpt lat="45.6535156" lon="10.1971254"><ele>282.5</ele><time>2026-04-09T05:24:50.352Z</time></trkpt><trkpt lat="45.6534346" lon="10.1971292"><ele>286.3333333333333</ele><time>2026-04-09T05:24:51.351Z</time></trkpt><trkpt lat="45.6533665" lon="10.1971305"><ele>290.1666666666667</ele><time>2026-04-09T05:24:52.352Z</time></trkpt><trkpt lat="45.6532989" lon="10.1971279"><ele>294.0</ele><time>2026-04-09T05:24:53.352Z</time></trkpt><trkpt lat="45.6531997" lon="10.197146"><ele>294.0</ele><time>2026-04-09T05:24:55.352Z</time></trkpt><trkpt lat="45.6531321" lon="10.1971811"><ele>294.0</ele><time>2026-04-09T05:24:57.351Z</time></trkpt><trkpt lat="45.6530987" lon="10.1972874"><ele>294.0</ele><time>2026-04-09T05:25:00.352Z</time></trkpt><trkpt lat="45.6530788" lon="10.1973905"><ele>264.0</ele><time>2026-04-09T05:25:03.352Z</time></trkpt></trkseg></trk></gpx>